<?xml version="1.0" encoding="UTF-8" standalone="no" ?>
<gpx xmlns="http://www.topografix.com/GPX/1/1" xmlns:xsi="http://www.w3.org/2001/XMLSchema-instance" xsi:schemaLocation="http://www.topografix.com/GPX/1/1 http://www.topografix.com/GPX/1/1/gpx.xsd" version="1.1" creator="VisuGPX - https://www.visugpx.com">
  <metadata>
    <name>Ascension des Vosges J1 28 mai 2025 à 16-31-06.gpx</name>
  </metadata>
  <trk>
    <name><![CDATA[28 mai 2025 à 16:31:06]]></name>
    <extensions>
      <line xmlns="http://www.topografix.com/GPX/gpx_style/0/2">
        <color>0000FF</color>
        <width>4</width>
      </line>
    </extensions>
    <trkseg>
      <trkpt lat="47.79352" lon="7.09675">
        <ele>367.6</ele>
        <time>2025-05-28T14:33:40.000Z</time>
      </trkpt>
      <trkpt lat="47.79339" lon="7.09663">
        <ele>366.32183352409</ele>
        <time>2025-05-28T14:33:49.000Z</time>
      </trkpt>
      <trkpt lat="47.79332" lon="7.09654">
        <ele>366.70882720765</ele>
        <time>2025-05-28T14:33:56.000Z</time>
      </trkpt>
      <trkpt lat="47.79327" lon="7.09652">
        <ele>366.90640890406</ele>
        <time>2025-05-28T14:34:00.000Z</time>
      </trkpt>
      <trkpt lat="47.79323" lon="7.09647">
        <ele>367.17312500932</ele>
        <time>2025-05-28T14:34:04.000Z</time>
      </trkpt>
      <trkpt lat="47.79307" lon="7.09634">
        <ele>368.50588507854</ele>
        <time>2025-05-28T14:34:18.000Z</time>
      </trkpt>
      <trkpt lat="47.79301" lon="7.09626">
        <ele>369.49007845453</ele>
        <time>2025-05-28T14:34:26.000Z</time>
      </trkpt>
      <trkpt lat="47.79297" lon="7.09621">
        <ele>370.22443818415</ele>
        <time>2025-05-28T14:34:30.000Z</time>
      </trkpt>
      <trkpt lat="47.79271" lon="7.09593">
        <ele>377.44180657561</ele>
        <time>2025-05-28T14:35:03.000Z</time>
      </trkpt>
      <trkpt lat="47.79262" lon="7.09586">
        <ele>380.81313232631</ele>
        <time>2025-05-28T14:35:13.000Z</time>
      </trkpt>
      <trkpt lat="47.79258" lon="7.09577">
        <ele>383.18993546732</ele>
        <time>2025-05-28T14:35:17.000Z</time>
      </trkpt>
      <trkpt lat="47.79251" lon="7.09574">
        <ele>385.77764126983</ele>
        <time>2025-05-28T14:35:28.000Z</time>
      </trkpt>
      <trkpt lat="47.79247" lon="7.09568">
        <ele>387.85709856137</ele>
        <time>2025-05-28T14:35:33.000Z</time>
      </trkpt>
      <trkpt lat="47.79237" lon="7.09547">
        <ele>393.21940056765</ele>
        <time>2025-05-28T14:35:46.000Z</time>
      </trkpt>
      <trkpt lat="47.79232" lon="7.09544">
        <ele>394.79754584028</ele>
        <time>2025-05-28T14:35:51.000Z</time>
      </trkpt>
      <trkpt lat="47.79228" lon="7.09538">
        <ele>396.41054379739</ele>
        <time>2025-05-28T14:35:55.000Z</time>
      </trkpt>
      <trkpt lat="47.79223" lon="7.0953">
        <ele>397.85676976291</ele>
        <time>2025-05-28T14:35:58.000Z</time>
      </trkpt>
      <trkpt lat="47.79219" lon="7.09526">
        <ele>399.03299199835</ele>
        <time>2025-05-28T14:36:07.000Z</time>
      </trkpt>
      <trkpt lat="47.7921" lon="7.09527">
        <ele>400.72407220634</ele>
        <time>2025-05-28T14:36:12.000Z</time>
      </trkpt>
      <trkpt lat="47.79206" lon="7.09529">
        <ele>401.47243780699</ele>
        <time>2025-05-28T14:36:20.000Z</time>
      </trkpt>
      <trkpt lat="47.79197" lon="7.09526">
        <ele>402.93687274577</ele>
        <time>2025-05-28T14:36:31.000Z</time>
      </trkpt>
      <trkpt lat="47.79194" lon="7.09534">
        <ele>403.29872460074</ele>
        <time>2025-05-28T14:36:34.000Z</time>
      </trkpt>
      <trkpt lat="47.79175" lon="7.09522">
        <ele>406.35141408136</ele>
        <time>2025-05-28T14:36:58.000Z</time>
      </trkpt>
      <trkpt lat="47.79151" lon="7.09527">
        <ele>409.52594855228</ele>
        <time>2025-05-28T14:37:22.000Z</time>
      </trkpt>
      <trkpt lat="47.79144" lon="7.09532">
        <ele>409.9</ele>
        <time>2025-05-28T14:37:36.000Z</time>
      </trkpt>
      <trkpt lat="47.79138" lon="7.09526">
        <ele>409.88622971527</ele>
        <time>2025-05-28T14:37:44.000Z</time>
      </trkpt>
      <trkpt lat="47.79132" lon="7.09519">
        <ele>409.79655315873</ele>
        <time>2025-05-28T14:37:51.000Z</time>
      </trkpt>
      <trkpt lat="47.79131" lon="7.09513">
        <ele>409.73708457529</ele>
        <time>2025-05-28T14:37:54.000Z</time>
      </trkpt>
      <trkpt lat="47.7913" lon="7.09503">
        <ele>409.60591806402</ele>
        <time>2025-05-28T14:37:59.000Z</time>
      </trkpt>
      <trkpt lat="47.79121" lon="7.09479">
        <ele>409.6166453387</ele>
        <time>2025-05-28T14:38:11.000Z</time>
      </trkpt>
      <trkpt lat="47.79122" lon="7.0948">
        <ele>409.66066575244</ele>
        <time>2025-05-28T14:38:30.000Z</time>
      </trkpt>
      <trkpt lat="47.79127" lon="7.09472">
        <ele>410.08771937112</ele>
        <time>2025-05-28T14:38:33.000Z</time>
      </trkpt>
      <trkpt lat="47.79123" lon="7.09457">
        <ele>410.5006454471</ele>
        <time>2025-05-28T14:38:43.000Z</time>
      </trkpt>
      <trkpt lat="47.79123" lon="7.09448">
        <ele>410.96802390617</ele>
        <time>2025-05-28T14:38:47.000Z</time>
      </trkpt>
      <trkpt lat="47.79125" lon="7.09435">
        <ele>411.72802588437</ele>
        <time>2025-05-28T14:39:02.000Z</time>
      </trkpt>
      <trkpt lat="47.79123" lon="7.09419">
        <ele>412.50101464521</ele>
        <time>2025-05-28T14:39:09.000Z</time>
      </trkpt>
      <trkpt lat="47.79123" lon="7.09387">
        <ele>414.40255709158</ele>
        <time>2025-05-28T14:39:31.000Z</time>
      </trkpt>
      <trkpt lat="47.79126" lon="7.09378">
        <ele>415.43534231555</ele>
        <time>2025-05-28T14:39:39.000Z</time>
      </trkpt>
      <trkpt lat="47.79125" lon="7.09366">
        <ele>416.33548752169</ele>
        <time>2025-05-28T14:39:43.000Z</time>
      </trkpt>
      <trkpt lat="47.79125" lon="7.09359">
        <ele>416.8813379423</ele>
        <time>2025-05-28T14:39:53.000Z</time>
      </trkpt>
      <trkpt lat="47.79128" lon="7.09339">
        <ele>418.81947456775</ele>
        <time>2025-05-28T14:40:03.000Z</time>
      </trkpt>
      <trkpt lat="47.79122" lon="7.09325">
        <ele>419.09439277286</ele>
        <time>2025-05-28T14:40:15.000Z</time>
      </trkpt>
      <trkpt lat="47.79121" lon="7.09319">
        <ele>419.23902332383</ele>
        <time>2025-05-28T14:40:20.000Z</time>
      </trkpt>
      <trkpt lat="47.79114" lon="7.09317">
        <ele>418.22759279315</ele>
        <time>2025-05-28T14:40:23.000Z</time>
      </trkpt>
      <trkpt lat="47.7911" lon="7.09313">
        <ele>417.81627406376</ele>
        <time>2025-05-28T14:40:26.000Z</time>
      </trkpt>
      <trkpt lat="47.79108" lon="7.09302">
        <ele>418.46212249893</ele>
        <time>2025-05-28T14:40:39.000Z</time>
      </trkpt>
      <trkpt lat="47.79106" lon="7.09293">
        <ele>419.06036052741</ele>
        <time>2025-05-28T14:40:43.000Z</time>
      </trkpt>
      <trkpt lat="47.79103" lon="7.09274">
        <ele>420.5346673662</ele>
        <time>2025-05-28T14:40:56.000Z</time>
      </trkpt>
      <trkpt lat="47.79102" lon="7.09268">
        <ele>421.16798196891</ele>
        <time>2025-05-28T14:40:59.000Z</time>
      </trkpt>
      <trkpt lat="47.79097" lon="7.09238">
        <ele>423.31367057742</ele>
        <time>2025-05-28T14:41:16.000Z</time>
      </trkpt>
      <trkpt lat="47.7909" lon="7.09186">
        <ele>425.44157505063</ele>
        <time>2025-05-28T14:41:48.000Z</time>
      </trkpt>
      <trkpt lat="47.79081" lon="7.09124">
        <ele>425.95615682956</ele>
        <time>2025-05-28T14:42:20.000Z</time>
      </trkpt>
      <trkpt lat="47.79078" lon="7.09116">
        <ele>425.81881254116</ele>
        <time>2025-05-28T14:42:23.000Z</time>
      </trkpt>
      <trkpt lat="47.79058" lon="7.09058">
        <ele>427.70830578587</ele>
        <time>2025-05-28T14:43:01.000Z</time>
      </trkpt>
      <trkpt lat="47.79047" lon="7.09026">
        <ele>430.32856980452</ele>
        <time>2025-05-28T14:43:20.000Z</time>
      </trkpt>
      <trkpt lat="47.79042" lon="7.09019">
        <ele>431.11843393141</ele>
        <time>2025-05-28T14:43:25.000Z</time>
      </trkpt>
      <trkpt lat="47.79037" lon="7.09021">
        <ele>431.03197841649</ele>
        <time>2025-05-28T14:43:29.000Z</time>
      </trkpt>
      <trkpt lat="47.79021" lon="7.09032">
        <ele>429.93944280171</ele>
        <time>2025-05-28T14:43:36.000Z</time>
      </trkpt>
      <trkpt lat="47.79016" lon="7.09033">
        <ele>430.0232362963</ele>
        <time>2025-05-28T14:43:41.000Z</time>
      </trkpt>
      <trkpt lat="47.79009" lon="7.0904">
        <ele>429.29374212033</ele>
        <time>2025-05-28T14:43:49.000Z</time>
      </trkpt>
      <trkpt lat="47.78994" lon="7.09048">
        <ele>428.44787064996</ele>
        <time>2025-05-28T14:44:00.000Z</time>
      </trkpt>
      <trkpt lat="47.78958" lon="7.09062">
        <ele>425.03837744952</ele>
        <time>2025-05-28T14:44:28.000Z</time>
      </trkpt>
      <trkpt lat="47.78932" lon="7.09074">
        <ele>419.40644151871</ele>
        <time>2025-05-28T14:44:51.000Z</time>
      </trkpt>
      <trkpt lat="47.78916" lon="7.09073">
        <ele>418.79310557792</ele>
        <time>2025-05-28T14:45:05.000Z</time>
      </trkpt>
      <trkpt lat="47.78904" lon="7.0907">
        <ele>419.80843768595</ele>
        <time>2025-05-28T14:45:14.000Z</time>
      </trkpt>
      <trkpt lat="47.789" lon="7.09069">
        <ele>420.11363851535</ele>
        <time>2025-05-28T14:45:17.000Z</time>
      </trkpt>
      <trkpt lat="47.78888" lon="7.09069">
        <ele>421.60395405136</ele>
        <time>2025-05-28T14:45:24.000Z</time>
      </trkpt>
      <trkpt lat="47.78882" lon="7.09072">
        <ele>422.64493092618</ele>
        <time>2025-05-28T14:45:27.000Z</time>
      </trkpt>
      <trkpt lat="47.78875" lon="7.09068">
        <ele>425.2291371885</ele>
        <time>2025-05-28T14:45:35.000Z</time>
      </trkpt>
      <trkpt lat="47.78865" lon="7.0907">
        <ele>427.02359950696</ele>
        <time>2025-05-28T14:45:41.000Z</time>
      </trkpt>
      <trkpt lat="47.78863" lon="7.09076">
        <ele>426.31004922487</ele>
        <time>2025-05-28T14:45:46.000Z</time>
      </trkpt>
      <trkpt lat="47.7886" lon="7.09092">
        <ele>424.31903108356</ele>
        <time>2025-05-28T14:45:55.000Z</time>
      </trkpt>
      <trkpt lat="47.78857" lon="7.091">
        <ele>423.99463102678</ele>
        <time>2025-05-28T14:45:59.000Z</time>
      </trkpt>
      <trkpt lat="47.78849" lon="7.09109">
        <ele>423.88054117709</ele>
        <time>2025-05-28T14:46:05.000Z</time>
      </trkpt>
      <trkpt lat="47.78833" lon="7.0912">
        <ele>423.87859808746</ele>
        <time>2025-05-28T14:46:21.000Z</time>
      </trkpt>
      <trkpt lat="47.78819" lon="7.09125">
        <ele>422.98760934435</ele>
        <time>2025-05-28T14:46:33.000Z</time>
      </trkpt>
      <trkpt lat="47.78809" lon="7.09123">
        <ele>422.82968784773</ele>
        <time>2025-05-28T14:46:43.000Z</time>
      </trkpt>
      <trkpt lat="47.7879" lon="7.09133">
        <ele>419.4336482855</ele>
        <time>2025-05-28T14:46:58.000Z</time>
      </trkpt>
      <trkpt lat="47.78783" lon="7.09122">
        <ele>419.68873811868</ele>
        <time>2025-05-28T14:47:06.000Z</time>
      </trkpt>
      <trkpt lat="47.7878" lon="7.09113">
        <ele>420.54399098922</ele>
        <time>2025-05-28T14:47:10.000Z</time>
      </trkpt>
      <trkpt lat="47.78778" lon="7.09104">
        <ele>421.76017021335</ele>
        <time>2025-05-28T14:47:11.000Z</time>
      </trkpt>
      <trkpt lat="47.78775" lon="7.091">
        <ele>422.09403080062</ele>
        <time>2025-05-28T14:47:14.000Z</time>
      </trkpt>
      <trkpt lat="47.78764" lon="7.09092">
        <ele>422.51090959236</ele>
        <time>2025-05-28T14:47:24.000Z</time>
      </trkpt>
      <trkpt lat="47.7876" lon="7.0909">
        <ele>422.53175733648</ele>
        <time>2025-05-28T14:47:29.000Z</time>
      </trkpt>
      <trkpt lat="47.78729" lon="7.09062">
        <ele>425.37739277287</ele>
        <time>2025-05-28T14:48:03.000Z</time>
      </trkpt>
      <trkpt lat="47.78705" lon="7.09042">
        <ele>425.74161933938</ele>
        <time>2025-05-28T14:48:25.000Z</time>
      </trkpt>
      <trkpt lat="47.78698" lon="7.09039">
        <ele>425.22437838041</ele>
        <time>2025-05-28T14:48:31.000Z</time>
      </trkpt>
      <trkpt lat="47.78695" lon="7.09043">
        <ele>424.07613931839</ele>
        <time>2025-05-28T14:48:34.000Z</time>
      </trkpt>
      <trkpt lat="47.78689" lon="7.09045">
        <ele>422.77625076254</ele>
        <time>2025-05-28T14:48:36.000Z</time>
      </trkpt>
      <trkpt lat="47.78686" lon="7.0905">
        <ele>421.6875750416</ele>
        <time>2025-05-28T14:48:39.000Z</time>
      </trkpt>
      <trkpt lat="47.78679" lon="7.09049">
        <ele>421.13278504874</ele>
        <time>2025-05-28T14:48:43.000Z</time>
      </trkpt>
      <trkpt lat="47.7867" lon="7.0905">
        <ele>420.40635360302</ele>
        <time>2025-05-28T14:48:49.000Z</time>
      </trkpt>
      <trkpt lat="47.78666" lon="7.09054">
        <ele>419.77486352532</ele>
        <time>2025-05-28T14:48:53.000Z</time>
      </trkpt>
      <trkpt lat="47.78656" lon="7.09058">
        <ele>419.03203691347</ele>
        <time>2025-05-28T14:49:01.000Z</time>
      </trkpt>
      <trkpt lat="47.78648" lon="7.09047">
        <ele>419.35482062055</ele>
        <time>2025-05-28T14:49:04.000Z</time>
      </trkpt>
      <trkpt lat="47.78645" lon="7.09049">
        <ele>419.06062980927</ele>
        <time>2025-05-28T14:49:07.000Z</time>
      </trkpt>
      <trkpt lat="47.78641" lon="7.09052">
        <ele>418.72562490359</ele>
        <time>2025-05-28T14:49:11.000Z</time>
      </trkpt>
      <trkpt lat="47.78622" lon="7.09069">
        <ele>416.29235172174</ele>
        <time>2025-05-28T14:49:32.000Z</time>
      </trkpt>
      <trkpt lat="47.78617" lon="7.09073">
        <ele>415.5833726559</ele>
        <time>2025-05-28T14:49:37.000Z</time>
      </trkpt>
      <trkpt lat="47.78613" lon="7.09072">
        <ele>415.396047094</ele>
        <time>2025-05-28T14:49:42.000Z</time>
      </trkpt>
      <trkpt lat="47.78606" lon="7.09062">
        <ele>415.84631431428</ele>
        <time>2025-05-28T14:49:46.000Z</time>
      </trkpt>
      <trkpt lat="47.78584" lon="7.09052">
        <ele>416.32627712004</ele>
        <time>2025-05-28T14:50:08.000Z</time>
      </trkpt>
      <trkpt lat="47.78581" lon="7.09048">
        <ele>416.69734489</ele>
        <time>2025-05-28T14:50:12.000Z</time>
      </trkpt>
      <trkpt lat="47.78578" lon="7.09043">
        <ele>416.99244977546</ele>
        <time>2025-05-28T14:50:18.000Z</time>
      </trkpt>
      <trkpt lat="47.78574" lon="7.0904">
        <ele>417.04973168103</ele>
        <time>2025-05-28T14:50:23.000Z</time>
      </trkpt>
      <trkpt lat="47.78564" lon="7.09043">
        <ele>416.38050206518</ele>
        <time>2025-05-28T14:50:26.000Z</time>
      </trkpt>
      <trkpt lat="47.78561" lon="7.09042">
        <ele>416.24649708383</ele>
        <time>2025-05-28T14:50:28.000Z</time>
      </trkpt>
      <trkpt lat="47.78557" lon="7.09039">
        <ele>416.1915747569</ele>
        <time>2025-05-28T14:50:31.000Z</time>
      </trkpt>
      <trkpt lat="47.7855" lon="7.09041">
        <ele>415.45509167513</ele>
        <time>2025-05-28T14:50:39.000Z</time>
      </trkpt>
      <trkpt lat="47.78546" lon="7.09043">
        <ele>414.86263787164</ele>
        <time>2025-05-28T14:50:44.000Z</time>
      </trkpt>
      <trkpt lat="47.78516" lon="7.09067">
        <ele>409.24649931651</ele>
        <time>2025-05-28T14:51:16.000Z</time>
      </trkpt>
      <trkpt lat="47.78492" lon="7.09077">
        <ele>405.48812073772</ele>
        <time>2025-05-28T14:51:38.000Z</time>
      </trkpt>
      <trkpt lat="47.78488" lon="7.09084">
        <ele>404.74562855456</ele>
        <time>2025-05-28T14:51:43.000Z</time>
      </trkpt>
      <trkpt lat="47.78487" lon="7.09094">
        <ele>403.99153282289</ele>
        <time>2025-05-28T14:51:48.000Z</time>
      </trkpt>
      <trkpt lat="47.78482" lon="7.09097">
        <ele>403.18449385576</ele>
        <time>2025-05-28T14:51:50.000Z</time>
      </trkpt>
      <trkpt lat="47.78478" lon="7.09098">
        <ele>402.54002100299</ele>
        <time>2025-05-28T14:51:53.000Z</time>
      </trkpt>
      <trkpt lat="47.78473" lon="7.09098">
        <ele>401.79314402913</ele>
        <time>2025-05-28T14:51:56.000Z</time>
      </trkpt>
      <trkpt lat="47.78465" lon="7.09092">
        <ele>401.10813371596</ele>
        <time>2025-05-28T14:52:02.000Z</time>
      </trkpt>
      <trkpt lat="47.7846" lon="7.09091">
        <ele>400.48466246562</ele>
        <time>2025-05-28T14:52:06.000Z</time>
      </trkpt>
      <trkpt lat="47.78455" lon="7.0909">
        <ele>399.87166222246</ele>
        <time>2025-05-28T14:52:11.000Z</time>
      </trkpt>
      <trkpt lat="47.78445" lon="7.09092">
        <ele>398.58327533691</ele>
        <time>2025-05-28T14:52:19.000Z</time>
      </trkpt>
      <trkpt lat="47.7844" lon="7.09077">
        <ele>398.01272334037</ele>
        <time>2025-05-28T14:52:30.000Z</time>
      </trkpt>
      <trkpt lat="47.7844" lon="7.09069">
        <ele>397.52290236602</ele>
        <time>2025-05-28T14:52:35.000Z</time>
      </trkpt>
      <trkpt lat="47.78435" lon="7.09068">
        <ele>396.81799890837</ele>
        <time>2025-05-28T14:52:39.000Z</time>
      </trkpt>
      <trkpt lat="47.78431" lon="7.09066">
        <ele>396.03760081894</ele>
        <time>2025-05-28T14:52:43.000Z</time>
      </trkpt>
      <trkpt lat="47.78409" lon="7.09048">
        <ele>391.56575164805</ele>
        <time>2025-05-28T14:53:03.000Z</time>
      </trkpt>
      <trkpt lat="47.78401" lon="7.09039">
        <ele>389.10038295533</ele>
        <time>2025-05-28T14:53:10.000Z</time>
      </trkpt>
      <trkpt lat="47.78398" lon="7.09034">
        <ele>387.9395285679</ele>
        <time>2025-05-28T14:53:14.000Z</time>
      </trkpt>
      <trkpt lat="47.78399" lon="7.09024">
        <ele>386.73839951605</ele>
        <time>2025-05-28T14:53:19.000Z</time>
      </trkpt>
      <trkpt lat="47.78404" lon="7.09008">
        <ele>385.24644744373</ele>
        <time>2025-05-28T14:53:24.000Z</time>
      </trkpt>
      <trkpt lat="47.78406" lon="7.09002">
        <ele>384.93605956105</ele>
        <time>2025-05-28T14:53:28.000Z</time>
      </trkpt>
      <trkpt lat="47.7841" lon="7.08986">
        <ele>383.76654412534</ele>
        <time>2025-05-28T14:53:36.000Z</time>
      </trkpt>
      <trkpt lat="47.78413" lon="7.08981">
        <ele>383.80730952565</ele>
        <time>2025-05-28T14:53:40.000Z</time>
      </trkpt>
      <trkpt lat="47.78415" lon="7.08974">
        <ele>383.65237051845</ele>
        <time>2025-05-28T14:53:44.000Z</time>
      </trkpt>
      <trkpt lat="47.78417" lon="7.08967">
        <ele>383.41607103497</ele>
        <time>2025-05-28T14:53:48.000Z</time>
      </trkpt>
      <trkpt lat="47.78419" lon="7.08961">
        <ele>383.30347222455</ele>
        <time>2025-05-28T14:53:52.000Z</time>
      </trkpt>
      <trkpt lat="47.78421" lon="7.08955">
        <ele>383.19230829217</ele>
        <time>2025-05-28T14:53:56.000Z</time>
      </trkpt>
      <trkpt lat="47.78423" lon="7.08939">
        <ele>382.20183757618</ele>
        <time>2025-05-28T14:54:03.000Z</time>
      </trkpt>
      <trkpt lat="47.78425" lon="7.08932">
        <ele>382.16493546919</ele>
        <time>2025-05-28T14:54:07.000Z</time>
      </trkpt>
      <trkpt lat="47.78431" lon="7.0892">
        <ele>383.00474523502</ele>
        <time>2025-05-28T14:54:16.000Z</time>
      </trkpt>
      <trkpt lat="47.78434" lon="7.08914">
        <ele>383.27520424636</ele>
        <time>2025-05-28T14:54:20.000Z</time>
      </trkpt>
      <trkpt lat="47.7844" lon="7.08902">
        <ele>384.16447355054</ele>
        <time>2025-05-28T14:54:28.000Z</time>
      </trkpt>
      <trkpt lat="47.7844" lon="7.08894">
        <ele>383.57757691838</ele>
        <time>2025-05-28T14:54:32.000Z</time>
      </trkpt>
      <trkpt lat="47.78443" lon="7.08889">
        <ele>384.01258564055</ele>
        <time>2025-05-28T14:54:35.000Z</time>
      </trkpt>
      <trkpt lat="47.78446" lon="7.08875">
        <ele>383.26125600191</ele>
        <time>2025-05-28T14:54:42.000Z</time>
      </trkpt>
      <trkpt lat="47.78446" lon="7.08868">
        <ele>382.70757132697</ele>
        <time>2025-05-28T14:54:46.000Z</time>
      </trkpt>
      <trkpt lat="47.78448" lon="7.08861">
        <ele>382.3059959711</ele>
        <time>2025-05-28T14:54:50.000Z</time>
      </trkpt>
      <trkpt lat="47.78451" lon="7.08856">
        <ele>382.38553240562</ele>
        <time>2025-05-28T14:54:54.000Z</time>
      </trkpt>
      <trkpt lat="47.78452" lon="7.08849">
        <ele>381.59910929342</ele>
        <time>2025-05-28T14:54:58.000Z</time>
      </trkpt>
      <trkpt lat="47.78453" lon="7.08841">
        <ele>380.67911436954</ele>
        <time>2025-05-28T14:55:02.000Z</time>
      </trkpt>
      <trkpt lat="47.78468" lon="7.08788">
        <ele>377.16747443637</ele>
        <time>2025-05-28T14:55:33.000Z</time>
      </trkpt>
      <trkpt lat="47.78469" lon="7.08781">
        <ele>376.92491347847</ele>
        <time>2025-05-28T14:55:37.000Z</time>
      </trkpt>
      <trkpt lat="47.78477" lon="7.08782">
        <ele>378.03214811289</ele>
        <time>2025-05-28T14:56:05.000Z</time>
      </trkpt>
      <trkpt lat="47.78474" lon="7.08768">
        <ele>376.61678194426</ele>
        <time>2025-05-28T14:56:32.000Z</time>
      </trkpt>
      <trkpt lat="47.78475" lon="7.0876">
        <ele>376.53535276345</ele>
        <time>2025-05-28T14:56:37.000Z</time>
      </trkpt>
      <trkpt lat="47.78475" lon="7.08752">
        <ele>376.36305738734</ele>
        <time>2025-05-28T14:56:41.000Z</time>
      </trkpt>
      <trkpt lat="47.78472" lon="7.08747">
        <ele>375.950774273</ele>
        <time>2025-05-28T14:56:45.000Z</time>
      </trkpt>
      <trkpt lat="47.78469" lon="7.08741">
        <ele>375.62756166499</ele>
        <time>2025-05-28T14:56:49.000Z</time>
      </trkpt>
      <trkpt lat="47.78462" lon="7.08736">
        <ele>375.32061055116</ele>
        <time>2025-05-28T14:56:55.000Z</time>
      </trkpt>
      <trkpt lat="47.78458" lon="7.08733">
        <ele>375.17428425911</ele>
        <time>2025-05-28T14:56:59.000Z</time>
      </trkpt>
      <trkpt lat="47.78454" lon="7.08728">
        <ele>374.92172010136</ele>
        <time>2025-05-28T14:57:03.000Z</time>
      </trkpt>
      <trkpt lat="47.78449" lon="7.08723">
        <ele>374.72259228444</ele>
        <time>2025-05-28T14:57:08.000Z</time>
      </trkpt>
      <trkpt lat="47.78445" lon="7.08721">
        <ele>374.70045568002</ele>
        <time>2025-05-28T14:57:11.000Z</time>
      </trkpt>
      <trkpt lat="47.78441" lon="7.08718">
        <ele>374.72569665155</ele>
        <time>2025-05-28T14:57:15.000Z</time>
      </trkpt>
      <trkpt lat="47.78437" lon="7.08714">
        <ele>374.74552516388</ele>
        <time>2025-05-28T14:57:19.000Z</time>
      </trkpt>
      <trkpt lat="47.78434" lon="7.08709">
        <ele>374.78387327115</ele>
        <time>2025-05-28T14:57:22.000Z</time>
      </trkpt>
      <trkpt lat="47.78429" lon="7.08705">
        <ele>374.9960428658</ele>
        <time>2025-05-28T14:57:29.000Z</time>
      </trkpt>
      <trkpt lat="47.78427" lon="7.08699">
        <ele>375.23564584493</ele>
        <time>2025-05-28T14:57:32.000Z</time>
      </trkpt>
      <trkpt lat="47.78423" lon="7.08696">
        <ele>375.67266192441</ele>
        <time>2025-05-28T14:57:35.000Z</time>
      </trkpt>
      <trkpt lat="47.78395" lon="7.08662">
        <ele>378.985830977</ele>
        <time>2025-05-28T14:58:05.000Z</time>
      </trkpt>
      <trkpt lat="47.7839" lon="7.08659">
        <ele>379.41604058175</ele>
        <time>2025-05-28T14:58:09.000Z</time>
      </trkpt>
      <trkpt lat="47.78384" lon="7.08649">
        <ele>379.9487273993</ele>
        <time>2025-05-28T14:58:15.000Z</time>
      </trkpt>
      <trkpt lat="47.78379" lon="7.08646">
        <ele>380.26804570956</ele>
        <time>2025-05-28T14:58:18.000Z</time>
      </trkpt>
      <trkpt lat="47.78369" lon="7.08642">
        <ele>381.04465002115</ele>
        <time>2025-05-28T14:58:27.000Z</time>
      </trkpt>
      <trkpt lat="47.78361" lon="7.08635">
        <ele>381.87901906148</ele>
        <time>2025-05-28T14:58:36.000Z</time>
      </trkpt>
      <trkpt lat="47.78354" lon="7.08624">
        <ele>382.78356623938</ele>
        <time>2025-05-28T14:58:45.000Z</time>
      </trkpt>
      <trkpt lat="47.78348" lon="7.08621">
        <ele>383.23859499395</ele>
        <time>2025-05-28T14:58:49.000Z</time>
      </trkpt>
      <trkpt lat="47.78336" lon="7.08611">
        <ele>384.31388003469</ele>
        <time>2025-05-28T14:59:01.000Z</time>
      </trkpt>
      <trkpt lat="47.78333" lon="7.08605">
        <ele>384.7001575171</ele>
        <time>2025-05-28T14:59:05.000Z</time>
      </trkpt>
      <trkpt lat="47.78323" lon="7.08571">
        <ele>386.82833623597</ele>
        <time>2025-05-28T14:59:25.000Z</time>
      </trkpt>
      <trkpt lat="47.78316" lon="7.08558">
        <ele>388.02075004538</ele>
        <time>2025-05-28T14:59:34.000Z</time>
      </trkpt>
      <trkpt lat="47.78306" lon="7.08535">
        <ele>389.61544371815</ele>
        <time>2025-05-28T14:59:54.000Z</time>
      </trkpt>
      <trkpt lat="47.78307" lon="7.08523">
        <ele>390.22919119583</ele>
        <time>2025-05-28T15:00:02.000Z</time>
      </trkpt>
      <trkpt lat="47.78303" lon="7.08517">
        <ele>390.65216453038</ele>
        <time>2025-05-28T15:00:07.000Z</time>
      </trkpt>
      <trkpt lat="47.78295" lon="7.08493">
        <ele>392.58440507047</ele>
        <time>2025-05-28T15:00:24.000Z</time>
      </trkpt>
      <trkpt lat="47.7829" lon="7.08463">
        <ele>395.16869126757</ele>
        <time>2025-05-28T15:00:44.000Z</time>
      </trkpt>
      <trkpt lat="47.78288" lon="7.08457">
        <ele>395.73379128209</ele>
        <time>2025-05-28T15:00:47.000Z</time>
      </trkpt>
      <trkpt lat="47.78287" lon="7.08449">
        <ele>396.50451612435</ele>
        <time>2025-05-28T15:00:52.000Z</time>
      </trkpt>
      <trkpt lat="47.78286" lon="7.08431">
        <ele>398.12737739235</ele>
        <time>2025-05-28T15:01:04.000Z</time>
      </trkpt>
      <trkpt lat="47.78284" lon="7.08416">
        <ele>399.34241231326</ele>
        <time>2025-05-28T15:01:13.000Z</time>
      </trkpt>
      <trkpt lat="47.78284" lon="7.0841">
        <ele>399.81547528827</ele>
        <time>2025-05-28T15:01:17.000Z</time>
      </trkpt>
      <trkpt lat="47.7828" lon="7.08392">
        <ele>400.6045406865</ele>
        <time>2025-05-28T15:01:28.000Z</time>
      </trkpt>
      <trkpt lat="47.78285" lon="7.08363">
        <ele>403.72717394705</ele>
        <time>2025-05-28T15:01:47.000Z</time>
      </trkpt>
      <trkpt lat="47.78288" lon="7.08356">
        <ele>404.93084679218</ele>
        <time>2025-05-28T15:01:53.000Z</time>
      </trkpt>
      <trkpt lat="47.78289" lon="7.08346">
        <ele>406.24415869527</ele>
        <time>2025-05-28T15:01:58.000Z</time>
      </trkpt>
      <trkpt lat="47.78287" lon="7.08336">
        <ele>407.35935533656</ele>
        <time>2025-05-28T15:02:05.000Z</time>
      </trkpt>
      <trkpt lat="47.7829" lon="7.08328">
        <ele>408.8846994549</ele>
        <time>2025-05-28T15:02:11.000Z</time>
      </trkpt>
      <trkpt lat="47.78292" lon="7.08322">
        <ele>409.78397463546</ele>
        <time>2025-05-28T15:02:14.000Z</time>
      </trkpt>
      <trkpt lat="47.78292" lon="7.08313">
        <ele>410.63260781551</ele>
        <time>2025-05-28T15:02:24.000Z</time>
      </trkpt>
      <trkpt lat="47.7829" lon="7.08265">
        <ele>413.45768170701</ele>
        <time>2025-05-28T15:03:02.000Z</time>
      </trkpt>
      <trkpt lat="47.78288" lon="7.08257">
        <ele>413.70503853578</ele>
        <time>2025-05-28T15:03:14.000Z</time>
      </trkpt>
      <trkpt lat="47.7829" lon="7.08249">
        <ele>414.75101167425</ele>
        <time>2025-05-28T15:03:23.000Z</time>
      </trkpt>
      <trkpt lat="47.78292" lon="7.08241">
        <ele>415.88946701207</ele>
        <time>2025-05-28T15:03:31.000Z</time>
      </trkpt>
      <trkpt lat="47.7829" lon="7.08229">
        <ele>416.43700614371</ele>
        <time>2025-05-28T15:03:38.000Z</time>
      </trkpt>
      <trkpt lat="47.7829" lon="7.08209">
        <ele>418.17055035499</ele>
        <time>2025-05-28T15:03:45.000Z</time>
      </trkpt>
      <trkpt lat="47.78286" lon="7.08199">
        <ele>418.02994198138</ele>
        <time>2025-05-28T15:03:54.000Z</time>
      </trkpt>
      <trkpt lat="47.78287" lon="7.08185">
        <ele>419.88149229283</ele>
        <time>2025-05-28T15:04:07.000Z</time>
      </trkpt>
      <trkpt lat="47.78289" lon="7.0817">
        <ele>422.40643437533</ele>
        <time>2025-05-28T15:04:14.000Z</time>
      </trkpt>
      <trkpt lat="47.78286" lon="7.08165">
        <ele>421.94601374885</ele>
        <time>2025-05-28T15:04:18.000Z</time>
      </trkpt>
      <trkpt lat="47.78284" lon="7.08155">
        <ele>422.16427664191</ele>
        <time>2025-05-28T15:04:22.000Z</time>
      </trkpt>
      <trkpt lat="47.78284" lon="7.08131">
        <ele>424.50848158447</ele>
        <time>2025-05-28T15:04:42.000Z</time>
      </trkpt>
      <trkpt lat="47.7828" lon="7.08124">
        <ele>424.01314983843</ele>
        <time>2025-05-28T15:04:46.000Z</time>
      </trkpt>
      <trkpt lat="47.78276" lon="7.08114">
        <ele>423.647241301</ele>
        <time>2025-05-28T15:04:56.000Z</time>
      </trkpt>
      <trkpt lat="47.78278" lon="7.08094">
        <ele>426.66626328761</ele>
        <time>2025-05-28T15:05:06.000Z</time>
      </trkpt>
      <trkpt lat="47.78275" lon="7.08074">
        <ele>427.95303098515</ele>
        <time>2025-05-28T15:05:19.000Z</time>
      </trkpt>
      <trkpt lat="47.78273" lon="7.08063">
        <ele>428.1149236108</ele>
        <time>2025-05-28T15:05:29.000Z</time>
      </trkpt>
      <trkpt lat="47.78272" lon="7.08054">
        <ele>428.85493755792</ele>
        <time>2025-05-28T15:05:32.000Z</time>
      </trkpt>
      <trkpt lat="47.78262" lon="7.08024">
        <ele>428.84670638344</ele>
        <time>2025-05-28T15:05:53.000Z</time>
      </trkpt>
      <trkpt lat="47.78258" lon="7.07995">
        <ele>430.66666640819</ele>
        <time>2025-05-28T15:06:07.000Z</time>
      </trkpt>
      <trkpt lat="47.78252" lon="7.07986">
        <ele>430.11701724734</ele>
        <time>2025-05-28T15:06:14.000Z</time>
      </trkpt>
      <trkpt lat="47.7825" lon="7.0798">
        <ele>430.22187090058</ele>
        <time>2025-05-28T15:06:18.000Z</time>
      </trkpt>
      <trkpt lat="47.78251" lon="7.07971">
        <ele>431.82679891498</ele>
        <time>2025-05-28T15:06:25.000Z</time>
      </trkpt>
      <trkpt lat="47.78248" lon="7.07965">
        <ele>431.75877948117</ele>
        <time>2025-05-28T15:06:29.000Z</time>
      </trkpt>
      <trkpt lat="47.78244" lon="7.07957">
        <ele>431.93249842544</ele>
        <time>2025-05-28T15:06:39.000Z</time>
      </trkpt>
      <trkpt lat="47.78242" lon="7.0794">
        <ele>433.60546292478</ele>
        <time>2025-05-28T15:06:45.000Z</time>
      </trkpt>
      <trkpt lat="47.78239" lon="7.07935">
        <ele>433.57143179189</ele>
        <time>2025-05-28T15:06:48.000Z</time>
      </trkpt>
      <trkpt lat="47.78234" lon="7.07911">
        <ele>435.1888807216</ele>
        <time>2025-05-28T15:07:00.000Z</time>
      </trkpt>
      <trkpt lat="47.78225" lon="7.07889">
        <ele>434.84510103245</ele>
        <time>2025-05-28T15:07:17.000Z</time>
      </trkpt>
      <trkpt lat="47.78222" lon="7.07877">
        <ele>435.3698905062</ele>
        <time>2025-05-28T15:07:23.000Z</time>
      </trkpt>
      <trkpt lat="47.78222" lon="7.0787">
        <ele>436.25144007215</ele>
        <time>2025-05-28T15:07:26.000Z</time>
      </trkpt>
      <trkpt lat="47.78209" lon="7.07814">
        <ele>439.81010514896</ele>
        <time>2025-05-28T15:07:58.000Z</time>
      </trkpt>
      <trkpt lat="47.78208" lon="7.07805">
        <ele>440.45851875552</ele>
        <time>2025-05-28T15:08:01.000Z</time>
      </trkpt>
      <trkpt lat="47.7821" lon="7.07785">
        <ele>442.54221051245</ele>
        <time>2025-05-28T15:08:18.000Z</time>
      </trkpt>
      <trkpt lat="47.7821" lon="7.07778">
        <ele>443.27646114577</ele>
        <time>2025-05-28T15:08:22.000Z</time>
      </trkpt>
      <trkpt lat="47.78204" lon="7.0777">
        <ele>443.19906286875</ele>
        <time>2025-05-28T15:08:28.000Z</time>
      </trkpt>
      <trkpt lat="47.78201" lon="7.07744">
        <ele>444.95569557701</ele>
        <time>2025-05-28T15:08:40.000Z</time>
      </trkpt>
      <trkpt lat="47.78203" lon="7.07729">
        <ele>446.7602698466</ele>
        <time>2025-05-28T15:08:50.000Z</time>
      </trkpt>
      <trkpt lat="47.78207" lon="7.07718">
        <ele>448.62985284547</ele>
        <time>2025-05-28T15:08:58.000Z</time>
      </trkpt>
      <trkpt lat="47.78205" lon="7.07705">
        <ele>449.70170996068</ele>
        <time>2025-05-28T15:09:09.000Z</time>
      </trkpt>
      <trkpt lat="47.78202" lon="7.07689">
        <ele>450.43698442262</ele>
        <time>2025-05-28T15:09:20.000Z</time>
      </trkpt>
      <trkpt lat="47.78205" lon="7.07686">
        <ele>451.2003979666</ele>
        <time>2025-05-28T15:09:35.000Z</time>
      </trkpt>
      <trkpt lat="47.78203" lon="7.07674">
        <ele>451.78367745448</ele>
        <time>2025-05-28T15:09:39.000Z</time>
      </trkpt>
      <trkpt lat="47.78201" lon="7.07668">
        <ele>451.73659341498</ele>
        <time>2025-05-28T15:09:44.000Z</time>
      </trkpt>
      <trkpt lat="47.782" lon="7.0765">
        <ele>452.82663836577</ele>
        <time>2025-05-28T15:09:52.000Z</time>
      </trkpt>
      <trkpt lat="47.782" lon="7.07636">
        <ele>453.66708778547</ele>
        <time>2025-05-28T15:10:02.000Z</time>
      </trkpt>
      <trkpt lat="47.78202" lon="7.07629">
        <ele>454.48938268412</ele>
        <time>2025-05-28T15:10:06.000Z</time>
      </trkpt>
      <trkpt lat="47.78201" lon="7.07621">
        <ele>455.06451176773</ele>
        <time>2025-05-28T15:10:13.000Z</time>
      </trkpt>
      <trkpt lat="47.78196" lon="7.07605">
        <ele>455.67818100467</ele>
        <time>2025-05-28T15:10:26.000Z</time>
      </trkpt>
      <trkpt lat="47.78194" lon="7.0759">
        <ele>456.77984988368</ele>
        <time>2025-05-28T15:10:33.000Z</time>
      </trkpt>
      <trkpt lat="47.78194" lon="7.07571">
        <ele>458.75295204679</ele>
        <time>2025-05-28T15:10:49.000Z</time>
      </trkpt>
      <trkpt lat="47.78191" lon="7.07555">
        <ele>460.21205801787</ele>
        <time>2025-05-28T15:10:56.000Z</time>
      </trkpt>
      <trkpt lat="47.7819" lon="7.07532">
        <ele>462.45124203312</ele>
        <time>2025-05-28T15:11:10.000Z</time>
      </trkpt>
      <trkpt lat="47.78188" lon="7.07518">
        <ele>463.82771013975</ele>
        <time>2025-05-28T15:11:21.000Z</time>
      </trkpt>
      <trkpt lat="47.78184" lon="7.07505">
        <ele>463.58583628065</ele>
        <time>2025-05-28T15:11:26.000Z</time>
      </trkpt>
      <trkpt lat="47.78186" lon="7.075">
        <ele>464.12416376331</ele>
        <time>2025-05-28T15:11:34.000Z</time>
      </trkpt>
      <trkpt lat="47.7818" lon="7.0749">
        <ele>463.80733847566</ele>
        <time>2025-05-28T15:11:44.000Z</time>
      </trkpt>
      <trkpt lat="47.7818" lon="7.07483">
        <ele>464.0265556765</ele>
        <time>2025-05-28T15:11:47.000Z</time>
      </trkpt>
      <trkpt lat="47.78181" lon="7.07474">
        <ele>464.5711242663</ele>
        <time>2025-05-28T15:11:54.000Z</time>
      </trkpt>
      <trkpt lat="47.78183" lon="7.07466">
        <ele>465.08271230804</ele>
        <time>2025-05-28T15:12:00.000Z</time>
      </trkpt>
      <trkpt lat="47.78189" lon="7.07459">
        <ele>465.91054100972</ele>
        <time>2025-05-28T15:12:06.000Z</time>
      </trkpt>
      <trkpt lat="47.78187" lon="7.0745">
        <ele>466.1255301873</ele>
        <time>2025-05-28T15:12:11.000Z</time>
      </trkpt>
      <trkpt lat="47.78183" lon="7.07442">
        <ele>466.19924966575</ele>
        <time>2025-05-28T15:12:17.000Z</time>
      </trkpt>
      <trkpt lat="47.78181" lon="7.07437">
        <ele>466.46593088764</ele>
        <time>2025-05-28T15:12:21.000Z</time>
      </trkpt>
      <trkpt lat="47.78181" lon="7.07428">
        <ele>467.35229716104</ele>
        <time>2025-05-28T15:12:26.000Z</time>
      </trkpt>
      <trkpt lat="47.78179" lon="7.07422">
        <ele>467.73358171267</ele>
        <time>2025-05-28T15:12:36.000Z</time>
      </trkpt>
      <trkpt lat="47.78177" lon="7.07405">
        <ele>469.14887325487</ele>
        <time>2025-05-28T15:12:46.000Z</time>
      </trkpt>
      <trkpt lat="47.78182" lon="7.07389">
        <ele>470.77673075711</ele>
        <time>2025-05-28T15:12:54.000Z</time>
      </trkpt>
      <trkpt lat="47.78179" lon="7.07356">
        <ele>473.88864461798</ele>
        <time>2025-05-28T15:13:16.000Z</time>
      </trkpt>
      <trkpt lat="47.78177" lon="7.07346">
        <ele>474.87196783147</ele>
        <time>2025-05-28T15:13:26.000Z</time>
      </trkpt>
      <trkpt lat="47.78176" lon="7.07338">
        <ele>475.61883728462</ele>
        <time>2025-05-28T15:13:28.000Z</time>
      </trkpt>
      <trkpt lat="47.78175" lon="7.07328">
        <ele>476.77184143621</ele>
        <time>2025-05-28T15:13:38.000Z</time>
      </trkpt>
      <trkpt lat="47.78172" lon="7.07323">
        <ele>477.44873011715</ele>
        <time>2025-05-28T15:13:41.000Z</time>
      </trkpt>
      <trkpt lat="47.78168" lon="7.0732">
        <ele>477.68833976872</ele>
        <time>2025-05-28T15:13:50.000Z</time>
      </trkpt>
      <trkpt lat="47.78162" lon="7.07312">
        <ele>478.51784532459</ele>
        <time>2025-05-28T15:13:54.000Z</time>
      </trkpt>
      <trkpt lat="47.78154" lon="7.07302">
        <ele>479.49644909672</ele>
        <time>2025-05-28T15:14:04.000Z</time>
      </trkpt>
      <trkpt lat="47.78154" lon="7.07288">
        <ele>480.84427629472</ele>
        <time>2025-05-28T15:14:11.000Z</time>
      </trkpt>
      <trkpt lat="47.78147" lon="7.0727">
        <ele>481.67197040657</ele>
        <time>2025-05-28T15:14:27.000Z</time>
      </trkpt>
      <trkpt lat="47.78143" lon="7.07264">
        <ele>481.96600253153</ele>
        <time>2025-05-28T15:14:31.000Z</time>
      </trkpt>
      <trkpt lat="47.78138" lon="7.0726">
        <ele>482.10532643317</ele>
        <time>2025-05-28T15:14:34.000Z</time>
      </trkpt>
      <trkpt lat="47.78134" lon="7.07253">
        <ele>482.43822151106</ele>
        <time>2025-05-28T15:14:43.000Z</time>
      </trkpt>
      <trkpt lat="47.78131" lon="7.07247">
        <ele>482.70795351059</ele>
        <time>2025-05-28T15:14:47.000Z</time>
      </trkpt>
      <trkpt lat="47.78118" lon="7.07235">
        <ele>483.04640894742</ele>
        <time>2025-05-28T15:15:01.000Z</time>
      </trkpt>
      <trkpt lat="47.78113" lon="7.07236">
        <ele>482.82255561767</ele>
        <time>2025-05-28T15:15:07.000Z</time>
      </trkpt>
      <trkpt lat="47.78109" lon="7.07235">
        <ele>482.71838384804</ele>
        <time>2025-05-28T15:15:16.000Z</time>
      </trkpt>
      <trkpt lat="47.78111" lon="7.07225">
        <ele>483.67139579952</ele>
        <time>2025-05-28T15:15:30.000Z</time>
      </trkpt>
      <trkpt lat="47.78109" lon="7.0722">
        <ele>484.11623496125</ele>
        <time>2025-05-28T15:15:56.000Z</time>
      </trkpt>
      <trkpt lat="47.78105" lon="7.07218">
        <ele>483.99381876676</ele>
        <time>2025-05-28T15:16:02.000Z</time>
      </trkpt>
      <trkpt lat="47.78102" lon="7.07214">
        <ele>484.24259823023</ele>
        <time>2025-05-28T15:16:07.000Z</time>
      </trkpt>
      <trkpt lat="47.78085" lon="7.07184">
        <ele>485.88747095568</ele>
        <time>2025-05-28T15:16:32.000Z</time>
      </trkpt>
      <trkpt lat="47.78075" lon="7.07167">
        <ele>486.95138530997</ele>
        <time>2025-05-28T15:16:42.000Z</time>
      </trkpt>
      <trkpt lat="47.78074" lon="7.07158">
        <ele>487.72683498478</ele>
        <time>2025-05-28T15:16:47.000Z</time>
      </trkpt>
      <trkpt lat="47.78069" lon="7.07148">
        <ele>488.42073162783</ele>
        <time>2025-05-28T15:16:55.000Z</time>
      </trkpt>
      <trkpt lat="47.78069" lon="7.07138">
        <ele>489.287652398</ele>
        <time>2025-05-28T15:17:00.000Z</time>
      </trkpt>
      <trkpt lat="47.78049" lon="7.07092">
        <ele>489.14894160917</ele>
        <time>2025-05-28T15:17:32.000Z</time>
      </trkpt>
      <trkpt lat="47.78036" lon="7.07061">
        <ele>488.59612938783</ele>
        <time>2025-05-28T15:17:58.000Z</time>
      </trkpt>
      <trkpt lat="47.78032" lon="7.07047">
        <ele>488.54426945946</ele>
        <time>2025-05-28T15:18:10.000Z</time>
      </trkpt>
      <trkpt lat="47.78025" lon="7.07033">
        <ele>488.12193267706</ele>
        <time>2025-05-28T15:18:18.000Z</time>
      </trkpt>
      <trkpt lat="47.78007" lon="7.06985">
        <ele>485.19416719299</ele>
        <time>2025-05-28T15:18:51.000Z</time>
      </trkpt>
      <trkpt lat="47.77998" lon="7.06968">
        <ele>484.12559879217</ele>
        <time>2025-05-28T15:18:57.000Z</time>
      </trkpt>
      <trkpt lat="47.77989" lon="7.06959">
        <ele>483.57486670855</ele>
        <time>2025-05-28T15:19:10.000Z</time>
      </trkpt>
      <trkpt lat="47.7799" lon="7.0695">
        <ele>483.70545627577</ele>
        <time>2025-05-28T15:19:12.000Z</time>
      </trkpt>
      <trkpt lat="47.77985" lon="7.06945">
        <ele>483.35993444742</ele>
        <time>2025-05-28T15:19:15.000Z</time>
      </trkpt>
      <trkpt lat="47.77982" lon="7.06939">
        <ele>483.27896237625</ele>
        <time>2025-05-28T15:19:18.000Z</time>
      </trkpt>
      <trkpt lat="47.77978" lon="7.06934">
        <ele>483.06705667909</ele>
        <time>2025-05-28T15:19:21.000Z</time>
      </trkpt>
      <trkpt lat="47.77972" lon="7.06916">
        <ele>483.30796381203</ele>
        <time>2025-05-28T15:19:31.000Z</time>
      </trkpt>
      <trkpt lat="47.77969" lon="7.0691">
        <ele>483.26582592996</ele>
        <time>2025-05-28T15:19:37.000Z</time>
      </trkpt>
      <trkpt lat="47.77971" lon="7.06894">
        <ele>484.36697423044</ele>
        <time>2025-05-28T15:19:46.000Z</time>
      </trkpt>
      <trkpt lat="47.77979" lon="7.0688">
        <ele>485.76992916185</ele>
        <time>2025-05-28T15:19:50.000Z</time>
      </trkpt>
      <trkpt lat="47.77984" lon="7.06869">
        <ele>486.31366667543</ele>
        <time>2025-05-28T15:19:55.000Z</time>
      </trkpt>
      <trkpt lat="47.7799" lon="7.06856">
        <ele>486.52289645472</ele>
        <time>2025-05-28T15:20:06.000Z</time>
      </trkpt>
      <trkpt lat="47.77993" lon="7.06851">
        <ele>486.5731768738</ele>
        <time>2025-05-28T15:20:12.000Z</time>
      </trkpt>
      <trkpt lat="47.7799" lon="7.0684">
        <ele>486.50348103619</ele>
        <time>2025-05-28T15:20:31.000Z</time>
      </trkpt>
      <trkpt lat="47.77975" lon="7.06814">
        <ele>485.20389701924</ele>
        <time>2025-05-28T15:20:36.000Z</time>
      </trkpt>
      <trkpt lat="47.77975" lon="7.06808">
        <ele>485.24841907108</ele>
        <time>2025-05-28T15:20:39.000Z</time>
      </trkpt>
      <trkpt lat="47.77957" lon="7.06751">
        <ele>484.53070848677</ele>
        <time>2025-05-28T15:21:12.000Z</time>
      </trkpt>
      <trkpt lat="47.77953" lon="7.06741">
        <ele>484.16150250098</ele>
        <time>2025-05-28T15:21:16.000Z</time>
      </trkpt>
      <trkpt lat="47.77947" lon="7.06733">
        <ele>483.77858029203</ele>
        <time>2025-05-28T15:21:21.000Z</time>
      </trkpt>
      <trkpt lat="47.77932" lon="7.06718">
        <ele>482.60129863797</ele>
        <time>2025-05-28T15:21:39.000Z</time>
      </trkpt>
      <trkpt lat="47.77922" lon="7.06699">
        <ele>481.31016020998</ele>
        <time>2025-05-28T15:21:51.000Z</time>
      </trkpt>
      <trkpt lat="47.77907" lon="7.06693">
        <ele>479.10185842668</ele>
        <time>2025-05-28T15:22:02.000Z</time>
      </trkpt>
      <trkpt lat="47.77901" lon="7.06685">
        <ele>478.03364441178</ele>
        <time>2025-05-28T15:22:19.000Z</time>
      </trkpt>
      <trkpt lat="47.77899" lon="7.0666">
        <ele>477.13045120482</ele>
        <time>2025-05-28T15:22:25.000Z</time>
      </trkpt>
      <trkpt lat="47.77895" lon="7.06648">
        <ele>476.309744526</ele>
        <time>2025-05-28T15:22:27.000Z</time>
      </trkpt>
      <trkpt lat="47.77892" lon="7.06643">
        <ele>475.57622217479</ele>
        <time>2025-05-28T15:22:31.000Z</time>
      </trkpt>
      <trkpt lat="47.77876" lon="7.06601">
        <ele>472.99169501248</ele>
        <time>2025-05-28T15:23:01.000Z</time>
      </trkpt>
      <trkpt lat="47.77855" lon="7.06556">
        <ele>471.13477903663</ele>
        <time>2025-05-28T15:23:32.000Z</time>
      </trkpt>
      <trkpt lat="47.77847" lon="7.06534">
        <ele>471.51057488465</ele>
        <time>2025-05-28T15:23:50.000Z</time>
      </trkpt>
      <trkpt lat="47.77845" lon="7.0652">
        <ele>472.45765571951</ele>
        <time>2025-05-28T15:23:56.000Z</time>
      </trkpt>
      <trkpt lat="47.77831" lon="7.06502">
        <ele>471.86542766723</ele>
        <time>2025-05-28T15:24:09.000Z</time>
      </trkpt>
      <trkpt lat="47.77826" lon="7.06493">
        <ele>471.28366252432</ele>
        <time>2025-05-28T15:24:12.000Z</time>
      </trkpt>
      <trkpt lat="47.77807" lon="7.06487">
        <ele>467.93865221632</ele>
        <time>2025-05-28T15:24:35.000Z</time>
      </trkpt>
      <trkpt lat="47.7777" lon="7.06471">
        <ele>461.12162502308</ele>
        <time>2025-05-28T15:25:07.000Z</time>
      </trkpt>
      <trkpt lat="47.77759" lon="7.06463">
        <ele>459.8287901199</ele>
        <time>2025-05-28T15:25:16.000Z</time>
      </trkpt>
      <trkpt lat="47.77754" lon="7.06461">
        <ele>459.23861156543</ele>
        <time>2025-05-28T15:25:20.000Z</time>
      </trkpt>
      <trkpt lat="47.7775" lon="7.0646">
        <ele>458.87046007291</ele>
        <time>2025-05-28T15:25:27.000Z</time>
      </trkpt>
      <trkpt lat="47.77745" lon="7.06465">
        <ele>458.39744089716</ele>
        <time>2025-05-28T15:25:31.000Z</time>
      </trkpt>
      <trkpt lat="47.77738" lon="7.06478">
        <ele>457.4159501812</ele>
        <time>2025-05-28T15:25:36.000Z</time>
      </trkpt>
      <trkpt lat="47.77723" lon="7.06478">
        <ele>456.50449808744</ele>
        <time>2025-05-28T15:25:49.000Z</time>
      </trkpt>
      <trkpt lat="47.77703" lon="7.06491">
        <ele>454.16015755958</ele>
        <time>2025-05-28T15:26:06.000Z</time>
      </trkpt>
      <trkpt lat="47.77699" lon="7.06495">
        <ele>453.47088057324</ele>
        <time>2025-05-28T15:26:10.000Z</time>
      </trkpt>
      <trkpt lat="47.77695" lon="7.06499">
        <ele>452.83920594398</ele>
        <time>2025-05-28T15:26:14.000Z</time>
      </trkpt>
      <trkpt lat="47.77674" lon="7.06524">
        <ele>449.13029986387</ele>
        <time>2025-05-28T15:26:37.000Z</time>
      </trkpt>
      <trkpt lat="47.77665" lon="7.0653">
        <ele>448.11854474119</ele>
        <time>2025-05-28T15:26:44.000Z</time>
      </trkpt>
      <trkpt lat="47.77662" lon="7.06534">
        <ele>447.70857632708</ele>
        <time>2025-05-28T15:26:47.000Z</time>
      </trkpt>
      <trkpt lat="47.77653" lon="7.06538">
        <ele>447.34259743267</ele>
        <time>2025-05-28T15:26:55.000Z</time>
      </trkpt>
      <trkpt lat="47.77648" lon="7.06539">
        <ele>447.25673343962</ele>
        <time>2025-05-28T15:27:00.000Z</time>
      </trkpt>
      <trkpt lat="47.77633" lon="7.06547">
        <ele>445.87744928503</ele>
        <time>2025-05-28T15:27:12.000Z</time>
      </trkpt>
      <trkpt lat="47.77608" lon="7.0655">
        <ele>444.21086986963</ele>
        <time>2025-05-28T15:27:33.000Z</time>
      </trkpt>
      <trkpt lat="47.77602" lon="7.06553">
        <ele>443.66458461117</ele>
        <time>2025-05-28T15:27:38.000Z</time>
      </trkpt>
      <trkpt lat="47.77598" lon="7.06554">
        <ele>443.34059288856</ele>
        <time>2025-05-28T15:27:41.000Z</time>
      </trkpt>
      <trkpt lat="47.77594" lon="7.06554">
        <ele>443.00510474596</ele>
        <time>2025-05-28T15:27:48.000Z</time>
      </trkpt>
      <trkpt lat="47.77557" lon="7.06562">
        <ele>440.23670997606</ele>
        <time>2025-05-28T15:28:20.000Z</time>
      </trkpt>
      <trkpt lat="47.77525" lon="7.06564">
        <ele>438.09659472761</ele>
        <time>2025-05-28T15:28:46.000Z</time>
      </trkpt>
      <trkpt lat="47.7752" lon="7.06563">
        <ele>437.71271269629</ele>
        <time>2025-05-28T15:28:50.000Z</time>
      </trkpt>
      <trkpt lat="47.77508" lon="7.06565">
        <ele>437.11973252545</ele>
        <time>2025-05-28T15:28:59.000Z</time>
      </trkpt>
      <trkpt lat="47.77502" lon="7.06561">
        <ele>436.74059086973</ele>
        <time>2025-05-28T15:29:05.000Z</time>
      </trkpt>
      <trkpt lat="47.77499" lon="7.06557">
        <ele>436.50284973222</ele>
        <time>2025-05-28T15:29:08.000Z</time>
      </trkpt>
      <trkpt lat="47.77496" lon="7.0655">
        <ele>436.30449549626</ele>
        <time>2025-05-28T15:29:12.000Z</time>
      </trkpt>
      <trkpt lat="47.77489" lon="7.06542">
        <ele>435.81368837506</ele>
        <time>2025-05-28T15:29:18.000Z</time>
      </trkpt>
      <trkpt lat="47.77478" lon="7.06525">
        <ele>434.96823057405</ele>
        <time>2025-05-28T15:29:30.000Z</time>
      </trkpt>
      <trkpt lat="47.77465" lon="7.06515">
        <ele>434.42423137785</ele>
        <time>2025-05-28T15:29:42.000Z</time>
      </trkpt>
      <trkpt lat="47.77462" lon="7.06509">
        <ele>434.25261060586</ele>
        <time>2025-05-28T15:29:46.000Z</time>
      </trkpt>
      <trkpt lat="47.77455" lon="7.06501">
        <ele>433.74498622408</ele>
        <time>2025-05-28T15:29:57.000Z</time>
      </trkpt>
      <trkpt lat="47.77448" lon="7.06494">
        <ele>432.88761356715</ele>
        <time>2025-05-28T15:30:06.000Z</time>
      </trkpt>
      <trkpt lat="47.77443" lon="7.06482">
        <ele>431.92379677543</ele>
        <time>2025-05-28T15:30:15.000Z</time>
      </trkpt>
      <trkpt lat="47.77439" lon="7.06477">
        <ele>431.37670766916</ele>
        <time>2025-05-28T15:30:19.000Z</time>
      </trkpt>
      <trkpt lat="47.77438" lon="7.06467">
        <ele>430.98398179198</ele>
        <time>2025-05-28T15:30:25.000Z</time>
      </trkpt>
      <trkpt lat="47.77439" lon="7.0646">
        <ele>430.76110149352</ele>
        <time>2025-05-28T15:31:06.000Z</time>
      </trkpt>
      <trkpt lat="47.77438" lon="7.06452">
        <ele>430.37737673102</ele>
        <time>2025-05-28T15:31:09.000Z</time>
      </trkpt>
      <trkpt lat="47.77438" lon="7.06445">
        <ele>430.13291097049</ele>
        <time>2025-05-28T15:31:12.000Z</time>
      </trkpt>
      <trkpt lat="47.77438" lon="7.06408">
        <ele>426.98146459068</ele>
        <time>2025-05-28T15:31:33.000Z</time>
      </trkpt>
      <trkpt lat="47.77439" lon="7.0639">
        <ele>424.79033416626</ele>
        <time>2025-05-28T15:31:43.000Z</time>
      </trkpt>
      <trkpt lat="47.7743" lon="7.06347">
        <ele>418.04777664318</ele>
        <time>2025-05-28T15:32:06.000Z</time>
      </trkpt>
      <trkpt lat="47.77425" lon="7.06315">
        <ele>412.68080700468</ele>
        <time>2025-05-28T15:32:21.000Z</time>
      </trkpt>
      <trkpt lat="47.77424" lon="7.06302">
        <ele>411.12742397254</ele>
        <time>2025-05-28T15:32:27.000Z</time>
      </trkpt>
      <trkpt lat="47.77417" lon="7.06267">
        <ele>405.95894687614</ele>
        <time>2025-05-28T15:32:46.000Z</time>
      </trkpt>
      <trkpt lat="47.77417" lon="7.06261">
        <ele>405.31918119053</ele>
        <time>2025-05-28T15:32:50.000Z</time>
      </trkpt>
      <trkpt lat="47.77414" lon="7.06254">
        <ele>404.04677211857</ele>
        <time>2025-05-28T15:32:53.000Z</time>
      </trkpt>
      <trkpt lat="47.77412" lon="7.06247">
        <ele>402.906862586</ele>
        <time>2025-05-28T15:32:57.000Z</time>
      </trkpt>
      <trkpt lat="47.77412" lon="7.0624">
        <ele>402.18942858312</ele>
        <time>2025-05-28T15:33:01.000Z</time>
      </trkpt>
      <trkpt lat="47.77412" lon="7.06234">
        <ele>401.5275079465</ele>
        <time>2025-05-28T15:33:04.000Z</time>
      </trkpt>
      <trkpt lat="47.77411" lon="7.06222">
        <ele>400.18978094645</ele>
        <time>2025-05-28T15:33:10.000Z</time>
      </trkpt>
      <trkpt lat="47.77403" lon="7.06193">
        <ele>395.87629228318</ele>
        <time>2025-05-28T15:33:27.000Z</time>
      </trkpt>
      <trkpt lat="47.77404" lon="7.06184">
        <ele>394.96004437073</ele>
        <time>2025-05-28T15:33:33.000Z</time>
      </trkpt>
      <trkpt lat="47.77406" lon="7.06171">
        <ele>393.66453428251</ele>
        <time>2025-05-28T15:33:39.000Z</time>
      </trkpt>
      <trkpt lat="47.77407" lon="7.06165">
        <ele>393.00439271872</ele>
        <time>2025-05-28T15:33:42.000Z</time>
      </trkpt>
      <trkpt lat="47.77409" lon="7.06155">
        <ele>392.09531029387</ele>
        <time>2025-05-28T15:33:50.000Z</time>
      </trkpt>
      <trkpt lat="47.77416" lon="7.0615">
        <ele>392.47150570868</ele>
        <time>2025-05-28T15:33:53.000Z</time>
      </trkpt>
      <trkpt lat="47.77421" lon="7.06139">
        <ele>391.89548698077</ele>
        <time>2025-05-28T15:34:00.000Z</time>
      </trkpt>
      <trkpt lat="47.77429" lon="7.0613">
        <ele>391.97042101866</ele>
        <time>2025-05-28T15:34:10.000Z</time>
      </trkpt>
      <trkpt lat="47.77434" lon="7.06118">
        <ele>390.70840391293</ele>
        <time>2025-05-28T15:34:17.000Z</time>
      </trkpt>
      <trkpt lat="47.77442" lon="7.06108">
        <ele>389.78553142427</ele>
        <time>2025-05-28T15:34:25.000Z</time>
      </trkpt>
      <trkpt lat="47.77443" lon="7.06101">
        <ele>388.69299607899</ele>
        <time>2025-05-28T15:34:29.000Z</time>
      </trkpt>
      <trkpt lat="47.77447" lon="7.06095">
        <ele>387.91301745805</ele>
        <time>2025-05-28T15:34:33.000Z</time>
      </trkpt>
      <trkpt lat="47.77451" lon="7.06094">
        <ele>388.27599760674</ele>
        <time>2025-05-28T15:34:37.000Z</time>
      </trkpt>
      <trkpt lat="47.77455" lon="7.06086">
        <ele>387.54017731771</ele>
        <time>2025-05-28T15:34:41.000Z</time>
      </trkpt>
      <trkpt lat="47.77459" lon="7.06084">
        <ele>387.73039658322</ele>
        <time>2025-05-28T15:34:45.000Z</time>
      </trkpt>
      <trkpt lat="47.77478" lon="7.06048">
        <ele>385.15242973091</ele>
        <time>2025-05-28T15:35:08.000Z</time>
      </trkpt>
      <trkpt lat="47.77482" lon="7.06044">
        <ele>385.65866901826</ele>
        <time>2025-05-28T15:35:11.000Z</time>
      </trkpt>
      <trkpt lat="47.77494" lon="7.0602">
        <ele>385.49771981757</ele>
        <time>2025-05-28T15:35:29.000Z</time>
      </trkpt>
      <trkpt lat="47.77496" lon="7.06012">
        <ele>385.00197546827</ele>
        <time>2025-05-28T15:35:34.000Z</time>
      </trkpt>
      <trkpt lat="47.77494" lon="7.06002">
        <ele>383.93126938593</ele>
        <time>2025-05-28T15:35:41.000Z</time>
      </trkpt>
      <trkpt lat="47.77494" lon="7.0598">
        <ele>383.14395104821</ele>
        <time>2025-05-28T15:35:52.000Z</time>
      </trkpt>
      <trkpt lat="47.77496" lon="7.05972">
        <ele>382.98867308</ele>
        <time>2025-05-28T15:35:56.000Z</time>
      </trkpt>
      <trkpt lat="47.77495" lon="7.05964">
        <ele>382.73027276921</ele>
        <time>2025-05-28T15:36:04.000Z</time>
      </trkpt>
      <trkpt lat="47.77488" lon="7.05946">
        <ele>381.90217938286</ele>
        <time>2025-05-28T15:36:16.000Z</time>
      </trkpt>
      <trkpt lat="47.77488" lon="7.05935">
        <ele>381.66287537739</ele>
        <time>2025-05-28T15:36:21.000Z</time>
      </trkpt>
      <trkpt lat="47.77486" lon="7.0593">
        <ele>381.41513200984</ele>
        <time>2025-05-28T15:36:24.000Z</time>
      </trkpt>
      <trkpt lat="47.77482" lon="7.05921">
        <ele>380.96891459646</ele>
        <time>2025-05-28T15:36:30.000Z</time>
      </trkpt>
      <trkpt lat="47.77481" lon="7.05915">
        <ele>380.69996767699</ele>
        <time>2025-05-28T15:36:34.000Z</time>
      </trkpt>
      <trkpt lat="47.77479" lon="7.05903">
        <ele>380.29249472545</ele>
        <time>2025-05-28T15:36:40.000Z</time>
      </trkpt>
      <trkpt lat="47.77479" lon="7.05898">
        <ele>380.11139881239</ele>
        <time>2025-05-28T15:36:44.000Z</time>
      </trkpt>
      <trkpt lat="47.77475" lon="7.05889">
        <ele>379.79953913135</ele>
        <time>2025-05-28T15:36:48.000Z</time>
      </trkpt>
      <trkpt lat="47.77475" lon="7.05883">
        <ele>379.5926490433</ele>
        <time>2025-05-28T15:36:52.000Z</time>
      </trkpt>
      <trkpt lat="47.77483" lon="7.05881">
        <ele>379.52924775193</ele>
        <time>2025-05-28T15:37:03.000Z</time>
      </trkpt>
      <trkpt lat="47.775" lon="7.05875">
        <ele>379.43505781774</ele>
        <time>2025-05-28T15:37:17.000Z</time>
      </trkpt>
      <trkpt lat="47.77505" lon="7.05868">
        <ele>379.40496118296</ele>
        <time>2025-05-28T15:37:18.000Z</time>
      </trkpt>
      <trkpt lat="47.77509" lon="7.05857">
        <ele>379.60562302663</ele>
        <time>2025-05-28T15:37:25.000Z</time>
      </trkpt>
      <trkpt lat="47.7751" lon="7.0585">
        <ele>379.74888575832</ele>
        <time>2025-05-28T15:37:29.000Z</time>
      </trkpt>
      <trkpt lat="47.77502" lon="7.05791">
        <ele>382.66091492125</ele>
        <time>2025-05-28T15:38:05.000Z</time>
      </trkpt>
      <trkpt lat="47.77498" lon="7.0578">
        <ele>383.74145158902</ele>
        <time>2025-05-28T15:38:12.000Z</time>
      </trkpt>
      <trkpt lat="47.77498" lon="7.05773">
        <ele>384.57053526721</ele>
        <time>2025-05-28T15:38:16.000Z</time>
      </trkpt>
      <trkpt lat="47.775" lon="7.05768">
        <ele>385.33961810492</ele>
        <time>2025-05-28T15:38:22.000Z</time>
      </trkpt>
      <trkpt lat="47.77499" lon="7.05761">
        <ele>386.30355141326</ele>
        <time>2025-05-28T15:38:27.000Z</time>
      </trkpt>
      <trkpt lat="47.775" lon="7.05751">
        <ele>387.63520395716</ele>
        <time>2025-05-28T15:38:34.000Z</time>
      </trkpt>
      <trkpt lat="47.77502" lon="7.05745">
        <ele>388.66827191943</ele>
        <time>2025-05-28T15:38:39.000Z</time>
      </trkpt>
      <trkpt lat="47.77505" lon="7.05718">
        <ele>393.45550390286</ele>
        <time>2025-05-28T15:38:57.000Z</time>
      </trkpt>
      <trkpt lat="47.77518" lon="7.05672">
        <ele>398.23718890255</ele>
        <time>2025-05-28T15:39:48.000Z</time>
      </trkpt>
      <trkpt lat="47.77519" lon="7.05662">
        <ele>399.15630580336</ele>
        <time>2025-05-28T15:40:40.000Z</time>
      </trkpt>
      <trkpt lat="47.77523" lon="7.05642">
        <ele>401.14554837712</ele>
        <time>2025-05-28T15:40:56.000Z</time>
      </trkpt>
      <trkpt lat="47.77523" lon="7.05634">
        <ele>402.06226516301</ele>
        <time>2025-05-28T15:41:01.000Z</time>
      </trkpt>
      <trkpt lat="47.77527" lon="7.0562">
        <ele>403.48790562556</ele>
        <time>2025-05-28T15:41:11.000Z</time>
      </trkpt>
      <trkpt lat="47.77527" lon="7.05612">
        <ele>404.27749300818</ele>
        <time>2025-05-28T15:41:15.000Z</time>
      </trkpt>
      <trkpt lat="47.77527" lon="7.05605">
        <ele>405.0125737777</ele>
        <time>2025-05-28T15:41:19.000Z</time>
      </trkpt>
      <trkpt lat="47.77527" lon="7.05598">
        <ele>405.58938025009</ele>
        <time>2025-05-28T15:41:24.000Z</time>
      </trkpt>
      <trkpt lat="47.77529" lon="7.05571">
        <ele>406.34110028567</ele>
        <time>2025-05-28T15:41:37.000Z</time>
      </trkpt>
      <trkpt lat="47.77531" lon="7.05563">
        <ele>406.25433390324</ele>
        <time>2025-05-28T15:41:45.000Z</time>
      </trkpt>
      <trkpt lat="47.77531" lon="7.05554">
        <ele>406.43166170589</ele>
        <time>2025-05-28T15:41:48.000Z</time>
      </trkpt>
      <trkpt lat="47.77532" lon="7.05534">
        <ele>407.17345683617</ele>
        <time>2025-05-28T15:42:00.000Z</time>
      </trkpt>
      <trkpt lat="47.77531" lon="7.05528">
        <ele>407.50152820647</ele>
        <time>2025-05-28T15:42:03.000Z</time>
      </trkpt>
      <trkpt lat="47.77532" lon="7.05517">
        <ele>408.00380022423</ele>
        <time>2025-05-28T15:42:10.000Z</time>
      </trkpt>
      <trkpt lat="47.77537" lon="7.05499">
        <ele>408.4024027894</ele>
        <time>2025-05-28T15:42:23.000Z</time>
      </trkpt>
      <trkpt lat="47.7754" lon="7.05494">
        <ele>408.39509464465</ele>
        <time>2025-05-28T15:42:28.000Z</time>
      </trkpt>
      <trkpt lat="47.77541" lon="7.05485">
        <ele>408.83935250039</ele>
        <time>2025-05-28T15:42:35.000Z</time>
      </trkpt>
      <trkpt lat="47.77544" lon="7.05457">
        <ele>410.05060477294</ele>
        <time>2025-05-28T15:42:52.000Z</time>
      </trkpt>
      <trkpt lat="47.77545" lon="7.05444">
        <ele>410.63112034228</ele>
        <time>2025-05-28T15:43:01.000Z</time>
      </trkpt>
      <trkpt lat="47.7755" lon="7.05408">
        <ele>412.41948746601</ele>
        <time>2025-05-28T15:43:20.000Z</time>
      </trkpt>
      <trkpt lat="47.77549" lon="7.0538">
        <ele>414.65558011926</ele>
        <time>2025-05-28T15:43:36.000Z</time>
      </trkpt>
      <trkpt lat="47.77544" lon="7.05351">
        <ele>417.04707462341</ele>
        <time>2025-05-28T15:43:52.000Z</time>
      </trkpt>
      <trkpt lat="47.77541" lon="7.05345">
        <ele>417.86251154686</ele>
        <time>2025-05-28T15:43:56.000Z</time>
      </trkpt>
      <trkpt lat="47.77534" lon="7.05288">
        <ele>422.62227122055</ele>
        <time>2025-05-28T15:44:30.000Z</time>
      </trkpt>
      <trkpt lat="47.77528" lon="7.05253">
        <ele>427.19754292676</ele>
        <time>2025-05-28T15:44:55.000Z</time>
      </trkpt>
      <trkpt lat="47.77528" lon="7.05246">
        <ele>428.00155489371</ele>
        <time>2025-05-28T15:44:59.000Z</time>
      </trkpt>
      <trkpt lat="47.77524" lon="7.05232">
        <ele>429.9221414526</ele>
        <time>2025-05-28T15:45:08.000Z</time>
      </trkpt>
      <trkpt lat="47.77523" lon="7.0521">
        <ele>431.76058814136</ele>
        <time>2025-05-28T15:45:24.000Z</time>
      </trkpt>
      <trkpt lat="47.77521" lon="7.05203">
        <ele>432.67968442002</ele>
        <time>2025-05-28T15:45:28.000Z</time>
      </trkpt>
      <trkpt lat="47.77516" lon="7.05189">
        <ele>434.6171987833</ele>
        <time>2025-05-28T15:45:37.000Z</time>
      </trkpt>
      <trkpt lat="47.77516" lon="7.05181">
        <ele>435.1443198286</ele>
        <time>2025-05-28T15:45:41.000Z</time>
      </trkpt>
      <trkpt lat="47.7752" lon="7.05143">
        <ele>438.94498573637</ele>
        <time>2025-05-28T15:46:02.000Z</time>
      </trkpt>
      <trkpt lat="47.77519" lon="7.05137">
        <ele>440.0582451863</ele>
        <time>2025-05-28T15:46:05.000Z</time>
      </trkpt>
      <trkpt lat="47.77521" lon="7.05116">
        <ele>443.02399961774</ele>
        <time>2025-05-28T15:46:21.000Z</time>
      </trkpt>
      <trkpt lat="47.77524" lon="7.0511">
        <ele>443.40807135273</ele>
        <time>2025-05-28T15:46:24.000Z</time>
      </trkpt>
      <trkpt lat="47.77526" lon="7.05102">
        <ele>444.10020284892</ele>
        <time>2025-05-28T15:46:33.000Z</time>
      </trkpt>
      <trkpt lat="47.77532" lon="7.05087">
        <ele>445.12229400784</ele>
        <time>2025-05-28T15:46:42.000Z</time>
      </trkpt>
      <trkpt lat="47.77529" lon="7.0508">
        <ele>446.71891032899</ele>
        <time>2025-05-28T15:46:47.000Z</time>
      </trkpt>
      <trkpt lat="47.7753" lon="7.05071">
        <ele>447.2612594187</ele>
        <time>2025-05-28T15:46:53.000Z</time>
      </trkpt>
      <trkpt lat="47.77533" lon="7.05063">
        <ele>447.61354191061</ele>
        <time>2025-05-28T15:47:00.000Z</time>
      </trkpt>
      <trkpt lat="47.77535" lon="7.05033">
        <ele>450.29723948281</ele>
        <time>2025-05-28T15:47:17.000Z</time>
      </trkpt>
      <trkpt lat="47.77539" lon="7.05001">
        <ele>452.26277716834</ele>
        <time>2025-05-28T15:47:44.000Z</time>
      </trkpt>
      <trkpt lat="47.77535" lon="7.04962">
        <ele>453.3576758719</ele>
        <time>2025-05-28T15:48:07.000Z</time>
      </trkpt>
      <trkpt lat="47.77537" lon="7.04955">
        <ele>453.56950508212</ele>
        <time>2025-05-28T15:48:11.000Z</time>
      </trkpt>
      <trkpt lat="47.77536" lon="7.04947">
        <ele>453.84207895915</ele>
        <time>2025-05-28T15:48:15.000Z</time>
      </trkpt>
      <trkpt lat="47.77534" lon="7.04941">
        <ele>454.12032020677</ele>
        <time>2025-05-28T15:48:19.000Z</time>
      </trkpt>
      <trkpt lat="47.77529" lon="7.04917">
        <ele>454.97904127999</ele>
        <time>2025-05-28T15:48:39.000Z</time>
      </trkpt>
      <trkpt lat="47.77528" lon="7.049">
        <ele>455.60231147646</ele>
        <time>2025-05-28T15:48:51.000Z</time>
      </trkpt>
      <trkpt lat="47.77525" lon="7.0489">
        <ele>455.75393401418</ele>
        <time>2025-05-28T15:48:57.000Z</time>
      </trkpt>
      <trkpt lat="47.77525" lon="7.04881">
        <ele>455.81828221323</ele>
        <time>2025-05-28T15:49:01.000Z</time>
      </trkpt>
      <trkpt lat="47.77524" lon="7.04872">
        <ele>455.8738153171</ele>
        <time>2025-05-28T15:49:06.000Z</time>
      </trkpt>
      <trkpt lat="47.77526" lon="7.04866">
        <ele>455.94658720737</ele>
        <time>2025-05-28T15:49:10.000Z</time>
      </trkpt>
      <trkpt lat="47.77522" lon="7.04839">
        <ele>456.76556558218</ele>
        <time>2025-05-28T15:49:25.000Z</time>
      </trkpt>
      <trkpt lat="47.77523" lon="7.04822">
        <ele>457.03317731554</ele>
        <time>2025-05-28T15:49:34.000Z</time>
      </trkpt>
      <trkpt lat="47.77522" lon="7.04814">
        <ele>457.10426062005</ele>
        <time>2025-05-28T15:49:38.000Z</time>
      </trkpt>
      <trkpt lat="47.77521" lon="7.04791">
        <ele>457.66343296003</ele>
        <time>2025-05-28T15:49:50.000Z</time>
      </trkpt>
      <trkpt lat="47.77521" lon="7.04784">
        <ele>457.91724245334</ele>
        <time>2025-05-28T15:49:54.000Z</time>
      </trkpt>
      <trkpt lat="47.77523" lon="7.0476">
        <ele>459.00428243522</ele>
        <time>2025-05-28T15:50:06.000Z</time>
      </trkpt>
      <trkpt lat="47.77521" lon="7.04746">
        <ele>459.54386545511</ele>
        <time>2025-05-28T15:50:14.000Z</time>
      </trkpt>
      <trkpt lat="47.77519" lon="7.04741">
        <ele>459.74077993082</ele>
        <time>2025-05-28T15:50:18.000Z</time>
      </trkpt>
      <trkpt lat="47.77517" lon="7.04726">
        <ele>459.98350064522</ele>
        <time>2025-05-28T15:50:25.000Z</time>
      </trkpt>
      <trkpt lat="47.77516" lon="7.04718">
        <ele>460.07151004297</ele>
        <time>2025-05-28T15:50:29.000Z</time>
      </trkpt>
      <trkpt lat="47.77518" lon="7.04712">
        <ele>460.26313698567</ele>
        <time>2025-05-28T15:50:33.000Z</time>
      </trkpt>
      <trkpt lat="47.7752" lon="7.04704">
        <ele>460.36917058183</ele>
        <time>2025-05-28T15:50:38.000Z</time>
      </trkpt>
      <trkpt lat="47.7752" lon="7.04696">
        <ele>460.37610518308</ele>
        <time>2025-05-28T15:50:42.000Z</time>
      </trkpt>
      <trkpt lat="47.77519" lon="7.04681">
        <ele>460.36050233101</ele>
        <time>2025-05-28T15:50:50.000Z</time>
      </trkpt>
      <trkpt lat="47.77518" lon="7.04673">
        <ele>460.4681435213</ele>
        <time>2025-05-28T15:50:54.000Z</time>
      </trkpt>
      <trkpt lat="47.77518" lon="7.04667">
        <ele>460.62881335905</ele>
        <time>2025-05-28T15:50:59.000Z</time>
      </trkpt>
      <trkpt lat="47.77519" lon="7.04646">
        <ele>461.20197861398</ele>
        <time>2025-05-28T15:51:09.000Z</time>
      </trkpt>
      <trkpt lat="47.77517" lon="7.04624">
        <ele>461.60963905323</ele>
        <time>2025-05-28T15:51:21.000Z</time>
      </trkpt>
      <trkpt lat="47.77521" lon="7.04605">
        <ele>462</ele>
        <time>2025-05-28T15:51:33.000Z</time>
      </trkpt>
      <trkpt lat="47.77523" lon="7.04589">
        <ele>462</ele>
        <time>2025-05-28T15:51:41.000Z</time>
      </trkpt>
      <trkpt lat="47.77522" lon="7.04583">
        <ele>462.01298035263</ele>
        <time>2025-05-28T15:51:45.000Z</time>
      </trkpt>
      <trkpt lat="47.77525" lon="7.04573">
        <ele>462.21321807406</ele>
        <time>2025-05-28T15:51:51.000Z</time>
      </trkpt>
      <trkpt lat="47.77526" lon="7.04545">
        <ele>462.73939245977</ele>
        <time>2025-05-28T15:52:05.000Z</time>
      </trkpt>
      <trkpt lat="47.77525" lon="7.04522">
        <ele>462.96502542545</ele>
        <time>2025-05-28T15:52:17.000Z</time>
      </trkpt>
      <trkpt lat="47.77527" lon="7.04514">
        <ele>463.01136380396</ele>
        <time>2025-05-28T15:52:22.000Z</time>
      </trkpt>
      <trkpt lat="47.77525" lon="7.045">
        <ele>463.03597740037</ele>
        <time>2025-05-28T15:52:29.000Z</time>
      </trkpt>
      <trkpt lat="47.77526" lon="7.04494">
        <ele>463.0741177517</ele>
        <time>2025-05-28T15:52:33.000Z</time>
      </trkpt>
      <trkpt lat="47.77526" lon="7.04481">
        <ele>463.1651987188</ele>
        <time>2025-05-28T15:52:41.000Z</time>
      </trkpt>
      <trkpt lat="47.77522" lon="7.04461">
        <ele>463.17783278986</ele>
        <time>2025-05-28T15:52:50.000Z</time>
      </trkpt>
      <trkpt lat="47.7752" lon="7.04445">
        <ele>463.20835292571</ele>
        <time>2025-05-28T15:52:59.000Z</time>
      </trkpt>
      <trkpt lat="47.77516" lon="7.04439">
        <ele>463.11843358496</ele>
        <time>2025-05-28T15:53:03.000Z</time>
      </trkpt>
      <trkpt lat="47.77513" lon="7.04425">
        <ele>463.20337882168</ele>
        <time>2025-05-28T15:53:11.000Z</time>
      </trkpt>
      <trkpt lat="47.7751" lon="7.04418">
        <ele>463.29798584716</ele>
        <time>2025-05-28T15:53:17.000Z</time>
      </trkpt>
      <trkpt lat="47.77507" lon="7.04409">
        <ele>463.55113430459</ele>
        <time>2025-05-28T15:53:22.000Z</time>
      </trkpt>
      <trkpt lat="47.77504" lon="7.04403">
        <ele>463.64853091177</ele>
        <time>2025-05-28T15:53:25.000Z</time>
      </trkpt>
      <trkpt lat="47.77501" lon="7.04381">
        <ele>463.66620566099</ele>
        <time>2025-05-28T15:53:37.000Z</time>
      </trkpt>
      <trkpt lat="47.77504" lon="7.04327">
        <ele>464.91219501093</ele>
        <time>2025-05-28T15:54:06.000Z</time>
      </trkpt>
      <trkpt lat="47.775" lon="7.04311">
        <ele>466.53511662458</ele>
        <time>2025-05-28T15:54:17.000Z</time>
      </trkpt>
      <trkpt lat="47.77488" lon="7.04289">
        <ele>466.07526555634</ele>
        <time>2025-05-28T15:54:33.000Z</time>
      </trkpt>
      <trkpt lat="47.77488" lon="7.04282">
        <ele>467.70423561523</ele>
        <time>2025-05-28T15:54:37.000Z</time>
      </trkpt>
      <trkpt lat="47.77461" lon="7.04226">
        <ele>463.53053230747</ele>
        <time>2025-05-28T15:55:11.000Z</time>
      </trkpt>
      <trkpt lat="47.77444" lon="7.04189">
        <ele>463.52844542461</ele>
        <time>2025-05-28T15:55:34.000Z</time>
      </trkpt>
      <trkpt lat="47.77442" lon="7.04184">
        <ele>463.72129979734</ele>
        <time>2025-05-28T15:55:38.000Z</time>
      </trkpt>
      <trkpt lat="47.77432" lon="7.04167">
        <ele>464.07032825689</ele>
        <time>2025-05-28T15:55:48.000Z</time>
      </trkpt>
      <trkpt lat="47.77429" lon="7.04153">
        <ele>467.14271175074</ele>
        <time>2025-05-28T15:55:57.000Z</time>
      </trkpt>
      <trkpt lat="47.77405" lon="7.04113">
        <ele>474.73411883442</ele>
        <time>2025-05-28T15:56:22.000Z</time>
      </trkpt>
      <trkpt lat="47.77401" lon="7.04109">
        <ele>475.33437836971</ele>
        <time>2025-05-28T15:56:27.000Z</time>
      </trkpt>
      <trkpt lat="47.77395" lon="7.04105">
        <ele>475.31175178439</ele>
        <time>2025-05-28T15:56:32.000Z</time>
      </trkpt>
      <trkpt lat="47.77385" lon="7.04105">
        <ele>473.75401986906</ele>
        <time>2025-05-28T15:58:10.000Z</time>
      </trkpt>
      <trkpt lat="47.77386" lon="7.041">
        <ele>475.54478489683</ele>
        <time>2025-05-28T15:58:49.000Z</time>
      </trkpt>
      <trkpt lat="47.77377" lon="7.041">
        <ele>474.06174677294</ele>
        <time>2025-05-28T16:00:24.000Z</time>
      </trkpt>
      <trkpt lat="47.77373" lon="7.04106">
        <ele>471.62947834799</ele>
        <time>2025-05-28T16:01:06.000Z</time>
      </trkpt>
      <trkpt lat="47.77361" lon="7.04095">
        <ele>472.60663797217</ele>
        <time>2025-05-28T16:01:47.000Z</time>
      </trkpt>
      <trkpt lat="47.77353" lon="7.04093">
        <ele>471.96186967413</ele>
        <time>2025-05-28T16:01:51.000Z</time>
      </trkpt>
      <trkpt lat="47.77347" lon="7.04082">
        <ele>473.14604397174</ele>
        <time>2025-05-28T16:02:01.000Z</time>
      </trkpt>
      <trkpt lat="47.77348" lon="7.04067">
        <ele>475.49644065467</ele>
        <time>2025-05-28T16:02:14.000Z</time>
      </trkpt>
      <trkpt lat="47.77342" lon="7.04049">
        <ele>476.25883478066</ele>
        <time>2025-05-28T16:02:25.000Z</time>
      </trkpt>
      <trkpt lat="47.77343" lon="7.04039">
        <ele>477.88749671397</ele>
        <time>2025-05-28T16:02:33.000Z</time>
      </trkpt>
      <trkpt lat="47.7734" lon="7.04033">
        <ele>478.01673759291</ele>
        <time>2025-05-28T16:02:38.000Z</time>
      </trkpt>
      <trkpt lat="47.77339" lon="7.04026">
        <ele>478.62944969478</ele>
        <time>2025-05-28T16:02:42.000Z</time>
      </trkpt>
      <trkpt lat="47.77336" lon="7.04021">
        <ele>478.59420494761</ele>
        <time>2025-05-28T16:02:45.000Z</time>
      </trkpt>
      <trkpt lat="47.77335" lon="7.04007">
        <ele>479.7028955313</ele>
        <time>2025-05-28T16:02:53.000Z</time>
      </trkpt>
      <trkpt lat="47.77337" lon="7.04">
        <ele>480.93443365488</ele>
        <time>2025-05-28T16:02:57.000Z</time>
      </trkpt>
      <trkpt lat="47.77335" lon="7.03984">
        <ele>481.82700078371</ele>
        <time>2025-05-28T16:03:10.000Z</time>
      </trkpt>
      <trkpt lat="47.77336" lon="7.03975">
        <ele>482.80631837666</ele>
        <time>2025-05-28T16:03:19.000Z</time>
      </trkpt>
      <trkpt lat="47.77336" lon="7.03966">
        <ele>483.33218595643</ele>
        <time>2025-05-28T16:03:24.000Z</time>
      </trkpt>
      <trkpt lat="47.77333" lon="7.0395">
        <ele>483.26804718956</ele>
        <time>2025-05-28T16:03:36.000Z</time>
      </trkpt>
      <trkpt lat="47.77333" lon="7.03935">
        <ele>484.43439445454</ele>
        <time>2025-05-28T16:03:44.000Z</time>
      </trkpt>
      <trkpt lat="47.77329" lon="7.03926">
        <ele>483.71220650475</ele>
        <time>2025-05-28T16:03:51.000Z</time>
      </trkpt>
      <trkpt lat="47.77332" lon="7.03919">
        <ele>484.91175767645</ele>
        <time>2025-05-28T16:03:54.000Z</time>
      </trkpt>
      <trkpt lat="47.77332" lon="7.03912">
        <ele>484.89150591427</ele>
        <time>2025-05-28T16:03:58.000Z</time>
      </trkpt>
      <trkpt lat="47.77334" lon="7.03901">
        <ele>485.2515937709</ele>
        <time>2025-05-28T16:04:06.000Z</time>
      </trkpt>
      <trkpt lat="47.77334" lon="7.03892">
        <ele>485.11860140932</ele>
        <time>2025-05-28T16:04:10.000Z</time>
      </trkpt>
      <trkpt lat="47.77332" lon="7.03878">
        <ele>483.51895800032</ele>
        <time>2025-05-28T16:04:17.000Z</time>
      </trkpt>
      <trkpt lat="47.77332" lon="7.03869">
        <ele>482.88395062005</ele>
        <time>2025-05-28T16:04:24.000Z</time>
      </trkpt>
      <trkpt lat="47.7733" lon="7.03862">
        <ele>481.85498646349</ele>
        <time>2025-05-28T16:04:27.000Z</time>
      </trkpt>
      <trkpt lat="47.77331" lon="7.03855">
        <ele>481.3067790384</ele>
        <time>2025-05-28T16:04:31.000Z</time>
      </trkpt>
      <trkpt lat="47.77332" lon="7.03848">
        <ele>481.13734352887</ele>
        <time>2025-05-28T16:04:35.000Z</time>
      </trkpt>
      <trkpt lat="47.77335" lon="7.03841">
        <ele>481.62322291342</ele>
        <time>2025-05-28T16:04:42.000Z</time>
      </trkpt>
      <trkpt lat="47.77339" lon="7.03827">
        <ele>482.11239078594</ele>
        <time>2025-05-28T16:04:49.000Z</time>
      </trkpt>
      <trkpt lat="47.77346" lon="7.03817">
        <ele>484.32494120211</ele>
        <time>2025-05-28T16:04:56.000Z</time>
      </trkpt>
      <trkpt lat="47.7735" lon="7.03801">
        <ele>485.20754849402</ele>
        <time>2025-05-28T16:05:04.000Z</time>
      </trkpt>
      <trkpt lat="47.77351" lon="7.03793">
        <ele>485.04599602087</ele>
        <time>2025-05-28T16:05:07.000Z</time>
      </trkpt>
      <trkpt lat="47.77355" lon="7.03781">
        <ele>486.93917640871</ele>
        <time>2025-05-28T16:05:14.000Z</time>
      </trkpt>
      <trkpt lat="47.77355" lon="7.03773">
        <ele>487.0605433155</ele>
        <time>2025-05-28T16:05:20.000Z</time>
      </trkpt>
      <trkpt lat="47.7736" lon="7.03768">
        <ele>488.92744009502</ele>
        <time>2025-05-28T16:05:23.000Z</time>
      </trkpt>
      <trkpt lat="47.77363" lon="7.03759">
        <ele>489.98949439984</ele>
        <time>2025-05-28T16:05:29.000Z</time>
      </trkpt>
      <trkpt lat="47.77367" lon="7.03749">
        <ele>491.65524000117</ele>
        <time>2025-05-28T16:05:38.000Z</time>
      </trkpt>
      <trkpt lat="47.77368" lon="7.03741">
        <ele>492.09625214967</ele>
        <time>2025-05-28T16:05:41.000Z</time>
      </trkpt>
      <trkpt lat="47.77369" lon="7.03735">
        <ele>492.63422918674</ele>
        <time>2025-05-28T16:05:44.000Z</time>
      </trkpt>
      <trkpt lat="47.77373" lon="7.03726">
        <ele>493.4028115625</ele>
        <time>2025-05-28T16:05:53.000Z</time>
      </trkpt>
      <trkpt lat="47.77371" lon="7.03719">
        <ele>492.78681794883</ele>
        <time>2025-05-28T16:05:55.000Z</time>
      </trkpt>
      <trkpt lat="47.77372" lon="7.03711">
        <ele>492.73162927321</ele>
        <time>2025-05-28T16:05:58.000Z</time>
      </trkpt>
      <trkpt lat="47.77371" lon="7.03696">
        <ele>492.05832848046</ele>
        <time>2025-05-28T16:06:05.000Z</time>
      </trkpt>
      <trkpt lat="47.77375" lon="7.03692">
        <ele>492.67544432709</ele>
        <time>2025-05-28T16:06:09.000Z</time>
      </trkpt>
      <trkpt lat="47.77377" lon="7.03686">
        <ele>492.87944944864</ele>
        <time>2025-05-28T16:06:13.000Z</time>
      </trkpt>
      <trkpt lat="47.77376" lon="7.03665">
        <ele>494.06880882</ele>
        <time>2025-05-28T16:06:24.000Z</time>
      </trkpt>
      <trkpt lat="47.77376" lon="7.03661">
        <ele>495.32754916716</ele>
        <time>2025-05-28T16:07:05.000Z</time>
      </trkpt>
      <trkpt lat="47.77386" lon="7.03655">
        <ele>498.69574929253</ele>
        <time>2025-05-28T16:07:27.000Z</time>
      </trkpt>
      <trkpt lat="47.77377" lon="7.03654">
        <ele>497.62520687556</ele>
        <time>2025-05-28T16:07:41.000Z</time>
      </trkpt>
      <trkpt lat="47.77372" lon="7.03655">
        <ele>496.65029800467</ele>
        <time>2025-05-28T16:07:52.000Z</time>
      </trkpt>
      <trkpt lat="47.77364" lon="7.03657">
        <ele>496.11064552906</ele>
        <time>2025-05-28T16:08:03.000Z</time>
      </trkpt>
      <trkpt lat="47.77358" lon="7.03655">
        <ele>497.3218599054</ele>
        <time>2025-05-28T16:08:07.000Z</time>
      </trkpt>
      <trkpt lat="47.77335" lon="7.03667">
        <ele>495.39570697854</ele>
        <time>2025-05-28T16:08:28.000Z</time>
      </trkpt>
      <trkpt lat="47.7733" lon="7.03667">
        <ele>495.83596613208</ele>
        <time>2025-05-28T16:08:33.000Z</time>
      </trkpt>
      <trkpt lat="47.77324" lon="7.0366">
        <ele>498.14295470617</ele>
        <time>2025-05-28T16:08:39.000Z</time>
      </trkpt>
      <trkpt lat="47.77316" lon="7.03664">
        <ele>497.16143191373</ele>
        <time>2025-05-28T16:08:46.000Z</time>
      </trkpt>
      <trkpt lat="47.77309" lon="7.03671">
        <ele>495.44303268085</ele>
        <time>2025-05-28T16:08:50.000Z</time>
      </trkpt>
      <trkpt lat="47.77276" lon="7.03676">
        <ele>491.41955186445</ele>
        <time>2025-05-28T16:09:22.000Z</time>
      </trkpt>
      <trkpt lat="47.77264" lon="7.03677">
        <ele>489.74687214829</ele>
        <time>2025-05-28T16:09:32.000Z</time>
      </trkpt>
      <trkpt lat="47.77248" lon="7.03673">
        <ele>490.0564003182</ele>
        <time>2025-05-28T16:09:46.000Z</time>
      </trkpt>
      <trkpt lat="47.77214" lon="7.03645">
        <ele>495.00350150766</ele>
        <time>2025-05-28T16:10:19.000Z</time>
      </trkpt>
      <trkpt lat="47.77185" lon="7.03615">
        <ele>496.28093416116</ele>
        <time>2025-05-28T16:10:52.000Z</time>
      </trkpt>
      <trkpt lat="47.77164" lon="7.03596">
        <ele>496.96999666793</ele>
        <time>2025-05-28T16:11:12.000Z</time>
      </trkpt>
      <trkpt lat="47.77151" lon="7.0358">
        <ele>498.67164906319</ele>
        <time>2025-05-28T16:11:29.000Z</time>
      </trkpt>
      <trkpt lat="47.77144" lon="7.03569">
        <ele>500.13958453874</ele>
        <time>2025-05-28T16:11:44.000Z</time>
      </trkpt>
      <trkpt lat="47.77136" lon="7.0356">
        <ele>501.18122631621</ele>
        <time>2025-05-28T16:11:57.000Z</time>
      </trkpt>
      <trkpt lat="47.77134" lon="7.03551">
        <ele>503.1973678888</ele>
        <time>2025-05-28T16:12:04.000Z</time>
      </trkpt>
      <trkpt lat="47.77134" lon="7.03537">
        <ele>506.31372418776</ele>
        <time>2025-05-28T16:12:11.000Z</time>
      </trkpt>
      <trkpt lat="47.77133" lon="7.03529">
        <ele>507.93022383968</ele>
        <time>2025-05-28T16:12:22.000Z</time>
      </trkpt>
      <trkpt lat="47.77133" lon="7.03517">
        <ele>510.20750413851</ele>
        <time>2025-05-28T16:12:29.000Z</time>
      </trkpt>
      <trkpt lat="47.77123" lon="7.03485">
        <ele>511.9015822795</ele>
        <time>2025-05-28T16:12:54.000Z</time>
      </trkpt>
      <trkpt lat="47.77114" lon="7.03482">
        <ele>510.66596280154</ele>
        <time>2025-05-28T16:13:01.000Z</time>
      </trkpt>
      <trkpt lat="47.77113" lon="7.03467">
        <ele>511.78347050902</ele>
        <time>2025-05-28T16:13:09.000Z</time>
      </trkpt>
      <trkpt lat="47.77103" lon="7.03448">
        <ele>512.19684421207</ele>
        <time>2025-05-28T16:13:24.000Z</time>
      </trkpt>
      <trkpt lat="47.77105" lon="7.0343">
        <ele>514.46035459689</ele>
        <time>2025-05-28T16:13:34.000Z</time>
      </trkpt>
      <trkpt lat="47.77097" lon="7.03403">
        <ele>515.45349232812</ele>
        <time>2025-05-28T16:13:48.000Z</time>
      </trkpt>
      <trkpt lat="47.77088" lon="7.03381">
        <ele>515.71388578751</ele>
        <time>2025-05-28T16:14:12.000Z</time>
      </trkpt>
      <trkpt lat="47.77088" lon="7.03369">
        <ele>517.28082503295</ele>
        <time>2025-05-28T16:14:18.000Z</time>
      </trkpt>
      <trkpt lat="47.77092" lon="7.03354">
        <ele>520.3398581423</ele>
        <time>2025-05-28T16:14:25.000Z</time>
      </trkpt>
      <trkpt lat="47.77086" lon="7.03344">
        <ele>520.44433833696</ele>
        <time>2025-05-28T16:14:31.000Z</time>
      </trkpt>
      <trkpt lat="47.77081" lon="7.03315">
        <ele>523.72695077648</ele>
        <time>2025-05-28T16:14:53.000Z</time>
      </trkpt>
      <trkpt lat="47.77082" lon="7.0329">
        <ele>527.58650645837</ele>
        <time>2025-05-28T16:15:14.000Z</time>
      </trkpt>
      <trkpt lat="47.77081" lon="7.03272">
        <ele>529.30839347439</ele>
        <time>2025-05-28T16:15:29.000Z</time>
      </trkpt>
      <trkpt lat="47.77074" lon="7.0326">
        <ele>528.48416313091</ele>
        <time>2025-05-28T16:15:39.000Z</time>
      </trkpt>
      <trkpt lat="47.77073" lon="7.03242">
        <ele>529.63341324169</ele>
        <time>2025-05-28T16:15:52.000Z</time>
      </trkpt>
      <trkpt lat="47.77059" lon="7.03231">
        <ele>526.93067070425</ele>
        <time>2025-05-28T16:16:08.000Z</time>
      </trkpt>
      <trkpt lat="47.77053" lon="7.03228">
        <ele>525.46857283525</ele>
        <time>2025-05-28T16:16:12.000Z</time>
      </trkpt>
      <trkpt lat="47.7705" lon="7.03213">
        <ele>526.19132953826</ele>
        <time>2025-05-28T16:16:23.000Z</time>
      </trkpt>
      <trkpt lat="47.77045" lon="7.03194">
        <ele>526.46836383604</ele>
        <time>2025-05-28T16:16:40.000Z</time>
      </trkpt>
      <trkpt lat="47.77027" lon="7.03145">
        <ele>524.28610415586</ele>
        <time>2025-05-28T16:17:12.000Z</time>
      </trkpt>
      <trkpt lat="47.77014" lon="7.03095">
        <ele>519.56555019911</ele>
        <time>2025-05-28T16:17:41.000Z</time>
      </trkpt>
      <trkpt lat="47.77016" lon="7.0309">
        <ele>520.5870100816</ele>
        <time>2025-05-28T16:17:45.000Z</time>
      </trkpt>
      <trkpt lat="47.77015" lon="7.03082">
        <ele>520.42079362144</ele>
        <time>2025-05-28T16:17:50.000Z</time>
      </trkpt>
      <trkpt lat="47.77013" lon="7.03071">
        <ele>519.74718702386</ele>
        <time>2025-05-28T16:17:57.000Z</time>
      </trkpt>
      <trkpt lat="47.77012" lon="7.03061">
        <ele>519.51780908315</ele>
        <time>2025-05-28T16:18:02.000Z</time>
      </trkpt>
      <trkpt lat="47.77009" lon="7.03054">
        <ele>518.78255330701</ele>
        <time>2025-05-28T16:18:05.000Z</time>
      </trkpt>
      <trkpt lat="47.77008" lon="7.03038">
        <ele>518.77169265496</ele>
        <time>2025-05-28T16:18:20.000Z</time>
      </trkpt>
      <trkpt lat="47.77013" lon="7.0303">
        <ele>520.26502189462</ele>
        <time>2025-05-28T16:18:23.000Z</time>
      </trkpt>
      <trkpt lat="47.77014" lon="7.03022">
        <ele>520.35914626177</ele>
        <time>2025-05-28T16:18:26.000Z</time>
      </trkpt>
      <trkpt lat="47.77012" lon="7.03014">
        <ele>519.41213372885</ele>
        <time>2025-05-28T16:18:31.000Z</time>
      </trkpt>
      <trkpt lat="47.77013" lon="7.03004">
        <ele>519.48558508299</ele>
        <time>2025-05-28T16:18:39.000Z</time>
      </trkpt>
      <trkpt lat="47.77011" lon="7.02993">
        <ele>518.31580007849</ele>
        <time>2025-05-28T16:18:46.000Z</time>
      </trkpt>
      <trkpt lat="47.77011" lon="7.02984">
        <ele>518.21990047419</ele>
        <time>2025-05-28T16:18:51.000Z</time>
      </trkpt>
      <trkpt lat="47.77013" lon="7.02973">
        <ele>518.81215485763</ele>
        <time>2025-05-28T16:18:57.000Z</time>
      </trkpt>
      <trkpt lat="47.77014" lon="7.02962">
        <ele>519.51994194602</ele>
        <time>2025-05-28T16:19:05.000Z</time>
      </trkpt>
      <trkpt lat="47.77017" lon="7.02953">
        <ele>520.86239921394</ele>
        <time>2025-05-28T16:19:10.000Z</time>
      </trkpt>
      <trkpt lat="47.77019" lon="7.02926">
        <ele>522.03766742897</ele>
        <time>2025-05-28T16:19:28.000Z</time>
      </trkpt>
      <trkpt lat="47.77019" lon="7.02917">
        <ele>522.54643534111</ele>
        <time>2025-05-28T16:19:32.000Z</time>
      </trkpt>
      <trkpt lat="47.77016" lon="7.02908">
        <ele>521.84529526895</ele>
        <time>2025-05-28T16:19:39.000Z</time>
      </trkpt>
      <trkpt lat="47.77013" lon="7.02898">
        <ele>521.54920619472</ele>
        <time>2025-05-28T16:19:45.000Z</time>
      </trkpt>
      <trkpt lat="47.77011" lon="7.0289">
        <ele>521.16371775331</ele>
        <time>2025-05-28T16:19:52.000Z</time>
      </trkpt>
      <trkpt lat="47.7701" lon="7.02883">
        <ele>521.11509640301</ele>
        <time>2025-05-28T16:19:59.000Z</time>
      </trkpt>
      <trkpt lat="47.77008" lon="7.02865">
        <ele>520.74624051979</ele>
        <time>2025-05-28T16:20:12.000Z</time>
      </trkpt>
      <trkpt lat="47.77008" lon="7.02857">
        <ele>520.50305916439</ele>
        <time>2025-05-28T16:20:17.000Z</time>
      </trkpt>
      <trkpt lat="47.77004" lon="7.02843">
        <ele>519.07400965882</ele>
        <time>2025-05-28T16:20:24.000Z</time>
      </trkpt>
      <trkpt lat="47.77001" lon="7.02836">
        <ele>517.93676565515</ele>
        <time>2025-05-28T16:20:30.000Z</time>
      </trkpt>
      <trkpt lat="47.76998" lon="7.02832">
        <ele>516.68303732774</ele>
        <time>2025-05-28T16:20:34.000Z</time>
      </trkpt>
      <trkpt lat="47.76997" lon="7.02824">
        <ele>515.99116075022</ele>
        <time>2025-05-28T16:20:37.000Z</time>
      </trkpt>
      <trkpt lat="47.76993" lon="7.02818">
        <ele>514.34288596418</ele>
        <time>2025-05-28T16:20:42.000Z</time>
      </trkpt>
      <trkpt lat="47.76992" lon="7.02795">
        <ele>512.55814146108</ele>
        <time>2025-05-28T16:20:59.000Z</time>
      </trkpt>
      <trkpt lat="47.7699" lon="7.02778">
        <ele>510.69635001314</ele>
        <time>2025-05-28T16:21:06.000Z</time>
      </trkpt>
      <trkpt lat="47.76993" lon="7.02766">
        <ele>510.30470894855</ele>
        <time>2025-05-28T16:21:10.000Z</time>
      </trkpt>
      <trkpt lat="47.7699" lon="7.02759">
        <ele>508.76519661335</ele>
        <time>2025-05-28T16:21:14.000Z</time>
      </trkpt>
      <trkpt lat="47.7699" lon="7.02749">
        <ele>508.18392032804</ele>
        <time>2025-05-28T16:21:18.000Z</time>
      </trkpt>
      <trkpt lat="47.76994" lon="7.0274">
        <ele>509.06469492224</ele>
        <time>2025-05-28T16:21:26.000Z</time>
      </trkpt>
      <trkpt lat="47.76997" lon="7.0273">
        <ele>509.51157849668</ele>
        <time>2025-05-28T16:21:31.000Z</time>
      </trkpt>
      <trkpt lat="47.77006" lon="7.0272">
        <ele>512.18228314965</ele>
        <time>2025-05-28T16:21:41.000Z</time>
      </trkpt>
      <trkpt lat="47.77009" lon="7.02703">
        <ele>512.80879678161</ele>
        <time>2025-05-28T16:21:52.000Z</time>
      </trkpt>
      <trkpt lat="47.77014" lon="7.02698">
        <ele>514.33145488067</ele>
        <time>2025-05-28T16:21:58.000Z</time>
      </trkpt>
      <trkpt lat="47.77011" lon="7.02689">
        <ele>513.33382966827</ele>
        <time>2025-05-28T16:22:03.000Z</time>
      </trkpt>
      <trkpt lat="47.77017" lon="7.02665">
        <ele>514.19999819577</ele>
        <time>2025-05-28T16:22:19.000Z</time>
      </trkpt>
      <trkpt lat="47.77017" lon="7.02657">
        <ele>513.9459641239</ele>
        <time>2025-05-28T16:22:24.000Z</time>
      </trkpt>
      <trkpt lat="47.77019" lon="7.02651">
        <ele>514.13246197831</ele>
        <time>2025-05-28T16:22:28.000Z</time>
      </trkpt>
      <trkpt lat="47.77018" lon="7.02644">
        <ele>513.4437879323</ele>
        <time>2025-05-28T16:22:32.000Z</time>
      </trkpt>
      <trkpt lat="47.77019" lon="7.0262">
        <ele>512.80964107801</ele>
        <time>2025-05-28T16:22:45.000Z</time>
      </trkpt>
      <trkpt lat="47.77023" lon="7.02615">
        <ele>513.56041215453</ele>
        <time>2025-05-28T16:22:49.000Z</time>
      </trkpt>
      <trkpt lat="47.77029" lon="7.02609">
        <ele>515.20412242515</ele>
        <time>2025-05-28T16:22:57.000Z</time>
      </trkpt>
      <trkpt lat="47.77028" lon="7.02602">
        <ele>514.7932096588</ele>
        <time>2025-05-28T16:23:00.000Z</time>
      </trkpt>
      <trkpt lat="47.7703" lon="7.02594">
        <ele>514.54088278602</ele>
        <time>2025-05-28T16:23:05.000Z</time>
      </trkpt>
      <trkpt lat="47.77033" lon="7.02589">
        <ele>515.12227210482</ele>
        <time>2025-05-28T16:23:08.000Z</time>
      </trkpt>
      <trkpt lat="47.77031" lon="7.02582">
        <ele>514.24482585644</ele>
        <time>2025-05-28T16:23:11.000Z</time>
      </trkpt>
      <trkpt lat="47.77033" lon="7.02574">
        <ele>514.01350012259</ele>
        <time>2025-05-28T16:23:15.000Z</time>
      </trkpt>
      <trkpt lat="47.77033" lon="7.0256">
        <ele>512.73178149457</ele>
        <time>2025-05-28T16:23:23.000Z</time>
      </trkpt>
      <trkpt lat="47.77038" lon="7.02539">
        <ele>511.58361486198</ele>
        <time>2025-05-28T16:23:36.000Z</time>
      </trkpt>
      <trkpt lat="47.77047" lon="7.02526">
        <ele>511.93910396948</ele>
        <time>2025-05-28T16:23:45.000Z</time>
      </trkpt>
      <trkpt lat="47.7705" lon="7.02521">
        <ele>511.89018962172</ele>
        <time>2025-05-28T16:23:49.000Z</time>
      </trkpt>
      <trkpt lat="47.77062" lon="7.02485">
        <ele>509.99170713504</ele>
        <time>2025-05-28T16:24:09.000Z</time>
      </trkpt>
      <trkpt lat="47.77065" lon="7.02467">
        <ele>508.54809547194</ele>
        <time>2025-05-28T16:24:21.000Z</time>
      </trkpt>
      <trkpt lat="47.77071" lon="7.02462">
        <ele>509.16296364954</ele>
        <time>2025-05-28T16:24:27.000Z</time>
      </trkpt>
      <trkpt lat="47.77077" lon="7.02459">
        <ele>510.03165507913</ele>
        <time>2025-05-28T16:24:30.000Z</time>
      </trkpt>
      <trkpt lat="47.77078" lon="7.02452">
        <ele>509.70587412953</ele>
        <time>2025-05-28T16:24:33.000Z</time>
      </trkpt>
      <trkpt lat="47.77083" lon="7.0244">
        <ele>509.779584471</ele>
        <time>2025-05-28T16:24:42.000Z</time>
      </trkpt>
      <trkpt lat="47.77085" lon="7.02432">
        <ele>509.65914746803</ele>
        <time>2025-05-28T16:24:47.000Z</time>
      </trkpt>
      <trkpt lat="47.77087" lon="7.02426">
        <ele>509.81162022683</ele>
        <time>2025-05-28T16:24:51.000Z</time>
      </trkpt>
      <trkpt lat="47.77089" lon="7.0242">
        <ele>509.92653047759</ele>
        <time>2025-05-28T16:24:55.000Z</time>
      </trkpt>
      <trkpt lat="47.77094" lon="7.02413">
        <ele>510.87289865282</ele>
        <time>2025-05-28T16:25:02.000Z</time>
      </trkpt>
      <trkpt lat="47.77097" lon="7.02409">
        <ele>511.32261718886</ele>
        <time>2025-05-28T16:25:07.000Z</time>
      </trkpt>
      <trkpt lat="47.771" lon="7.02402">
        <ele>511.20182086793</ele>
        <time>2025-05-28T16:25:12.000Z</time>
      </trkpt>
      <trkpt lat="47.771" lon="7.0239">
        <ele>510.11526645225</ele>
        <time>2025-05-28T16:25:15.000Z</time>
      </trkpt>
      <trkpt lat="47.77114" lon="7.02354">
        <ele>509.70689239285</ele>
        <time>2025-05-28T16:25:39.000Z</time>
      </trkpt>
      <trkpt lat="47.77121" lon="7.02339">
        <ele>509.79003208354</ele>
        <time>2025-05-28T16:25:49.000Z</time>
      </trkpt>
      <trkpt lat="47.7713" lon="7.02315">
        <ele>509.62086528195</ele>
        <time>2025-05-28T16:26:05.000Z</time>
      </trkpt>
      <trkpt lat="47.77134" lon="7.0231">
        <ele>510.09342513154</ele>
        <time>2025-05-28T16:26:08.000Z</time>
      </trkpt>
      <trkpt lat="47.77136" lon="7.02304">
        <ele>509.61308794564</ele>
        <time>2025-05-28T16:26:12.000Z</time>
      </trkpt>
      <trkpt lat="47.77141" lon="7.02298">
        <ele>510.07116106395</ele>
        <time>2025-05-28T16:26:16.000Z</time>
      </trkpt>
      <trkpt lat="47.77145" lon="7.02298">
        <ele>511.13805325395</ele>
        <time>2025-05-28T16:26:20.000Z</time>
      </trkpt>
      <trkpt lat="47.7715" lon="7.02284">
        <ele>509.9417302615</ele>
        <time>2025-05-28T16:26:29.000Z</time>
      </trkpt>
      <trkpt lat="47.77155" lon="7.02277">
        <ele>510.10771652742</ele>
        <time>2025-05-28T16:26:37.000Z</time>
      </trkpt>
      <trkpt lat="47.77156" lon="7.02263">
        <ele>507.71602829597</ele>
        <time>2025-05-28T16:26:44.000Z</time>
      </trkpt>
      <trkpt lat="47.77159" lon="7.02257">
        <ele>507.2609664559</ele>
        <time>2025-05-28T16:26:48.000Z</time>
      </trkpt>
      <trkpt lat="47.77159" lon="7.02249">
        <ele>506.05718312357</ele>
        <time>2025-05-28T16:26:51.000Z</time>
      </trkpt>
      <trkpt lat="47.77161" lon="7.02243">
        <ele>505.59274586351</ele>
        <time>2025-05-28T16:26:55.000Z</time>
      </trkpt>
      <trkpt lat="47.77172" lon="7.0222">
        <ele>506.46051816933</ele>
        <time>2025-05-28T16:27:11.000Z</time>
      </trkpt>
      <trkpt lat="47.77178" lon="7.02212">
        <ele>508.328425219</ele>
        <time>2025-05-28T16:27:19.000Z</time>
      </trkpt>
      <trkpt lat="47.77182" lon="7.02207">
        <ele>509.66014399397</ele>
        <time>2025-05-28T16:27:28.000Z</time>
      </trkpt>
      <trkpt lat="47.77185" lon="7.02201">
        <ele>510.68279668764</ele>
        <time>2025-05-28T16:27:30.000Z</time>
      </trkpt>
      <trkpt lat="47.77191" lon="7.02183">
        <ele>511.9918594779</ele>
        <time>2025-05-28T16:27:41.000Z</time>
      </trkpt>
      <trkpt lat="47.77192" lon="7.02177">
        <ele>511.91891388287</ele>
        <time>2025-05-28T16:27:44.000Z</time>
      </trkpt>
      <trkpt lat="47.77185" lon="7.02154">
        <ele>508.52107434429</ele>
        <time>2025-05-28T16:27:57.000Z</time>
      </trkpt>
      <trkpt lat="47.77181" lon="7.02148">
        <ele>506.98466635561</ele>
        <time>2025-05-28T16:28:01.000Z</time>
      </trkpt>
      <trkpt lat="47.77174" lon="7.02106">
        <ele>504.56119433805</ele>
        <time>2025-05-28T16:28:23.000Z</time>
      </trkpt>
      <trkpt lat="47.77178" lon="7.02093">
        <ele>505.69574611718</ele>
        <time>2025-05-28T16:28:33.000Z</time>
      </trkpt>
      <trkpt lat="47.77179" lon="7.02075">
        <ele>506.47828070498</ele>
        <time>2025-05-28T16:28:42.000Z</time>
      </trkpt>
      <trkpt lat="47.77178" lon="7.02061">
        <ele>507.19560323849</ele>
        <time>2025-05-28T16:28:52.000Z</time>
      </trkpt>
      <trkpt lat="47.77177" lon="7.02054">
        <ele>507.87271737568</ele>
        <time>2025-05-28T16:28:55.000Z</time>
      </trkpt>
      <trkpt lat="47.77167" lon="7.02037">
        <ele>508.95376581471</ele>
        <time>2025-05-28T16:29:09.000Z</time>
      </trkpt>
      <trkpt lat="47.77165" lon="7.02031">
        <ele>510.62741252508</ele>
        <time>2025-05-28T16:29:14.000Z</time>
      </trkpt>
      <trkpt lat="47.7716" lon="7.02025">
        <ele>512.13319429902</ele>
        <time>2025-05-28T16:29:22.000Z</time>
      </trkpt>
      <trkpt lat="47.77146" lon="7.02017">
        <ele>515.05233101854</ele>
        <time>2025-05-28T16:29:37.000Z</time>
      </trkpt>
      <trkpt lat="47.7713" lon="7.02015">
        <ele>516.43678923701</ele>
        <time>2025-05-28T16:29:55.000Z</time>
      </trkpt>
      <trkpt lat="47.77126" lon="7.02011">
        <ele>518.3527208254</ele>
        <time>2025-05-28T16:30:00.000Z</time>
      </trkpt>
      <trkpt lat="47.7712" lon="7.02003">
        <ele>522.43382640339</ele>
        <time>2025-05-28T16:30:10.000Z</time>
      </trkpt>
      <trkpt lat="47.77116" lon="7.01999">
        <ele>524.25229311358</ele>
        <time>2025-05-28T16:30:13.000Z</time>
      </trkpt>
      <trkpt lat="47.77112" lon="7.01993">
        <ele>527.07521075994</ele>
        <time>2025-05-28T16:30:19.000Z</time>
      </trkpt>
      <trkpt lat="47.77107" lon="7.0199">
        <ele>528.78976985236</ele>
        <time>2025-05-28T16:30:22.000Z</time>
      </trkpt>
      <trkpt lat="47.77093" lon="7.01988">
        <ele>531.60020488749</ele>
        <time>2025-05-28T16:30:37.000Z</time>
      </trkpt>
      <trkpt lat="47.77077" lon="7.01995">
        <ele>532.55588757474</ele>
        <time>2025-05-28T16:30:53.000Z</time>
      </trkpt>
      <trkpt lat="47.77073" lon="7.02">
        <ele>532.17848812867</ele>
        <time>2025-05-28T16:30:57.000Z</time>
      </trkpt>
      <trkpt lat="47.77069" lon="7.02002">
        <ele>532.09706901601</ele>
        <time>2025-05-28T16:31:02.000Z</time>
      </trkpt>
      <trkpt lat="47.7705" lon="7.02018">
        <ele>529.36893217981</ele>
        <time>2025-05-28T16:31:19.000Z</time>
      </trkpt>
      <trkpt lat="47.77032" lon="7.02021">
        <ele>525.84727767605</ele>
        <time>2025-05-28T16:31:37.000Z</time>
      </trkpt>
      <trkpt lat="47.77028" lon="7.02024">
        <ele>524.22946368391</ele>
        <time>2025-05-28T16:31:41.000Z</time>
      </trkpt>
      <trkpt lat="47.77015" lon="7.02021">
        <ele>519.15547410227</ele>
        <time>2025-05-28T16:31:53.000Z</time>
      </trkpt>
      <trkpt lat="47.7701" lon="7.02022">
        <ele>517.06836192746</ele>
        <time>2025-05-28T16:31:57.000Z</time>
      </trkpt>
      <trkpt lat="47.77004" lon="7.02024">
        <ele>515.20516200452</ele>
        <time>2025-05-28T16:32:03.000Z</time>
      </trkpt>
      <trkpt lat="47.76999" lon="7.02027">
        <ele>513.44308298191</ele>
        <time>2025-05-28T16:32:06.000Z</time>
      </trkpt>
      <trkpt lat="47.76995" lon="7.02024">
        <ele>512.32717017597</ele>
        <time>2025-05-28T16:32:10.000Z</time>
      </trkpt>
      <trkpt lat="47.76991" lon="7.02011">
        <ele>512.22826945771</ele>
        <time>2025-05-28T16:32:17.000Z</time>
      </trkpt>
      <trkpt lat="47.76992" lon="7.01997">
        <ele>514.07944457505</ele>
        <time>2025-05-28T16:32:25.000Z</time>
      </trkpt>
      <trkpt lat="47.76978" lon="7.01943">
        <ele>514.22381142564</ele>
        <time>2025-05-28T16:32:57.000Z</time>
      </trkpt>
      <trkpt lat="47.76974" lon="7.01926">
        <ele>512.45664607556</ele>
        <time>2025-05-28T16:33:07.000Z</time>
      </trkpt>
      <trkpt lat="47.76972" lon="7.01911">
        <ele>512.01645353562</ele>
        <time>2025-05-28T16:33:16.000Z</time>
      </trkpt>
      <trkpt lat="47.76972" lon="7.01896">
        <ele>511.58991304226</ele>
        <time>2025-05-28T16:33:23.000Z</time>
      </trkpt>
      <trkpt lat="47.76972" lon="7.01838">
        <ele>512.06430218951</ele>
        <time>2025-05-28T16:33:56.000Z</time>
      </trkpt>
      <trkpt lat="47.76971" lon="7.01777">
        <ele>515.59145298468</ele>
        <time>2025-05-28T16:34:29.000Z</time>
      </trkpt>
      <trkpt lat="47.76966" lon="7.01724">
        <ele>516.13429741915</ele>
        <time>2025-05-28T16:35:01.000Z</time>
      </trkpt>
      <trkpt lat="47.76964" lon="7.01704">
        <ele>516.9635383336</ele>
        <time>2025-05-28T16:35:13.000Z</time>
      </trkpt>
      <trkpt lat="47.76956" lon="7.01673">
        <ele>518.05937649475</ele>
        <time>2025-05-28T16:35:34.000Z</time>
      </trkpt>
      <trkpt lat="47.76952" lon="7.01657">
        <ele>518.74265263686</ele>
        <time>2025-05-28T16:35:41.000Z</time>
      </trkpt>
      <trkpt lat="47.76948" lon="7.01649">
        <ele>518.44477400714</ele>
        <time>2025-05-28T16:35:46.000Z</time>
      </trkpt>
      <trkpt lat="47.76944" lon="7.01637">
        <ele>518.3721969208</ele>
        <time>2025-05-28T16:35:58.000Z</time>
      </trkpt>
      <trkpt lat="47.76943" lon="7.01628">
        <ele>518.55639758946</ele>
        <time>2025-05-28T16:36:03.000Z</time>
      </trkpt>
      <trkpt lat="47.76936" lon="7.01629">
        <ele>518.00122025935</ele>
        <time>2025-05-28T16:36:09.000Z</time>
      </trkpt>
      <trkpt lat="47.76931" lon="7.01623">
        <ele>517.87227243189</ele>
        <time>2025-05-28T16:36:12.000Z</time>
      </trkpt>
      <trkpt lat="47.76926" lon="7.01616">
        <ele>517.87054444761</ele>
        <time>2025-05-28T16:36:16.000Z</time>
      </trkpt>
      <trkpt lat="47.76924" lon="7.01605">
        <ele>518.13772944243</ele>
        <time>2025-05-28T16:36:21.000Z</time>
      </trkpt>
      <trkpt lat="47.76921" lon="7.01611">
        <ele>518.302779841</ele>
        <time>2025-05-28T16:36:31.000Z</time>
      </trkpt>
      <trkpt lat="47.7692" lon="7.01617">
        <ele>518.33650154293</ele>
        <time>2025-05-28T16:36:35.000Z</time>
      </trkpt>
      <trkpt lat="47.76934" lon="7.01571">
        <ele>516.68344944212</ele>
        <time>2025-05-28T16:40:03.000Z</time>
      </trkpt>
      <trkpt lat="47.76935" lon="7.01567">
        <ele>516.47790452721</ele>
        <time>2025-05-28T16:40:04.000Z</time>
      </trkpt>
      <trkpt lat="47.7693" lon="7.01556">
        <ele>515.74040351272</ele>
        <time>2025-05-28T16:40:14.000Z</time>
      </trkpt>
      <trkpt lat="47.76928" lon="7.01546">
        <ele>515.07360891182</ele>
        <time>2025-05-28T16:40:21.000Z</time>
      </trkpt>
      <trkpt lat="47.7693" lon="7.01529">
        <ele>514.00281528608</ele>
        <time>2025-05-28T16:40:31.000Z</time>
      </trkpt>
      <trkpt lat="47.76931" lon="7.01511">
        <ele>512.90247711378</ele>
        <time>2025-05-28T16:40:45.000Z</time>
      </trkpt>
      <trkpt lat="47.76935" lon="7.01494">
        <ele>512.21394097779</ele>
        <time>2025-05-28T16:40:58.000Z</time>
      </trkpt>
      <trkpt lat="47.7694" lon="7.01478">
        <ele>511.88505247758</ele>
        <time>2025-05-28T16:41:08.000Z</time>
      </trkpt>
      <trkpt lat="47.76946" lon="7.01456">
        <ele>511.96327874156</ele>
        <time>2025-05-28T16:41:21.000Z</time>
      </trkpt>
      <trkpt lat="47.76948" lon="7.01426">
        <ele>510.97168489504</ele>
        <time>2025-05-28T16:41:39.000Z</time>
      </trkpt>
      <trkpt lat="47.76947" lon="7.01405">
        <ele>508.89076047135</ele>
        <time>2025-05-28T16:41:49.000Z</time>
      </trkpt>
      <trkpt lat="47.76948" lon="7.01399">
        <ele>508.48301240063</ele>
        <time>2025-05-28T16:41:53.000Z</time>
      </trkpt>
      <trkpt lat="47.76949" lon="7.01384">
        <ele>507.04016679148</ele>
        <time>2025-05-28T16:42:01.000Z</time>
      </trkpt>
      <trkpt lat="47.76953" lon="7.01327">
        <ele>502.30542365082</ele>
        <time>2025-05-28T16:42:32.000Z</time>
      </trkpt>
      <trkpt lat="47.76955" lon="7.01308">
        <ele>500.9477848704</ele>
        <time>2025-05-28T16:42:44.000Z</time>
      </trkpt>
      <trkpt lat="47.76956" lon="7.01302">
        <ele>500.47944464395</ele>
        <time>2025-05-28T16:42:48.000Z</time>
      </trkpt>
      <trkpt lat="47.76959" lon="7.0129">
        <ele>500.02040458254</ele>
        <time>2025-05-28T16:42:54.000Z</time>
      </trkpt>
      <trkpt lat="47.76961" lon="7.01284">
        <ele>499.63534772089</ele>
        <time>2025-05-28T16:42:57.000Z</time>
      </trkpt>
      <trkpt lat="47.76974" lon="7.01241">
        <ele>497.46786023341</ele>
        <time>2025-05-28T16:43:23.000Z</time>
      </trkpt>
      <trkpt lat="47.76977" lon="7.01233">
        <ele>497.18499433128</ele>
        <time>2025-05-28T16:43:29.000Z</time>
      </trkpt>
      <trkpt lat="47.7698" lon="7.01226">
        <ele>497.21738932096</ele>
        <time>2025-05-28T16:43:32.000Z</time>
      </trkpt>
      <trkpt lat="47.76983" lon="7.01219">
        <ele>497.18084176807</ele>
        <time>2025-05-28T16:43:36.000Z</time>
      </trkpt>
      <trkpt lat="47.77" lon="7.01177">
        <ele>495.42836556314</ele>
        <time>2025-05-28T16:44:04.000Z</time>
      </trkpt>
      <trkpt lat="47.77003" lon="7.0117">
        <ele>495.11663577715</ele>
        <time>2025-05-28T16:44:09.000Z</time>
      </trkpt>
      <trkpt lat="47.77006" lon="7.01163">
        <ele>494.98779390699</ele>
        <time>2025-05-28T16:44:13.000Z</time>
      </trkpt>
      <trkpt lat="47.77009" lon="7.01158">
        <ele>494.93488753201</ele>
        <time>2025-05-28T16:44:17.000Z</time>
      </trkpt>
      <trkpt lat="47.77012" lon="7.01152">
        <ele>494.66383138492</ele>
        <time>2025-05-28T16:44:21.000Z</time>
      </trkpt>
      <trkpt lat="47.77014" lon="7.01146">
        <ele>494.35846994938</ele>
        <time>2025-05-28T16:44:25.000Z</time>
      </trkpt>
      <trkpt lat="47.7704" lon="7.01096">
        <ele>491.78205885114</ele>
        <time>2025-05-28T16:44:58.000Z</time>
      </trkpt>
      <trkpt lat="47.77044" lon="7.01091">
        <ele>491.8620751472</ele>
        <time>2025-05-28T16:45:03.000Z</time>
      </trkpt>
      <trkpt lat="47.77047" lon="7.01084">
        <ele>491.56599222949</ele>
        <time>2025-05-28T16:45:07.000Z</time>
      </trkpt>
      <trkpt lat="47.77052" lon="7.01079">
        <ele>491.92298451364</ele>
        <time>2025-05-28T16:45:11.000Z</time>
      </trkpt>
      <trkpt lat="47.77059" lon="7.01068">
        <ele>491.477535621</ele>
        <time>2025-05-28T16:45:18.000Z</time>
      </trkpt>
      <trkpt lat="47.77069" lon="7.0106">
        <ele>491.87645154101</ele>
        <time>2025-05-28T16:45:27.000Z</time>
      </trkpt>
      <trkpt lat="47.77074" lon="7.01056">
        <ele>492.12681290594</ele>
        <time>2025-05-28T16:45:34.000Z</time>
      </trkpt>
      <trkpt lat="47.77089" lon="7.01051">
        <ele>493.46127990486</ele>
        <time>2025-05-28T16:45:45.000Z</time>
      </trkpt>
      <trkpt lat="47.77115" lon="7.01047">
        <ele>496.71303523085</ele>
        <time>2025-05-28T16:46:05.000Z</time>
      </trkpt>
      <trkpt lat="47.7713" lon="7.01038">
        <ele>496.65674384311</ele>
        <time>2025-05-28T16:46:18.000Z</time>
      </trkpt>
      <trkpt lat="47.77134" lon="7.01037">
        <ele>496.80104629903</ele>
        <time>2025-05-28T16:46:21.000Z</time>
      </trkpt>
      <trkpt lat="47.77146" lon="7.01026">
        <ele>496.21866496564</ele>
        <time>2025-05-28T16:46:30.000Z</time>
      </trkpt>
      <trkpt lat="47.77151" lon="7.01022">
        <ele>495.95003316714</ele>
        <time>2025-05-28T16:46:34.000Z</time>
      </trkpt>
      <trkpt lat="47.77173" lon="7.01">
        <ele>494.03683587517</ele>
        <time>2025-05-28T16:46:58.000Z</time>
      </trkpt>
      <trkpt lat="47.77197" lon="7.0097">
        <ele>491.24053585902</ele>
        <time>2025-05-28T16:47:22.000Z</time>
      </trkpt>
      <trkpt lat="47.77213" lon="7.00942">
        <ele>489.79010613274</ele>
        <time>2025-05-28T16:47:40.000Z</time>
      </trkpt>
      <trkpt lat="47.77215" lon="7.00934">
        <ele>488.98265831258</ele>
        <time>2025-05-28T16:47:44.000Z</time>
      </trkpt>
      <trkpt lat="47.77219" lon="7.00931">
        <ele>489.34900647924</ele>
        <time>2025-05-28T16:47:48.000Z</time>
      </trkpt>
      <trkpt lat="47.77221" lon="7.00925">
        <ele>489.12796662897</ele>
        <time>2025-05-28T16:47:52.000Z</time>
      </trkpt>
      <trkpt lat="47.77227" lon="7.00918">
        <ele>489.07728035979</ele>
        <time>2025-05-28T16:47:57.000Z</time>
      </trkpt>
      <trkpt lat="47.77233" lon="7.00903">
        <ele>488.07134750886</ele>
        <time>2025-05-28T16:48:07.000Z</time>
      </trkpt>
      <trkpt lat="47.77227" lon="7.00899">
        <ele>486.99339249283</ele>
        <time>2025-05-28T16:48:12.000Z</time>
      </trkpt>
      <trkpt lat="47.77225" lon="7.00889">
        <ele>485.94971305378</ele>
        <time>2025-05-28T16:48:17.000Z</time>
      </trkpt>
      <trkpt lat="47.77226" lon="7.00876">
        <ele>485.05075208942</ele>
        <time>2025-05-28T16:48:26.000Z</time>
      </trkpt>
      <trkpt lat="47.77229" lon="7.00865">
        <ele>484.73549308963</ele>
        <time>2025-05-28T16:48:33.000Z</time>
      </trkpt>
      <trkpt lat="47.77238" lon="7.00851">
        <ele>485.32798366999</ele>
        <time>2025-05-28T16:48:42.000Z</time>
      </trkpt>
      <trkpt lat="47.77243" lon="7.00833">
        <ele>485.23815452843</ele>
        <time>2025-05-28T16:48:57.000Z</time>
      </trkpt>
      <trkpt lat="47.77243" lon="7.00819">
        <ele>483.87988627637</ele>
        <time>2025-05-28T16:49:03.000Z</time>
      </trkpt>
      <trkpt lat="47.77245" lon="7.00803">
        <ele>482.59892327108</ele>
        <time>2025-05-28T16:49:07.000Z</time>
      </trkpt>
      <trkpt lat="47.77244" lon="7.00794">
        <ele>481.4301527301</ele>
        <time>2025-05-28T16:49:13.000Z</time>
      </trkpt>
      <trkpt lat="47.77239" lon="7.00779">
        <ele>478.78975672331</ele>
        <time>2025-05-28T16:49:25.000Z</time>
      </trkpt>
      <trkpt lat="47.77236" lon="7.00726">
        <ele>473.68939799778</ele>
        <time>2025-05-28T16:50:02.000Z</time>
      </trkpt>
      <trkpt lat="47.77236" lon="7.00716">
        <ele>473.08411296625</ele>
        <time>2025-05-28T16:50:06.000Z</time>
      </trkpt>
      <trkpt lat="47.77239" lon="7.00711">
        <ele>473.12684965283</ele>
        <time>2025-05-28T16:50:09.000Z</time>
      </trkpt>
      <trkpt lat="47.77235" lon="7.00696">
        <ele>472.08148303336</ele>
        <time>2025-05-28T16:50:19.000Z</time>
      </trkpt>
      <trkpt lat="47.77236" lon="7.0067">
        <ele>470.87774063619</ele>
        <time>2025-05-28T16:50:33.000Z</time>
      </trkpt>
      <trkpt lat="47.77235" lon="7.00656">
        <ele>469.83123562556</ele>
        <time>2025-05-28T16:50:41.000Z</time>
      </trkpt>
      <trkpt lat="47.77234" lon="7.00641">
        <ele>468.44935557018</ele>
        <time>2025-05-28T16:50:51.000Z</time>
      </trkpt>
      <trkpt lat="47.77232" lon="7.00633">
        <ele>467.47006133872</ele>
        <time>2025-05-28T16:50:56.000Z</time>
      </trkpt>
      <trkpt lat="47.77229" lon="7.00627">
        <ele>466.74887082087</ele>
        <time>2025-05-28T16:51:00.000Z</time>
      </trkpt>
      <trkpt lat="47.77228" lon="7.00618">
        <ele>465.74061086241</ele>
        <time>2025-05-28T16:51:05.000Z</time>
      </trkpt>
      <trkpt lat="47.7723" lon="7.0061">
        <ele>464.82321445185</ele>
        <time>2025-05-28T16:51:10.000Z</time>
      </trkpt>
      <trkpt lat="47.7723" lon="7.006">
        <ele>463.74933164007</ele>
        <time>2025-05-28T16:51:12.000Z</time>
      </trkpt>
      <trkpt lat="47.77231" lon="7.00594">
        <ele>462.91714703503</ele>
        <time>2025-05-28T16:51:15.000Z</time>
      </trkpt>
      <trkpt lat="47.77226" lon="7.0058">
        <ele>461.46004489225</ele>
        <time>2025-05-28T16:51:29.000Z</time>
      </trkpt>
      <trkpt lat="47.77225" lon="7.00571">
        <ele>460.32593242376</ele>
        <time>2025-05-28T16:51:33.000Z</time>
      </trkpt>
      <trkpt lat="47.77219" lon="7.00557">
        <ele>459.02789205968</ele>
        <time>2025-05-28T16:51:45.000Z</time>
      </trkpt>
      <trkpt lat="47.77213" lon="7.00545">
        <ele>457.64487773637</ele>
        <time>2025-05-28T16:51:54.000Z</time>
      </trkpt>
      <trkpt lat="47.772" lon="7.00533">
        <ele>457.15049608564</ele>
        <time>2025-05-28T16:52:11.000Z</time>
      </trkpt>
      <trkpt lat="47.77195" lon="7.00528">
        <ele>456.32664649296</ele>
        <time>2025-05-28T16:52:15.000Z</time>
      </trkpt>
      <trkpt lat="47.77191" lon="7.0051">
        <ele>452.62656856626</ele>
        <time>2025-05-28T16:52:22.000Z</time>
      </trkpt>
      <trkpt lat="47.77191" lon="7.00495">
        <ele>449.47368652062</ele>
        <time>2025-05-28T16:52:29.000Z</time>
      </trkpt>
      <trkpt lat="47.77188" lon="7.00485">
        <ele>446.96615567727</ele>
        <time>2025-05-28T16:52:35.000Z</time>
      </trkpt>
      <trkpt lat="47.7718" lon="7.00478">
        <ele>445.35289520573</ele>
        <time>2025-05-28T16:52:49.000Z</time>
      </trkpt>
      <trkpt lat="47.77176" lon="7.00471">
        <ele>443.41518615819</ele>
        <time>2025-05-28T16:52:52.000Z</time>
      </trkpt>
      <trkpt lat="47.77173" lon="7.00465">
        <ele>441.6525852921</ele>
        <time>2025-05-28T16:52:57.000Z</time>
      </trkpt>
      <trkpt lat="47.77166" lon="7.00457">
        <ele>439.25742109362</ele>
        <time>2025-05-28T16:53:03.000Z</time>
      </trkpt>
      <trkpt lat="47.77163" lon="7.00454">
        <ele>438.29881150652</ele>
        <time>2025-05-28T16:53:25.000Z</time>
      </trkpt>
      <trkpt lat="47.77165" lon="7.00464">
        <ele>440.97424600974</ele>
        <time>2025-05-28T16:55:15.000Z</time>
      </trkpt>
      <trkpt lat="47.77156" lon="7.0047">
        <ele>441.1644119986</ele>
        <time>2025-05-28T16:55:29.000Z</time>
      </trkpt>
      <trkpt lat="47.77146" lon="7.00476">
        <ele>440.18216906185</ele>
        <time>2025-05-28T16:55:37.000Z</time>
      </trkpt>
      <trkpt lat="47.77141" lon="7.00473">
        <ele>438.45794750716</ele>
        <time>2025-05-28T16:55:40.000Z</time>
      </trkpt>
      <trkpt lat="47.77135" lon="7.00467">
        <ele>436.03525810978</ele>
        <time>2025-05-28T16:55:46.000Z</time>
      </trkpt>
      <trkpt lat="47.7713" lon="7.00463">
        <ele>433.75427806903</ele>
        <time>2025-05-28T16:55:52.000Z</time>
      </trkpt>
      <trkpt lat="47.77126" lon="7.00456">
        <ele>431.529063733</ele>
        <time>2025-05-28T16:55:59.000Z</time>
      </trkpt>
      <trkpt lat="47.77124" lon="7.00448">
        <ele>429.65438314008</ele>
        <time>2025-05-28T16:56:03.000Z</time>
      </trkpt>
      <trkpt lat="47.77115" lon="7.00437">
        <ele>425.51316827413</ele>
        <time>2025-05-28T16:56:16.000Z</time>
      </trkpt>
      <trkpt lat="47.77111" lon="7.00431">
        <ele>423.46931756058</ele>
        <time>2025-05-28T16:56:23.000Z</time>
      </trkpt>
      <trkpt lat="47.77105" lon="7.00446">
        <ele>423.74682824419</ele>
        <time>2025-05-28T16:56:39.000Z</time>
      </trkpt>
      <trkpt lat="47.77105" lon="7.00452">
        <ele>424.45672166815</ele>
        <time>2025-05-28T16:56:43.000Z</time>
      </trkpt>
      <trkpt lat="47.77103" lon="7.00461">
        <ele>424.50344290341</ele>
        <time>2025-05-28T16:56:48.000Z</time>
      </trkpt>
      <trkpt lat="47.77098" lon="7.00461">
        <ele>422.8468928672</ele>
        <time>2025-05-28T16:56:50.000Z</time>
      </trkpt>
      <trkpt lat="47.77094" lon="7.00454">
        <ele>421.14264637144</ele>
        <time>2025-05-28T16:56:52.000Z</time>
      </trkpt>
      <trkpt lat="47.77088" lon="7.00432">
        <ele>417.4239403531</ele>
        <time>2025-05-28T16:57:03.000Z</time>
      </trkpt>
      <trkpt lat="47.77088" lon="7.00426">
        <ele>416.68043952279</ele>
        <time>2025-05-28T16:57:08.000Z</time>
      </trkpt>
      <trkpt lat="47.7709" lon="7.00418">
        <ele>416.24385309963</ele>
        <time>2025-05-28T16:57:12.000Z</time>
      </trkpt>
      <trkpt lat="47.77091" lon="7.00412">
        <ele>415.6685253941</ele>
        <time>2025-05-28T16:57:16.000Z</time>
      </trkpt>
      <trkpt lat="47.77092" lon="7.00405">
        <ele>415.00741649328</ele>
        <time>2025-05-28T16:57:20.000Z</time>
      </trkpt>
      <trkpt lat="47.77091" lon="7.00398">
        <ele>413.80463004919</ele>
        <time>2025-05-28T16:57:24.000Z</time>
      </trkpt>
      <trkpt lat="47.77088" lon="7.00394">
        <ele>412.61806253518</ele>
        <time>2025-05-28T16:57:39.000Z</time>
      </trkpt>
      <trkpt lat="47.77082" lon="7.00404">
        <ele>412.81657784511</ele>
        <time>2025-05-28T16:57:50.000Z</time>
      </trkpt>
      <trkpt lat="47.77079" lon="7.00413">
        <ele>412.9988375561</ele>
        <time>2025-05-28T16:57:54.000Z</time>
      </trkpt>
      <trkpt lat="47.77077" lon="7.00418">
        <ele>413.05661114041</ele>
        <time>2025-05-28T16:58:02.000Z</time>
      </trkpt>
      <trkpt lat="47.77081" lon="7.00443">
        <ele>416.11290281855</ele>
        <time>2025-05-28T16:58:16.000Z</time>
      </trkpt>
      <trkpt lat="47.77077" lon="7.00443">
        <ele>414.69905684483</ele>
        <time>2025-05-28T16:58:20.000Z</time>
      </trkpt>
      <trkpt lat="47.77073" lon="7.0043">
        <ele>412.84889620628</ele>
        <time>2025-05-28T16:58:27.000Z</time>
      </trkpt>
      <trkpt lat="47.77069" lon="7.00429">
        <ele>411.50621570482</ele>
        <time>2025-05-28T16:58:34.000Z</time>
      </trkpt>
      <trkpt lat="47.77069" lon="7.00447">
        <ele>412.32216209918</ele>
        <time>2025-05-28T16:58:46.000Z</time>
      </trkpt>
      <trkpt lat="47.77063" lon="7.00453">
        <ele>410.69713997077</ele>
        <time>2025-05-28T16:58:54.000Z</time>
      </trkpt>
      <trkpt lat="47.77058" lon="7.00454">
        <ele>409.2125733993</ele>
        <time>2025-05-28T16:58:59.000Z</time>
      </trkpt>
      <trkpt lat="47.77051" lon="7.00439">
        <ele>406.61054727575</ele>
        <time>2025-05-28T16:59:08.000Z</time>
      </trkpt>
      <trkpt lat="47.77049" lon="7.00435">
        <ele>405.96650017696</ele>
        <time>2025-05-28T16:59:13.000Z</time>
      </trkpt>
      <trkpt lat="47.77043" lon="7.00425">
        <ele>404.17558062535</ele>
        <time>2025-05-28T16:59:23.000Z</time>
      </trkpt>
      <trkpt lat="47.77037" lon="7.0042">
        <ele>402.89381017236</ele>
        <time>2025-05-28T16:59:27.000Z</time>
      </trkpt>
      <trkpt lat="47.77035" lon="7.00414">
        <ele>402.53264839724</ele>
        <time>2025-05-28T16:59:36.000Z</time>
      </trkpt>
      <trkpt lat="47.7703" lon="7.00412">
        <ele>401.64819801636</ele>
        <time>2025-05-28T16:59:39.000Z</time>
      </trkpt>
      <trkpt lat="47.77027" lon="7.00405">
        <ele>401.56401795624</ele>
        <time>2025-05-28T16:59:44.000Z</time>
      </trkpt>
      <trkpt lat="47.77027" lon="7.00399">
        <ele>401.6418172255</ele>
        <time>2025-05-28T16:59:47.000Z</time>
      </trkpt>
      <trkpt lat="47.77027" lon="7.00389">
        <ele>401.54925434049</ele>
        <time>2025-05-28T16:59:51.000Z</time>
      </trkpt>
      <trkpt lat="47.77032" lon="7.00384">
        <ele>401.76672593168</ele>
        <time>2025-05-28T16:59:54.000Z</time>
      </trkpt>
      <trkpt lat="47.77034" lon="7.00378">
        <ele>401.74180837926</ele>
        <time>2025-05-28T17:00:03.000Z</time>
      </trkpt>
      <trkpt lat="47.77035" lon="7.00362">
        <ele>401.0272137939</ele>
        <time>2025-05-28T17:00:11.000Z</time>
      </trkpt>
      <trkpt lat="47.77039" lon="7.00359">
        <ele>401.43756157128</ele>
        <time>2025-05-28T17:00:13.000Z</time>
      </trkpt>
      <trkpt lat="47.77049" lon="7.00349">
        <ele>401.81246089536</ele>
        <time>2025-05-28T17:00:25.000Z</time>
      </trkpt>
      <trkpt lat="47.77053" lon="7.00344">
        <ele>401.65616389404</ele>
        <time>2025-05-28T17:00:30.000Z</time>
      </trkpt>
      <trkpt lat="47.7706" lon="7.00338">
        <ele>401.76248897856</ele>
        <time>2025-05-28T17:01:51.000Z</time>
      </trkpt>
      <trkpt lat="47.77064" lon="7.00331">
        <ele>401.33785724593</ele>
        <time>2025-05-28T17:01:56.000Z</time>
      </trkpt>
      <trkpt lat="47.77069" lon="7.00327">
        <ele>401.46059386551</ele>
        <time>2025-05-28T17:02:03.000Z</time>
      </trkpt>
      <trkpt lat="47.77075" lon="7.00324">
        <ele>401.5755540806</ele>
        <time>2025-05-28T17:02:09.000Z</time>
      </trkpt>
      <trkpt lat="47.77083" lon="7.00323">
        <ele>401.69891662913</ele>
        <time>2025-05-28T17:02:17.000Z</time>
      </trkpt>
      <trkpt lat="47.77088" lon="7.00322">
        <ele>401.7735061461</ele>
        <time>2025-05-28T17:02:21.000Z</time>
      </trkpt>
      <trkpt lat="47.77093" lon="7.00318">
        <ele>401.44963628061</ele>
        <time>2025-05-28T17:02:25.000Z</time>
      </trkpt>
      <trkpt lat="47.77098" lon="7.00316">
        <ele>401.15705511458</ele>
        <time>2025-05-28T17:02:29.000Z</time>
      </trkpt>
      <trkpt lat="47.77105" lon="7.00311">
        <ele>400.17940088348</ele>
        <time>2025-05-28T17:02:38.000Z</time>
      </trkpt>
      <trkpt lat="47.77141" lon="7.00295">
        <ele>398.90986619253</ele>
        <time>2025-05-28T17:03:11.000Z</time>
      </trkpt>
      <trkpt lat="47.77146" lon="7.00293">
        <ele>399.09702970075</ele>
        <time>2025-05-28T17:03:14.000Z</time>
      </trkpt>
      <trkpt lat="47.77155" lon="7.00287">
        <ele>399.14713735855</ele>
        <time>2025-05-28T17:03:21.000Z</time>
      </trkpt>
      <trkpt lat="47.77158" lon="7.00283">
        <ele>399.18672842374</ele>
        <time>2025-05-28T17:03:24.000Z</time>
      </trkpt>
      <trkpt lat="47.77163" lon="7.0028">
        <ele>399.19480864257</ele>
        <time>2025-05-28T17:03:28.000Z</time>
      </trkpt>
      <trkpt lat="47.77168" lon="7.00276">
        <ele>399.18163559577</ele>
        <time>2025-05-28T17:03:33.000Z</time>
      </trkpt>
      <trkpt lat="47.77173" lon="7.00273">
        <ele>399.4013329757</ele>
        <time>2025-05-28T17:03:36.000Z</time>
      </trkpt>
      <trkpt lat="47.77185" lon="7.00264">
        <ele>399.97297055097</ele>
        <time>2025-05-28T17:03:46.000Z</time>
      </trkpt>
      <trkpt lat="47.77193" lon="7.00254">
        <ele>400.67476686879</ele>
        <time>2025-05-28T17:03:56.000Z</time>
      </trkpt>
      <trkpt lat="47.77201" lon="7.00246">
        <ele>401.12484821333</ele>
        <time>2025-05-28T17:04:03.000Z</time>
      </trkpt>
      <trkpt lat="47.77207" lon="7.00237">
        <ele>401.33141002541</ele>
        <time>2025-05-28T17:04:12.000Z</time>
      </trkpt>
      <trkpt lat="47.77212" lon="7.00235">
        <ele>401.32030588098</ele>
        <time>2025-05-28T17:04:14.000Z</time>
      </trkpt>
      <trkpt lat="47.77216" lon="7.0023">
        <ele>401.30121062697</ele>
        <time>2025-05-28T17:04:18.000Z</time>
      </trkpt>
      <trkpt lat="47.7722" lon="7.00227">
        <ele>401.22296238877</ele>
        <time>2025-05-28T17:04:22.000Z</time>
      </trkpt>
      <trkpt lat="47.77223" lon="7.00222">
        <ele>401.18634208907</ele>
        <time>2025-05-28T17:04:25.000Z</time>
      </trkpt>
      <trkpt lat="47.77228" lon="7.00217">
        <ele>401.08242492396</ele>
        <time>2025-05-28T17:04:30.000Z</time>
      </trkpt>
      <trkpt lat="47.7723" lon="7.00209">
        <ele>400.99574725637</ele>
        <time>2025-05-28T17:04:35.000Z</time>
      </trkpt>
      <trkpt lat="47.77234" lon="7.00203">
        <ele>400.78334012153</ele>
        <time>2025-05-28T17:04:39.000Z</time>
      </trkpt>
      <trkpt lat="47.77238" lon="7.00199">
        <ele>400.5329201323</ele>
        <time>2025-05-28T17:04:43.000Z</time>
      </trkpt>
      <trkpt lat="47.77245" lon="7.00189">
        <ele>400.18230429566</ele>
        <time>2025-05-28T17:04:50.000Z</time>
      </trkpt>
      <trkpt lat="47.77249" lon="7.00185">
        <ele>400.1077426277</ele>
        <time>2025-05-28T17:04:54.000Z</time>
      </trkpt>
      <trkpt lat="47.77254" lon="7.0018">
        <ele>400.03777156286</ele>
        <time>2025-05-28T17:04:59.000Z</time>
      </trkpt>
      <trkpt lat="47.77256" lon="7.00173">
        <ele>400.00022627189</ele>
        <time>2025-05-28T17:05:02.000Z</time>
      </trkpt>
      <trkpt lat="47.77261" lon="7.00167">
        <ele>400</ele>
        <time>2025-05-28T17:05:06.000Z</time>
      </trkpt>
      <trkpt lat="47.77264" lon="7.00164">
        <ele>399.99970380912</ele>
        <time>2025-05-28T17:05:10.000Z</time>
      </trkpt>
      <trkpt lat="47.77268" lon="7.00159">
        <ele>400.0621112545</ele>
        <time>2025-05-28T17:05:14.000Z</time>
      </trkpt>
      <trkpt lat="47.77276" lon="7.0015">
        <ele>400.3884168405</ele>
        <time>2025-05-28T17:05:21.000Z</time>
      </trkpt>
      <trkpt lat="47.77284" lon="7.0013">
        <ele>400.88252937831</ele>
        <time>2025-05-28T17:05:33.000Z</time>
      </trkpt>
      <trkpt lat="47.77291" lon="7.00123">
        <ele>401.10715350145</ele>
        <time>2025-05-28T17:05:40.000Z</time>
      </trkpt>
      <trkpt lat="47.77293" lon="7.00117">
        <ele>401.18854372297</ele>
        <time>2025-05-28T17:05:43.000Z</time>
      </trkpt>
      <trkpt lat="47.77299" lon="7.00104">
        <ele>401.38963850848</ele>
        <time>2025-05-28T17:05:51.000Z</time>
      </trkpt>
      <trkpt lat="47.77302" lon="7.00098">
        <ele>401.49018598534</ele>
        <time>2025-05-28T17:05:55.000Z</time>
      </trkpt>
      <trkpt lat="47.77312" lon="7.00087">
        <ele>401.76671734541</ele>
        <time>2025-05-28T17:06:08.000Z</time>
      </trkpt>
      <trkpt lat="47.77317" lon="7.0008">
        <ele>401.81450524246</ele>
        <time>2025-05-28T17:06:14.000Z</time>
      </trkpt>
      <trkpt lat="47.7732" lon="7.00073">
        <ele>401.85689833935</ele>
        <time>2025-05-28T17:06:18.000Z</time>
      </trkpt>
      <trkpt lat="47.77323" lon="7.0007">
        <ele>401.89672803456</ele>
        <time>2025-05-28T17:06:22.000Z</time>
      </trkpt>
      <trkpt lat="47.7733" lon="7.00061">
        <ele>401.98916398268</ele>
        <time>2025-05-28T17:06:29.000Z</time>
      </trkpt>
      <trkpt lat="47.77332" lon="7.00054">
        <ele>402.02210214497</ele>
        <time>2025-05-28T17:06:34.000Z</time>
      </trkpt>
      <trkpt lat="47.77336" lon="7.00048">
        <ele>402.03959895817</ele>
        <time>2025-05-28T17:06:38.000Z</time>
      </trkpt>
      <trkpt lat="47.77343" lon="7.00029">
        <ele>402.1</ele>
        <time>2025-05-28T17:06:48.000Z</time>
      </trkpt>
      <trkpt lat="47.77354" lon="7.00018">
        <ele>402.18925667193</ele>
        <time>2025-05-28T17:06:57.000Z</time>
      </trkpt>
      <trkpt lat="47.77365" lon="6.99998">
        <ele>402.11597076039</ele>
        <time>2025-05-28T17:07:11.000Z</time>
      </trkpt>
      <trkpt lat="47.77373" lon="6.99989">
        <ele>402.19290450239</ele>
        <time>2025-05-28T17:07:19.000Z</time>
      </trkpt>
      <trkpt lat="47.77379" lon="6.99979">
        <ele>402.81233926565</ele>
        <time>2025-05-28T17:07:31.000Z</time>
      </trkpt>
      <trkpt lat="47.7739" lon="6.99973">
        <ele>403.6323478197</ele>
        <time>2025-05-28T17:07:42.000Z</time>
      </trkpt>
      <trkpt lat="47.77395" lon="6.99963">
        <ele>404.24898894411</ele>
        <time>2025-05-28T17:07:51.000Z</time>
      </trkpt>
      <trkpt lat="47.77395" lon="6.99945">
        <ele>404.84982838114</ele>
        <time>2025-05-28T17:07:57.000Z</time>
      </trkpt>
      <trkpt lat="47.77395" lon="6.9994">
        <ele>405.04913367657</ele>
        <time>2025-05-28T17:08:11.000Z</time>
      </trkpt>
      <trkpt lat="47.774" lon="6.99897">
        <ele>405.69492238839</ele>
        <time>2025-05-28T17:20:02.000Z</time>
      </trkpt>
      <trkpt lat="47.774" lon="6.99896">
        <ele>405.68327154396</ele>
        <time>2025-05-28T17:20:03.000Z</time>
      </trkpt>
      <trkpt lat="47.77404" lon="6.99879">
        <ele>405.43073747959</ele>
        <time>2025-05-28T17:20:14.000Z</time>
      </trkpt>
      <trkpt lat="47.77402" lon="6.99872">
        <ele>405.15321386468</ele>
        <time>2025-05-28T17:21:42.000Z</time>
      </trkpt>
      <trkpt lat="47.77405" lon="6.9986">
        <ele>405.07451914083</ele>
        <time>2025-05-28T17:21:55.000Z</time>
      </trkpt>
      <trkpt lat="47.77405" lon="6.99852">
        <ele>404.93123604303</ele>
        <time>2025-05-28T17:21:59.000Z</time>
      </trkpt>
      <trkpt lat="47.77405" lon="6.99846">
        <ele>404.81754016848</ele>
        <time>2025-05-28T17:22:03.000Z</time>
      </trkpt>
      <trkpt lat="47.77408" lon="6.99831">
        <ele>404.82543139658</ele>
        <time>2025-05-28T17:22:10.000Z</time>
      </trkpt>
      <trkpt lat="47.77412" lon="6.99826">
        <ele>404.98534242727</ele>
        <time>2025-05-28T17:22:15.000Z</time>
      </trkpt>
      <trkpt lat="47.77416" lon="6.9981">
        <ele>405.13931916845</ele>
        <time>2025-05-28T17:22:22.000Z</time>
      </trkpt>
      <trkpt lat="47.77419" lon="6.99803">
        <ele>405.24333613701</ele>
        <time>2025-05-28T17:22:25.000Z</time>
      </trkpt>
      <trkpt lat="47.77419" lon="6.99796">
        <ele>405.26413953789</ele>
        <time>2025-05-28T17:22:28.000Z</time>
      </trkpt>
      <trkpt lat="47.77422" lon="6.99782">
        <ele>405.20460622239</ele>
        <time>2025-05-28T17:22:37.000Z</time>
      </trkpt>
      <trkpt lat="47.77426" lon="6.99768">
        <ele>405.08322090665</ele>
        <time>2025-05-28T17:22:44.000Z</time>
      </trkpt>
      <trkpt lat="47.77429" lon="6.99756">
        <ele>404.79194979556</ele>
        <time>2025-05-28T17:22:54.000Z</time>
      </trkpt>
      <trkpt lat="47.77415" lon="6.99742">
        <ele>404.46106581334</ele>
        <time>2025-05-28T17:23:11.000Z</time>
      </trkpt>
      <trkpt lat="47.77412" lon="6.99737">
        <ele>404.34726621684</ele>
        <time>2025-05-28T17:23:15.000Z</time>
      </trkpt>
      <trkpt lat="47.774" lon="6.99736">
        <ele>404.4</ele>
        <time>2025-05-28T17:23:25.000Z</time>
      </trkpt>
      <trkpt lat="47.7739" lon="6.99732">
        <ele>404.46303454469</ele>
        <time>2025-05-28T17:23:33.000Z</time>
      </trkpt>
      <trkpt lat="47.77383" lon="6.99732">
        <ele>404.54767002743</ele>
        <time>2025-05-28T17:23:46.000Z</time>
      </trkpt>
      <trkpt lat="47.77377" lon="6.99725">
        <ele>404.82916878167</ele>
        <time>2025-05-28T17:23:54.000Z</time>
      </trkpt>
      <trkpt lat="47.77374" lon="6.99721">
        <ele>405.02116489683</ele>
        <time>2025-05-28T17:23:58.000Z</time>
      </trkpt>
      <trkpt lat="47.7737" lon="6.99717">
        <ele>405.29293779791</ele>
        <time>2025-05-28T17:24:02.000Z</time>
      </trkpt>
      <trkpt lat="47.77363" lon="6.99713">
        <ele>405.80167595518</ele>
        <time>2025-05-28T17:24:08.000Z</time>
      </trkpt>
      <trkpt lat="47.77355" lon="6.99716">
        <ele>406.19377590139</ele>
        <time>2025-05-28T17:24:15.000Z</time>
      </trkpt>
      <trkpt lat="47.77342" lon="6.99714">
        <ele>406.77784567173</ele>
        <time>2025-05-28T17:24:24.000Z</time>
      </trkpt>
      <trkpt lat="47.77338" lon="6.9971">
        <ele>406.94696545415</ele>
        <time>2025-05-28T17:24:27.000Z</time>
      </trkpt>
      <trkpt lat="47.77335" lon="6.99704">
        <ele>407.19118449455</ele>
        <time>2025-05-28T17:24:31.000Z</time>
      </trkpt>
      <trkpt lat="47.77333" lon="6.99697">
        <ele>407.48973078614</ele>
        <time>2025-05-28T17:24:37.000Z</time>
      </trkpt>
      <trkpt lat="47.77333" lon="6.99689">
        <ele>407.75834136765</ele>
        <time>2025-05-28T17:24:45.000Z</time>
      </trkpt>
      <trkpt lat="47.77331" lon="6.99682">
        <ele>408.0275912534</ele>
        <time>2025-05-28T17:24:49.000Z</time>
      </trkpt>
      <trkpt lat="47.77328" lon="6.99677">
        <ele>408.17637872215</ele>
        <time>2025-05-28T17:24:55.000Z</time>
      </trkpt>
      <trkpt lat="47.7732" lon="6.99667">
        <ele>408.36603535954</ele>
        <time>2025-05-28T17:25:06.000Z</time>
      </trkpt>
      <trkpt lat="47.77316" lon="6.99661">
        <ele>408.56604130473</ele>
        <time>2025-05-28T17:25:09.000Z</time>
      </trkpt>
      <trkpt lat="47.77315" lon="6.99653">
        <ele>408.85993950954</ele>
        <time>2025-05-28T17:25:12.000Z</time>
      </trkpt>
      <trkpt lat="47.77316" lon="6.99646">
        <ele>409.12373282416</ele>
        <time>2025-05-28T17:25:15.000Z</time>
      </trkpt>
      <trkpt lat="47.77309" lon="6.99635">
        <ele>409.44652336022</ele>
        <time>2025-05-28T17:25:30.000Z</time>
      </trkpt>
      <trkpt lat="47.773" lon="6.99627">
        <ele>409.90233345702</ele>
        <time>2025-05-28T17:25:38.000Z</time>
      </trkpt>
      <trkpt lat="47.77295" lon="6.99628">
        <ele>410.05130859586</ele>
        <time>2025-05-28T17:25:43.000Z</time>
      </trkpt>
      <trkpt lat="47.77279" lon="6.99618">
        <ele>410.65335882758</ele>
        <time>2025-05-28T17:25:54.000Z</time>
      </trkpt>
      <trkpt lat="47.77252" lon="6.99589">
        <ele>409.99036586662</ele>
        <time>2025-05-28T17:26:18.000Z</time>
      </trkpt>
      <trkpt lat="47.77233" lon="6.99578">
        <ele>409.53847784852</ele>
        <time>2025-05-28T17:26:34.000Z</time>
      </trkpt>
      <trkpt lat="47.77227" lon="6.99573">
        <ele>409.41074725385</ele>
        <time>2025-05-28T17:26:42.000Z</time>
      </trkpt>
      <trkpt lat="47.77226" lon="6.99572">
        <ele>409.38675153729</ele>
        <time>2025-05-28T17:26:43.000Z</time>
      </trkpt>
      <trkpt lat="47.77213" lon="6.99562">
        <ele>409.05573639877</ele>
        <time>2025-05-28T17:26:55.000Z</time>
      </trkpt>
      <trkpt lat="47.77213" lon="6.99555">
        <ele>409.00111123631</ele>
        <time>2025-05-28T17:26:59.000Z</time>
      </trkpt>
      <trkpt lat="47.77215" lon="6.99549">
        <ele>408.93075484443</ele>
        <time>2025-05-28T17:27:03.000Z</time>
      </trkpt>
      <trkpt lat="47.77217" lon="6.99542">
        <ele>408.9</ele>
        <time>2025-05-28T17:27:06.000Z</time>
      </trkpt>
      <trkpt lat="47.77219" lon="6.99535">
        <ele>408.87346844445</ele>
        <time>2025-05-28T17:27:09.000Z</time>
      </trkpt>
      <trkpt lat="47.77223" lon="6.99521">
        <ele>408.77456329323</ele>
        <time>2025-05-28T17:27:17.000Z</time>
      </trkpt>
      <trkpt lat="47.77233" lon="6.99479">
        <ele>408.84925322666</ele>
        <time>2025-05-28T17:27:37.000Z</time>
      </trkpt>
      <trkpt lat="47.77238" lon="6.99467">
        <ele>409.1492288</ele>
        <time>2025-05-28T17:27:45.000Z</time>
      </trkpt>
      <trkpt lat="47.7724" lon="6.99459">
        <ele>409.28821261907</ele>
        <time>2025-05-28T17:27:49.000Z</time>
      </trkpt>
      <trkpt lat="47.77243" lon="6.99453">
        <ele>409.36756221534</ele>
        <time>2025-05-28T17:27:53.000Z</time>
      </trkpt>
      <trkpt lat="47.77243" lon="6.99444">
        <ele>409.42307390881</ele>
        <time>2025-05-28T17:27:56.000Z</time>
      </trkpt>
      <trkpt lat="47.77251" lon="6.99409">
        <ele>409.43421158241</ele>
        <time>2025-05-28T17:28:16.000Z</time>
      </trkpt>
      <trkpt lat="47.77253" lon="6.99394">
        <ele>409.60058874334</ele>
        <time>2025-05-28T17:28:24.000Z</time>
      </trkpt>
      <trkpt lat="47.77253" lon="6.99387">
        <ele>409.83473509639</ele>
        <time>2025-05-28T17:28:28.000Z</time>
      </trkpt>
      <trkpt lat="47.77251" lon="6.99381">
        <ele>410.16244496405</ele>
        <time>2025-05-28T17:28:32.000Z</time>
      </trkpt>
      <trkpt lat="47.7725" lon="6.99369">
        <ele>410.69095865605</ele>
        <time>2025-05-28T17:28:40.000Z</time>
      </trkpt>
      <trkpt lat="47.77248" lon="6.99362">
        <ele>411.03711695971</ele>
        <time>2025-05-28T17:28:44.000Z</time>
      </trkpt>
      <trkpt lat="47.77251" lon="6.99353">
        <ele>411.30533453459</ele>
        <time>2025-05-28T17:28:48.000Z</time>
      </trkpt>
      <trkpt lat="47.77253" lon="6.99347">
        <ele>411.59224890978</ele>
        <time>2025-05-28T17:28:52.000Z</time>
      </trkpt>
      <trkpt lat="47.77254" lon="6.99339">
        <ele>411.94531988748</ele>
        <time>2025-05-28T17:28:56.000Z</time>
      </trkpt>
      <trkpt lat="47.77254" lon="6.99333">
        <ele>412.30774553898</ele>
        <time>2025-05-28T17:28:59.000Z</time>
      </trkpt>
      <trkpt lat="47.77256" lon="6.99326">
        <ele>412.49521701289</ele>
        <time>2025-05-28T17:29:03.000Z</time>
      </trkpt>
      <trkpt lat="47.77258" lon="6.99319">
        <ele>412.59213229739</ele>
        <time>2025-05-28T17:29:08.000Z</time>
      </trkpt>
      <trkpt lat="47.7726" lon="6.99312">
        <ele>412.6430647008</ele>
        <time>2025-05-28T17:29:12.000Z</time>
      </trkpt>
      <trkpt lat="47.77267" lon="6.99284">
        <ele>412.806456452</ele>
        <time>2025-05-28T17:29:27.000Z</time>
      </trkpt>
      <trkpt lat="47.77268" lon="6.99277">
        <ele>412.79274348211</ele>
        <time>2025-05-28T17:29:30.000Z</time>
      </trkpt>
      <trkpt lat="47.77271" lon="6.99271">
        <ele>412.68116183207</ele>
        <time>2025-05-28T17:29:34.000Z</time>
      </trkpt>
      <trkpt lat="47.77271" lon="6.99262">
        <ele>412.66643471389</ele>
        <time>2025-05-28T17:29:46.000Z</time>
      </trkpt>
      <trkpt lat="47.77273" lon="6.99253">
        <ele>412.59103837705</ele>
        <time>2025-05-28T17:29:50.000Z</time>
      </trkpt>
      <trkpt lat="47.77282" lon="6.99229">
        <ele>412.18590803854</ele>
        <time>2025-05-28T17:30:03.000Z</time>
      </trkpt>
      <trkpt lat="47.77286" lon="6.99226">
        <ele>412.12072602358</ele>
        <time>2025-05-28T17:30:06.000Z</time>
      </trkpt>
      <trkpt lat="47.77289" lon="6.9922">
        <ele>412.22954423465</ele>
        <time>2025-05-28T17:30:10.000Z</time>
      </trkpt>
      <trkpt lat="47.77293" lon="6.99216">
        <ele>412.20008831257</ele>
        <time>2025-05-28T17:30:12.000Z</time>
      </trkpt>
      <trkpt lat="47.773" lon="6.99205">
        <ele>412.21592403101</ele>
        <time>2025-05-28T17:30:18.000Z</time>
      </trkpt>
      <trkpt lat="47.77303" lon="6.99199">
        <ele>412.36761778908</ele>
        <time>2025-05-28T17:30:22.000Z</time>
      </trkpt>
      <trkpt lat="47.77306" lon="6.99192">
        <ele>412.62091744784</ele>
        <time>2025-05-28T17:30:29.000Z</time>
      </trkpt>
      <trkpt lat="47.7731" lon="6.99188">
        <ele>412.8470037074</ele>
        <time>2025-05-28T17:30:32.000Z</time>
      </trkpt>
      <trkpt lat="47.77323" lon="6.99165">
        <ele>414.0586341764</ele>
        <time>2025-05-28T17:30:46.000Z</time>
      </trkpt>
      <trkpt lat="47.77324" lon="6.99158">
        <ele>414.17524378165</ele>
        <time>2025-05-28T17:30:50.000Z</time>
      </trkpt>
      <trkpt lat="47.7733" lon="6.99144">
        <ele>414.31435588401</ele>
        <time>2025-05-28T17:31:01.000Z</time>
      </trkpt>
      <trkpt lat="47.77328" lon="6.99131">
        <ele>414.51181854503</ele>
        <time>2025-05-28T17:31:14.000Z</time>
      </trkpt>
      <trkpt lat="47.77319" lon="6.99119">
        <ele>414.88821832706</ele>
        <time>2025-05-28T17:31:18.000Z</time>
      </trkpt>
      <trkpt lat="47.77316" lon="6.99106">
        <ele>415.25869781196</ele>
        <time>2025-05-28T17:31:27.000Z</time>
      </trkpt>
      <trkpt lat="47.77314" lon="6.99096">
        <ele>415.50704596532</ele>
        <time>2025-05-28T17:31:33.000Z</time>
      </trkpt>
      <trkpt lat="47.77319" lon="6.99084">
        <ele>415.48518884592</ele>
        <time>2025-05-28T17:31:39.000Z</time>
      </trkpt>
      <trkpt lat="47.77316" lon="6.99047">
        <ele>416.93334084411</ele>
        <time>2025-05-28T17:31:57.000Z</time>
      </trkpt>
      <trkpt lat="47.77315" lon="6.99032">
        <ele>418.1100107872</ele>
        <time>2025-05-28T17:32:04.000Z</time>
      </trkpt>
      <trkpt lat="47.77312" lon="6.99023">
        <ele>419.04793382813</ele>
        <time>2025-05-28T17:32:11.000Z</time>
      </trkpt>
      <trkpt lat="47.77306" lon="6.99012">
        <ele>420.41815209626</ele>
        <time>2025-05-28T17:32:17.000Z</time>
      </trkpt>
      <trkpt lat="47.77307" lon="6.98997">
        <ele>422.83916574638</ele>
        <time>2025-05-28T17:32:26.000Z</time>
      </trkpt>
      <trkpt lat="47.77312" lon="6.98975">
        <ele>426.50149345873</ele>
        <time>2025-05-28T17:32:42.000Z</time>
      </trkpt>
      <trkpt lat="47.77314" lon="6.98968">
        <ele>427.62350772084</ele>
        <time>2025-05-28T17:32:47.000Z</time>
      </trkpt>
      <trkpt lat="47.77316" lon="6.98959">
        <ele>429.23514066152</ele>
        <time>2025-05-28T17:32:53.000Z</time>
      </trkpt>
      <trkpt lat="47.77314" lon="6.98952">
        <ele>430.78086379325</ele>
        <time>2025-05-28T17:32:58.000Z</time>
      </trkpt>
      <trkpt lat="47.77307" lon="6.98942">
        <ele>433.15573039004</ele>
        <time>2025-05-28T17:33:08.000Z</time>
      </trkpt>
      <trkpt lat="47.77303" lon="6.98929">
        <ele>434.99743121369</ele>
        <time>2025-05-28T17:33:22.000Z</time>
      </trkpt>
      <trkpt lat="47.77298" lon="6.98922">
        <ele>436.40410579459</ele>
        <time>2025-05-28T17:33:29.000Z</time>
      </trkpt>
      <trkpt lat="47.7729" lon="6.98905">
        <ele>438.02884425191</ele>
        <time>2025-05-28T17:33:45.000Z</time>
      </trkpt>
      <trkpt lat="47.77269" lon="6.98891">
        <ele>441.45943049849</ele>
        <time>2025-05-28T17:34:06.000Z</time>
      </trkpt>
      <trkpt lat="47.77266" lon="6.98885">
        <ele>441.91116981031</ele>
        <time>2025-05-28T17:34:11.000Z</time>
      </trkpt>
      <trkpt lat="47.77262" lon="6.98882">
        <ele>442.37621290994</ele>
        <time>2025-05-28T17:34:15.000Z</time>
      </trkpt>
      <trkpt lat="47.77249" lon="6.98861">
        <ele>443.61849245313</ele>
        <time>2025-05-28T17:34:29.000Z</time>
      </trkpt>
      <trkpt lat="47.77244" lon="6.9885">
        <ele>444.01552732168</ele>
        <time>2025-05-28T17:34:38.000Z</time>
      </trkpt>
      <trkpt lat="47.77241" lon="6.98845">
        <ele>444.19755089621</ele>
        <time>2025-05-28T17:34:43.000Z</time>
      </trkpt>
      <trkpt lat="47.77235" lon="6.9883">
        <ele>444.57945469935</ele>
        <time>2025-05-28T17:34:54.000Z</time>
      </trkpt>
      <trkpt lat="47.7723" lon="6.98819">
        <ele>444.86962418989</ele>
        <time>2025-05-28T17:35:03.000Z</time>
      </trkpt>
      <trkpt lat="47.77224" lon="6.98815">
        <ele>445.16389388098</ele>
        <time>2025-05-28T17:35:07.000Z</time>
      </trkpt>
      <trkpt lat="47.77221" lon="6.98809">
        <ele>445.42272787956</ele>
        <time>2025-05-28T17:35:11.000Z</time>
      </trkpt>
      <trkpt lat="47.77218" lon="6.98803">
        <ele>445.62031904124</ele>
        <time>2025-05-28T17:35:14.000Z</time>
      </trkpt>
      <trkpt lat="47.7721" lon="6.98791">
        <ele>446.20684434194</ele>
        <time>2025-05-28T17:35:23.000Z</time>
      </trkpt>
      <trkpt lat="47.77207" lon="6.98784">
        <ele>446.56692767125</ele>
        <time>2025-05-28T17:35:27.000Z</time>
      </trkpt>
      <trkpt lat="47.77204" lon="6.9878">
        <ele>446.8993303309</ele>
        <time>2025-05-28T17:35:30.000Z</time>
      </trkpt>
      <trkpt lat="47.772" lon="6.98773">
        <ele>447.35282850843</ele>
        <time>2025-05-28T17:35:35.000Z</time>
      </trkpt>
      <trkpt lat="47.77196" lon="6.98767">
        <ele>447.5918937511</ele>
        <time>2025-05-28T17:35:39.000Z</time>
      </trkpt>
      <trkpt lat="47.77185" lon="6.9874">
        <ele>447.9</ele>
        <time>2025-05-28T17:35:56.000Z</time>
      </trkpt>
      <trkpt lat="47.7717" lon="6.9872">
        <ele>447.76051372549</ele>
        <time>2025-05-28T17:36:09.000Z</time>
      </trkpt>
      <trkpt lat="47.77168" lon="6.98712">
        <ele>447.59772569876</ele>
        <time>2025-05-28T17:36:14.000Z</time>
      </trkpt>
      <trkpt lat="47.77162" lon="6.987">
        <ele>447.56493195547</ele>
        <time>2025-05-28T17:36:21.000Z</time>
      </trkpt>
      <trkpt lat="47.77158" lon="6.98696">
        <ele>447.61824190717</ele>
        <time>2025-05-28T17:36:23.000Z</time>
      </trkpt>
      <trkpt lat="47.77158" lon="6.98687">
        <ele>447.90488087435</ele>
        <time>2025-05-28T17:36:27.000Z</time>
      </trkpt>
      <trkpt lat="47.77155" lon="6.98681">
        <ele>448.12986495553</ele>
        <time>2025-05-28T17:36:31.000Z</time>
      </trkpt>
      <trkpt lat="47.77152" lon="6.98665">
        <ele>448.67781290668</ele>
        <time>2025-05-28T17:36:39.000Z</time>
      </trkpt>
      <trkpt lat="47.77149" lon="6.98659">
        <ele>448.8945186134</ele>
        <time>2025-05-28T17:36:42.000Z</time>
      </trkpt>
      <trkpt lat="47.77144" lon="6.98639">
        <ele>449.5075502933</ele>
        <time>2025-05-28T17:36:53.000Z</time>
      </trkpt>
      <trkpt lat="47.77142" lon="6.9863">
        <ele>449.67054577777</ele>
        <time>2025-05-28T17:36:59.000Z</time>
      </trkpt>
      <trkpt lat="47.77138" lon="6.98614">
        <ele>449.74270873695</ele>
        <time>2025-05-28T17:37:10.000Z</time>
      </trkpt>
      <trkpt lat="47.77132" lon="6.98601">
        <ele>449.5337762431</ele>
        <time>2025-05-28T17:37:18.000Z</time>
      </trkpt>
      <trkpt lat="47.7713" lon="6.98595">
        <ele>449.46096837369</ele>
        <time>2025-05-28T17:37:21.000Z</time>
      </trkpt>
      <trkpt lat="47.77127" lon="6.9859">
        <ele>449.30740811775</ele>
        <time>2025-05-28T17:37:24.000Z</time>
      </trkpt>
      <trkpt lat="47.77125" lon="6.98584">
        <ele>449.2403790156</ele>
        <time>2025-05-28T17:37:29.000Z</time>
      </trkpt>
      <trkpt lat="47.77113" lon="6.98572">
        <ele>448.86182234796</ele>
        <time>2025-05-28T17:37:38.000Z</time>
      </trkpt>
      <trkpt lat="47.77107" lon="6.98558">
        <ele>448.91335934791</ele>
        <time>2025-05-28T17:37:46.000Z</time>
      </trkpt>
      <trkpt lat="47.77103" lon="6.98554">
        <ele>449.05639839939</ele>
        <time>2025-05-28T17:37:50.000Z</time>
      </trkpt>
      <trkpt lat="47.77098" lon="6.9854">
        <ele>449.50091536015</ele>
        <time>2025-05-28T17:37:58.000Z</time>
      </trkpt>
      <trkpt lat="47.77094" lon="6.98527">
        <ele>450.24708835557</ele>
        <time>2025-05-28T17:38:05.000Z</time>
      </trkpt>
      <trkpt lat="47.7709" lon="6.98515">
        <ele>450.86029684285</ele>
        <time>2025-05-28T17:38:13.000Z</time>
      </trkpt>
      <trkpt lat="47.77087" lon="6.9851">
        <ele>451.14011161326</ele>
        <time>2025-05-28T17:38:18.000Z</time>
      </trkpt>
      <trkpt lat="47.77085" lon="6.98504">
        <ele>451.39793079657</ele>
        <time>2025-05-28T17:38:21.000Z</time>
      </trkpt>
      <trkpt lat="47.77083" lon="6.98496">
        <ele>451.81553040497</ele>
        <time>2025-05-28T17:38:25.000Z</time>
      </trkpt>
      <trkpt lat="47.77081" lon="6.98475">
        <ele>452.77224626797</ele>
        <time>2025-05-28T17:38:38.000Z</time>
      </trkpt>
      <trkpt lat="47.77078" lon="6.98469">
        <ele>452.98016065261</ele>
        <time>2025-05-28T17:38:41.000Z</time>
      </trkpt>
      <trkpt lat="47.77075" lon="6.98454">
        <ele>453.4391638379</ele>
        <time>2025-05-28T17:38:48.000Z</time>
      </trkpt>
      <trkpt lat="47.77074" lon="6.98449">
        <ele>453.60747705487</ele>
        <time>2025-05-28T17:38:52.000Z</time>
      </trkpt>
      <trkpt lat="47.77071" lon="6.98423">
        <ele>455.24035046483</ele>
        <time>2025-05-28T17:39:10.000Z</time>
      </trkpt>
      <trkpt lat="47.77067" lon="6.98419">
        <ele>455.58678652089</ele>
        <time>2025-05-28T17:39:12.000Z</time>
      </trkpt>
      <trkpt lat="47.77058" lon="6.98394">
        <ele>456.8535536005</ele>
        <time>2025-05-28T17:39:29.000Z</time>
      </trkpt>
      <trkpt lat="47.77051" lon="6.98386">
        <ele>457.23369415114</ele>
        <time>2025-05-28T17:39:39.000Z</time>
      </trkpt>
      <trkpt lat="47.77038" lon="6.9836">
        <ele>458.16062196904</ele>
        <time>2025-05-28T17:39:58.000Z</time>
      </trkpt>
      <trkpt lat="47.77036" lon="6.9835">
        <ele>458.61065145209</ele>
        <time>2025-05-28T17:40:06.000Z</time>
      </trkpt>
      <trkpt lat="47.77017" lon="6.98308">
        <ele>462.31702939894</ele>
        <time>2025-05-28T17:40:34.000Z</time>
      </trkpt>
      <trkpt lat="47.77012" lon="6.98293">
        <ele>463.21553307772</ele>
        <time>2025-05-28T17:40:45.000Z</time>
      </trkpt>
      <trkpt lat="47.76996" lon="6.98262">
        <ele>464.88437132472</ele>
        <time>2025-05-28T17:41:06.000Z</time>
      </trkpt>
      <trkpt lat="47.76993" lon="6.98248">
        <ele>465.08625463165</ele>
        <time>2025-05-28T17:41:17.000Z</time>
      </trkpt>
      <trkpt lat="47.76987" lon="6.98237">
        <ele>465.78108984605</ele>
        <time>2025-05-28T17:41:25.000Z</time>
      </trkpt>
      <trkpt lat="47.76978" lon="6.98227">
        <ele>467.1902188157</ele>
        <time>2025-05-28T17:41:36.000Z</time>
      </trkpt>
      <trkpt lat="47.76976" lon="6.98222">
        <ele>467.57185346209</ele>
        <time>2025-05-28T17:41:41.000Z</time>
      </trkpt>
      <trkpt lat="47.76972" lon="6.98215">
        <ele>468.47509763804</ele>
        <time>2025-05-28T17:41:45.000Z</time>
      </trkpt>
      <trkpt lat="47.76963" lon="6.98208">
        <ele>470.35278960858</ele>
        <time>2025-05-28T17:41:56.000Z</time>
      </trkpt>
      <trkpt lat="47.76958" lon="6.98206">
        <ele>471.14833944617</ele>
        <time>2025-05-28T17:42:01.000Z</time>
      </trkpt>
      <trkpt lat="47.76948" lon="6.98193">
        <ele>473.3347477364</ele>
        <time>2025-05-28T17:42:16.000Z</time>
      </trkpt>
      <trkpt lat="47.76947" lon="6.98178">
        <ele>474.36978315389</ele>
        <time>2025-05-28T17:42:41.000Z</time>
      </trkpt>
      <trkpt lat="47.76933" lon="6.98131">
        <ele>478.72397484529</ele>
        <time>2025-05-28T17:43:14.000Z</time>
      </trkpt>
      <trkpt lat="47.76924" lon="6.98109">
        <ele>481.89776784301</ele>
        <time>2025-05-28T17:43:30.000Z</time>
      </trkpt>
      <trkpt lat="47.76923" lon="6.98102">
        <ele>482.65637931035</ele>
        <time>2025-05-28T17:43:33.000Z</time>
      </trkpt>
      <trkpt lat="47.76914" lon="6.98081">
        <ele>488.58445615147</ele>
        <time>2025-05-28T17:43:49.000Z</time>
      </trkpt>
      <trkpt lat="47.76908" lon="6.98055">
        <ele>494.01460657963</ele>
        <time>2025-05-28T17:44:05.000Z</time>
      </trkpt>
      <trkpt lat="47.76902" lon="6.98041">
        <ele>498.28794324729</ele>
        <time>2025-05-28T17:44:16.000Z</time>
      </trkpt>
      <trkpt lat="47.76901" lon="6.98032">
        <ele>499.36840829989</ele>
        <time>2025-05-28T17:44:23.000Z</time>
      </trkpt>
      <trkpt lat="47.76901" lon="6.98026">
        <ele>500.11520221995</ele>
        <time>2025-05-28T17:44:26.000Z</time>
      </trkpt>
      <trkpt lat="47.76894" lon="6.98009">
        <ele>504.31140217874</ele>
        <time>2025-05-28T17:44:49.000Z</time>
      </trkpt>
      <trkpt lat="47.76882" lon="6.98006">
        <ele>509.81591594229</ele>
        <time>2025-05-28T17:45:10.000Z</time>
      </trkpt>
      <trkpt lat="47.7688" lon="6.97996">
        <ele>511.56262224892</ele>
        <time>2025-05-28T17:45:20.000Z</time>
      </trkpt>
      <trkpt lat="47.76881" lon="6.97985">
        <ele>512.17521247631</ele>
        <time>2025-05-28T17:45:26.000Z</time>
      </trkpt>
      <trkpt lat="47.76881" lon="6.97971">
        <ele>513.43914306196</ele>
        <time>2025-05-28T17:45:33.000Z</time>
      </trkpt>
      <trkpt lat="47.76871" lon="6.9796">
        <ele>517.60321541634</ele>
        <time>2025-05-28T17:45:58.000Z</time>
      </trkpt>
      <trkpt lat="47.76871" lon="6.97942">
        <ele>519.36947742638</ele>
        <time>2025-05-28T17:46:14.000Z</time>
      </trkpt>
      <trkpt lat="47.76865" lon="6.97931">
        <ele>522.1237279909</ele>
        <time>2025-05-28T17:46:23.000Z</time>
      </trkpt>
      <trkpt lat="47.7686" lon="6.97921">
        <ele>524.48189345728</ele>
        <time>2025-05-28T17:46:33.000Z</time>
      </trkpt>
      <trkpt lat="47.76847" lon="6.97892">
        <ele>530.20231870821</ele>
        <time>2025-05-28T17:47:07.000Z</time>
      </trkpt>
      <trkpt lat="47.76834" lon="6.9784">
        <ele>534.98715943354</ele>
        <time>2025-05-28T17:47:36.000Z</time>
      </trkpt>
      <trkpt lat="47.76829" lon="6.9782">
        <ele>537.11464925733</ele>
        <time>2025-05-28T17:47:53.000Z</time>
      </trkpt>
      <trkpt lat="47.76827" lon="6.97806">
        <ele>537.83659813015</ele>
        <time>2025-05-28T17:48:04.000Z</time>
      </trkpt>
      <trkpt lat="47.76818" lon="6.97797">
        <ele>541.97866850577</ele>
        <time>2025-05-28T17:48:14.000Z</time>
      </trkpt>
      <trkpt lat="47.76808" lon="6.97784">
        <ele>546.8060078925</ele>
        <time>2025-05-28T17:48:35.000Z</time>
      </trkpt>
      <trkpt lat="47.76806" lon="6.97771">
        <ele>547.33049964118</ele>
        <time>2025-05-28T17:48:46.000Z</time>
      </trkpt>
      <trkpt lat="47.76799" lon="6.97752">
        <ele>549.36881797554</ele>
        <time>2025-05-28T17:48:58.000Z</time>
      </trkpt>
      <trkpt lat="47.76798" lon="6.97742">
        <ele>549.27254149926</ele>
        <time>2025-05-28T17:49:09.000Z</time>
      </trkpt>
      <trkpt lat="47.76784" lon="6.97726">
        <ele>553.09293450295</ele>
        <time>2025-05-28T17:49:26.000Z</time>
      </trkpt>
      <trkpt lat="47.76772" lon="6.97706">
        <ele>555.75900665117</ele>
        <time>2025-05-28T17:49:49.000Z</time>
      </trkpt>
      <trkpt lat="47.76767" lon="6.97691">
        <ele>556.32462326546</ele>
        <time>2025-05-28T17:50:05.000Z</time>
      </trkpt>
      <trkpt lat="47.76749" lon="6.9767">
        <ele>562.34435639922</ele>
        <time>2025-05-28T17:50:24.000Z</time>
      </trkpt>
      <trkpt lat="47.76744" lon="6.97655">
        <ele>564.02758464204</ele>
        <time>2025-05-28T17:50:28.000Z</time>
      </trkpt>
      <trkpt lat="47.76737" lon="6.97626">
        <ele>566.64894900328</ele>
        <time>2025-05-28T17:50:46.000Z</time>
      </trkpt>
      <trkpt lat="47.76731" lon="6.97613">
        <ele>568.96292765087</ele>
        <time>2025-05-28T17:50:55.000Z</time>
      </trkpt>
      <trkpt lat="47.76723" lon="6.97594">
        <ele>572.87905880063</ele>
        <time>2025-05-28T17:51:15.000Z</time>
      </trkpt>
      <trkpt lat="47.76716" lon="6.97572">
        <ele>578.43712736229</ele>
        <time>2025-05-28T17:51:27.000Z</time>
      </trkpt>
      <trkpt lat="47.76718" lon="6.97547">
        <ele>583.07745453385</ele>
        <time>2025-05-28T17:51:43.000Z</time>
      </trkpt>
      <trkpt lat="47.76739" lon="6.97537">
        <ele>579.22079644486</ele>
        <time>2025-05-28T17:51:55.000Z</time>
      </trkpt>
      <trkpt lat="47.76744" lon="6.97531">
        <ele>579.21688918376</ele>
        <time>2025-05-28T17:52:03.000Z</time>
      </trkpt>
      <trkpt lat="47.76752" lon="6.97518">
        <ele>579.79937272263</ele>
        <time>2025-05-28T17:52:16.000Z</time>
      </trkpt>
      <trkpt lat="47.76761" lon="6.97509">
        <ele>579.46868971365</ele>
        <time>2025-05-28T17:52:28.000Z</time>
      </trkpt>
      <trkpt lat="47.76766" lon="6.97489">
        <ele>582.07420785774</ele>
        <time>2025-05-28T17:52:48.000Z</time>
      </trkpt>
      <trkpt lat="47.7677" lon="6.9744">
        <ele>588.56993945267</ele>
        <time>2025-05-28T17:53:14.000Z</time>
      </trkpt>
      <trkpt lat="47.76779" lon="6.97383">
        <ele>592.0498953246</ele>
        <time>2025-05-28T17:53:51.000Z</time>
      </trkpt>
      <trkpt lat="47.76777" lon="6.97367">
        <ele>594.16317290189</ele>
        <time>2025-05-28T17:53:58.000Z</time>
      </trkpt>
      <trkpt lat="47.76786" lon="6.97337">
        <ele>593.2015911345</ele>
        <time>2025-05-28T17:54:23.000Z</time>
      </trkpt>
      <trkpt lat="47.7679" lon="6.97324">
        <ele>592.32311578109</ele>
        <time>2025-05-28T17:54:34.000Z</time>
      </trkpt>
      <trkpt lat="47.76782" lon="6.97313">
        <ele>597.0639871149</ele>
        <time>2025-05-28T17:54:44.000Z</time>
      </trkpt>
      <trkpt lat="47.7677" lon="6.97267">
        <ele>605.51025424877</ele>
        <time>2025-05-28T17:55:11.000Z</time>
      </trkpt>
      <trkpt lat="47.76773" lon="6.9724">
        <ele>604.66733186065</ele>
        <time>2025-05-28T17:55:28.000Z</time>
      </trkpt>
      <trkpt lat="47.76771" lon="6.97218">
        <ele>606.60976682555</ele>
        <time>2025-05-28T17:55:46.000Z</time>
      </trkpt>
      <trkpt lat="47.76767" lon="6.97212">
        <ele>608.88788339421</ele>
        <time>2025-05-28T17:55:52.000Z</time>
      </trkpt>
      <trkpt lat="47.76768" lon="6.97196">
        <ele>608.83255214758</ele>
        <time>2025-05-28T17:56:07.000Z</time>
      </trkpt>
      <trkpt lat="47.76768" lon="6.97184">
        <ele>609.60465670263</ele>
        <time>2025-05-28T17:56:12.000Z</time>
      </trkpt>
      <trkpt lat="47.76766" lon="6.97172">
        <ele>610.93509295564</ele>
        <time>2025-05-28T17:56:25.000Z</time>
      </trkpt>
      <trkpt lat="47.76763" lon="6.97153">
        <ele>613.26604318696</ele>
        <time>2025-05-28T17:56:36.000Z</time>
      </trkpt>
      <trkpt lat="47.76761" lon="6.97128">
        <ele>614.20286208671</ele>
        <time>2025-05-28T17:56:53.000Z</time>
      </trkpt>
      <trkpt lat="47.76753" lon="6.97119">
        <ele>618.19637689116</ele>
        <time>2025-05-28T17:57:00.000Z</time>
      </trkpt>
      <trkpt lat="47.76757" lon="6.97099">
        <ele>615.90349498787</ele>
        <time>2025-05-28T17:57:14.000Z</time>
      </trkpt>
      <trkpt lat="47.76757" lon="6.97086">
        <ele>616.26651430932</ele>
        <time>2025-05-28T17:57:20.000Z</time>
      </trkpt>
      <trkpt lat="47.76753" lon="6.97069">
        <ele>618.903885538</ele>
        <time>2025-05-28T17:57:32.000Z</time>
      </trkpt>
      <trkpt lat="47.7676" lon="6.97058">
        <ele>615.21225114334</ele>
        <time>2025-05-28T17:57:39.000Z</time>
      </trkpt>
      <trkpt lat="47.76744" lon="6.97032">
        <ele>621.85480827893</ele>
        <time>2025-05-28T17:58:09.000Z</time>
      </trkpt>
      <trkpt lat="47.76741" lon="6.97023">
        <ele>623.06092940978</ele>
        <time>2025-05-28T17:58:16.000Z</time>
      </trkpt>
      <trkpt lat="47.76741" lon="6.97013">
        <ele>622.71334030529</ele>
        <time>2025-05-28T17:58:21.000Z</time>
      </trkpt>
      <trkpt lat="47.7674" lon="6.97001">
        <ele>622.9793145604</ele>
        <time>2025-05-28T17:58:33.000Z</time>
      </trkpt>
      <trkpt lat="47.76737" lon="6.96984">
        <ele>623.92226167391</ele>
        <time>2025-05-28T17:58:42.000Z</time>
      </trkpt>
      <trkpt lat="47.7673" lon="6.96977">
        <ele>626.31586770369</ele>
        <time>2025-05-28T17:58:48.000Z</time>
      </trkpt>
      <trkpt lat="47.76728" lon="6.96965">
        <ele>627.05276472326</ele>
        <time>2025-05-28T17:58:55.000Z</time>
      </trkpt>
      <trkpt lat="47.7672" lon="6.96953">
        <ele>630.0009536569</ele>
        <time>2025-05-28T17:59:02.000Z</time>
      </trkpt>
      <trkpt lat="47.76724" lon="6.9694">
        <ele>628.5899788667</ele>
        <time>2025-05-28T17:59:09.000Z</time>
      </trkpt>
      <trkpt lat="47.76703" lon="6.96908">
        <ele>637.88895925338</ele>
        <time>2025-05-28T17:59:38.000Z</time>
      </trkpt>
      <trkpt lat="47.76698" lon="6.96897">
        <ele>639.91605229534</ele>
        <time>2025-05-28T17:59:49.000Z</time>
      </trkpt>
      <trkpt lat="47.76686" lon="6.96875">
        <ele>644.98601304082</ele>
        <time>2025-05-28T18:00:09.000Z</time>
      </trkpt>
      <trkpt lat="47.76677" lon="6.96858">
        <ele>649.18389386044</ele>
        <time>2025-05-28T18:00:24.000Z</time>
      </trkpt>
      <trkpt lat="47.76673" lon="6.96838">
        <ele>651.68262179328</ele>
        <time>2025-05-28T18:00:35.000Z</time>
      </trkpt>
      <trkpt lat="47.76681" lon="6.96831">
        <ele>649.01781046891</ele>
        <time>2025-05-28T18:00:48.000Z</time>
      </trkpt>
      <trkpt lat="47.76683" lon="6.96825">
        <ele>649.13109129847</ele>
        <time>2025-05-28T18:00:52.000Z</time>
      </trkpt>
      <trkpt lat="47.7669" lon="6.9682">
        <ele>646.98607294723</ele>
        <time>2025-05-28T18:00:58.000Z</time>
      </trkpt>
      <trkpt lat="47.76698" lon="6.96808">
        <ele>645.47389492649</ele>
        <time>2025-05-28T18:01:07.000Z</time>
      </trkpt>
      <trkpt lat="47.76699" lon="6.96797">
        <ele>646.45251399526</ele>
        <time>2025-05-28T18:01:13.000Z</time>
      </trkpt>
      <trkpt lat="47.76693" lon="6.96786">
        <ele>649.60842887145</ele>
        <time>2025-05-28T18:01:21.000Z</time>
      </trkpt>
      <trkpt lat="47.7669" lon="6.96769">
        <ele>651.97004599423</ele>
        <time>2025-05-28T18:01:37.000Z</time>
      </trkpt>
      <trkpt lat="47.76694" lon="6.96756">
        <ele>650.73200973538</ele>
        <time>2025-05-28T18:01:47.000Z</time>
      </trkpt>
      <trkpt lat="47.76691" lon="6.96743">
        <ele>651.88083175398</ele>
        <time>2025-05-28T18:01:56.000Z</time>
      </trkpt>
      <trkpt lat="47.76683" lon="6.96736">
        <ele>655.21120491353</ele>
        <time>2025-05-28T18:02:02.000Z</time>
      </trkpt>
      <trkpt lat="47.76682" lon="6.96724">
        <ele>655.38938055974</ele>
        <time>2025-05-28T18:02:06.000Z</time>
      </trkpt>
      <trkpt lat="47.76679" lon="6.96713">
        <ele>656.29890193171</ele>
        <time>2025-05-28T18:02:16.000Z</time>
      </trkpt>
      <trkpt lat="47.76671" lon="6.96699">
        <ele>658.55410997421</ele>
        <time>2025-05-28T18:02:35.000Z</time>
      </trkpt>
      <trkpt lat="47.76666" lon="6.96687">
        <ele>659.43350294174</ele>
        <time>2025-05-28T18:02:46.000Z</time>
      </trkpt>
      <trkpt lat="47.76653" lon="6.96674">
        <ele>663.76245531408</ele>
        <time>2025-05-28T18:03:07.000Z</time>
      </trkpt>
      <trkpt lat="47.76631" lon="6.9663">
        <ele>668.27979560341</ele>
        <time>2025-05-28T18:03:36.000Z</time>
      </trkpt>
      <trkpt lat="47.76617" lon="6.96615">
        <ele>671.9591852207</ele>
        <time>2025-05-28T18:04:02.000Z</time>
      </trkpt>
      <trkpt lat="47.7661" lon="6.96603">
        <ele>673.18317156248</ele>
        <time>2025-05-28T18:04:07.000Z</time>
      </trkpt>
      <trkpt lat="47.76599" lon="6.96596">
        <ele>675.83589107418</ele>
        <time>2025-05-28T18:04:15.000Z</time>
      </trkpt>
      <trkpt lat="47.76594" lon="6.96573">
        <ele>674.95970100504</ele>
        <time>2025-05-28T18:04:32.000Z</time>
      </trkpt>
      <trkpt lat="47.76589" lon="6.96563">
        <ele>675.82090607542</ele>
        <time>2025-05-28T18:04:39.000Z</time>
      </trkpt>
      <trkpt lat="47.76585" lon="6.9653">
        <ele>676.33116633766</ele>
        <time>2025-05-28T18:05:01.000Z</time>
      </trkpt>
      <trkpt lat="47.76574" lon="6.96514">
        <ele>681.48950903813</ele>
        <time>2025-05-28T18:05:18.000Z</time>
      </trkpt>
      <trkpt lat="47.76568" lon="6.96485">
        <ele>685.8053281577</ele>
        <time>2025-05-28T18:05:36.000Z</time>
      </trkpt>
      <trkpt lat="47.76586" lon="6.96467">
        <ele>681.05906627974</ele>
        <time>2025-05-28T18:05:50.000Z</time>
      </trkpt>
      <trkpt lat="47.76594" lon="6.96447">
        <ele>680.59148582639</ele>
        <time>2025-05-28T18:06:02.000Z</time>
      </trkpt>
      <trkpt lat="47.76593" lon="6.96426">
        <ele>682.84296613925</ele>
        <time>2025-05-28T18:06:16.000Z</time>
      </trkpt>
      <trkpt lat="47.76589" lon="6.96413">
        <ele>685.06179753225</ele>
        <time>2025-05-28T18:06:28.000Z</time>
      </trkpt>
      <trkpt lat="47.7658" lon="6.96386">
        <ele>689.48403265469</ele>
        <time>2025-05-28T18:06:46.000Z</time>
      </trkpt>
      <trkpt lat="47.76576" lon="6.96381">
        <ele>691.33937017663</ele>
        <time>2025-05-28T18:06:50.000Z</time>
      </trkpt>
      <trkpt lat="47.76573" lon="6.96372">
        <ele>692.571118358</ele>
        <time>2025-05-28T18:07:00.000Z</time>
      </trkpt>
      <trkpt lat="47.76566" lon="6.96325">
        <ele>696.39199144407</ele>
        <time>2025-05-28T18:07:34.000Z</time>
      </trkpt>
      <trkpt lat="47.76561" lon="6.96303">
        <ele>698.0379700128</ele>
        <time>2025-05-28T18:07:47.000Z</time>
      </trkpt>
      <trkpt lat="47.76558" lon="6.96293">
        <ele>699.10910915546</ele>
        <time>2025-05-28T18:07:52.000Z</time>
      </trkpt>
      <trkpt lat="47.76556" lon="6.96252">
        <ele>700.41804371438</ele>
        <time>2025-05-28T18:08:20.000Z</time>
      </trkpt>
      <trkpt lat="47.76564" lon="6.96221">
        <ele>699.48350577084</ele>
        <time>2025-05-28T18:08:44.000Z</time>
      </trkpt>
      <trkpt lat="47.76565" lon="6.96203">
        <ele>700.49734290912</ele>
        <time>2025-05-28T18:08:51.000Z</time>
      </trkpt>
      <trkpt lat="47.7654" lon="6.96167">
        <ele>714.40921415994</ele>
        <time>2025-05-28T18:09:24.000Z</time>
      </trkpt>
      <trkpt lat="47.76544" lon="6.96145">
        <ele>715.6570241462</ele>
        <time>2025-05-28T18:09:39.000Z</time>
      </trkpt>
      <trkpt lat="47.76558" lon="6.96111">
        <ele>716.07256674739</ele>
        <time>2025-05-28T18:10:01.000Z</time>
      </trkpt>
      <trkpt lat="47.76568" lon="6.96094">
        <ele>715.12407945163</ele>
        <time>2025-05-28T18:10:09.000Z</time>
      </trkpt>
      <trkpt lat="47.76575" lon="6.96084">
        <ele>714.43144474438</ele>
        <time>2025-05-28T18:10:28.000Z</time>
      </trkpt>
      <trkpt lat="47.76601" lon="6.96059">
        <ele>713.7016906471</ele>
        <time>2025-05-28T18:10:48.000Z</time>
      </trkpt>
      <trkpt lat="47.76611" lon="6.96028">
        <ele>721.79949293784</ele>
        <time>2025-05-28T18:11:21.000Z</time>
      </trkpt>
      <trkpt lat="47.76605" lon="6.96013">
        <ele>727.15772790867</ele>
        <time>2025-05-28T18:11:28.000Z</time>
      </trkpt>
      <trkpt lat="47.76632" lon="6.96018">
        <ele>724.43286483931</ele>
        <time>2025-05-28T18:12:02.000Z</time>
      </trkpt>
      <trkpt lat="47.7664" lon="6.96021">
        <ele>723.51239909623</ele>
        <time>2025-05-28T18:12:06.000Z</time>
      </trkpt>
      <trkpt lat="47.76653" lon="6.96011">
        <ele>727.80916500656</ele>
        <time>2025-05-28T18:12:21.000Z</time>
      </trkpt>
      <trkpt lat="47.7666" lon="6.96006">
        <ele>730.76414487511</ele>
        <time>2025-05-28T18:12:27.000Z</time>
      </trkpt>
      <trkpt lat="47.7668" lon="6.96012">
        <ele>731.69623691011</ele>
        <time>2025-05-28T18:12:43.000Z</time>
      </trkpt>
      <trkpt lat="47.76686" lon="6.96011">
        <ele>732.93317806139</ele>
        <time>2025-05-28T18:12:48.000Z</time>
      </trkpt>
      <trkpt lat="47.76698" lon="6.9603">
        <ele>728.05350693852</ele>
        <time>2025-05-28T18:13:06.000Z</time>
      </trkpt>
      <trkpt lat="47.76709" lon="6.96035">
        <ele>726.84430935269</ele>
        <time>2025-05-28T18:13:23.000Z</time>
      </trkpt>
      <trkpt lat="47.76714" lon="6.96037">
        <ele>726.42747247386</ele>
        <time>2025-05-28T18:13:28.000Z</time>
      </trkpt>
      <trkpt lat="47.76727" lon="6.96039">
        <ele>726.33042675195</ele>
        <time>2025-05-28T18:13:39.000Z</time>
      </trkpt>
      <trkpt lat="47.76735" lon="6.96043">
        <ele>724.87131941048</ele>
        <time>2025-05-28T18:13:44.000Z</time>
      </trkpt>
      <trkpt lat="47.76744" lon="6.96049">
        <ele>722.95511962493</ele>
        <time>2025-05-28T18:13:46.000Z</time>
      </trkpt>
      <trkpt lat="47.7676" lon="6.96046">
        <ele>725.15933231157</ele>
        <time>2025-05-28T18:14:05.000Z</time>
      </trkpt>
      <trkpt lat="47.76768" lon="6.96048">
        <ele>726.05197827081</ele>
        <time>2025-05-28T18:14:14.000Z</time>
      </trkpt>
      <trkpt lat="47.76776" lon="6.96051">
        <ele>726.22028315692</ele>
        <time>2025-05-28T18:14:20.000Z</time>
      </trkpt>
      <trkpt lat="47.76794" lon="6.96069">
        <ele>723.88615568746</ele>
        <time>2025-05-28T18:14:38.000Z</time>
      </trkpt>
      <trkpt lat="47.768" lon="6.96077">
        <ele>722.35964101991</ele>
        <time>2025-05-28T18:14:49.000Z</time>
      </trkpt>
      <trkpt lat="47.76804" lon="6.96083">
        <ele>721.2979465666</ele>
        <time>2025-05-28T18:15:08.000Z</time>
      </trkpt>
      <trkpt lat="47.76813" lon="6.96091">
        <ele>721.00919308784</ele>
        <time>2025-05-28T18:15:25.000Z</time>
      </trkpt>
      <trkpt lat="47.7682" lon="6.96101">
        <ele>720.07631652127</ele>
        <time>2025-05-28T18:15:29.000Z</time>
      </trkpt>
      <trkpt lat="47.76834" lon="6.96125">
        <ele>719.1920470068</ele>
        <time>2025-05-28T18:15:38.000Z</time>
      </trkpt>
      <trkpt lat="47.76851" lon="6.96131">
        <ele>723.40746287098</ele>
        <time>2025-05-28T18:15:50.000Z</time>
      </trkpt>
      <trkpt lat="47.76858" lon="6.96134">
        <ele>724.8240424935</ele>
        <time>2025-05-28T18:15:57.000Z</time>
      </trkpt>
      <trkpt lat="47.76869" lon="6.96145">
        <ele>725.8390344339</ele>
        <time>2025-05-28T18:16:12.000Z</time>
      </trkpt>
      <trkpt lat="47.76877" lon="6.96148">
        <ele>726.9679410113</ele>
        <time>2025-05-28T18:16:17.000Z</time>
      </trkpt>
      <trkpt lat="47.76914" lon="6.96137">
        <ele>732.38265019237</ele>
        <time>2025-05-28T18:16:47.000Z</time>
      </trkpt>
      <trkpt lat="47.76919" lon="6.96136">
        <ele>732.45919175433</ele>
        <time>2025-05-28T18:16:52.000Z</time>
      </trkpt>
      <trkpt lat="47.76936" lon="6.96123">
        <ele>732.20912045674</ele>
        <time>2025-05-28T18:17:08.000Z</time>
      </trkpt>
      <trkpt lat="47.76941" lon="6.96117">
        <ele>731.99917313938</ele>
        <time>2025-05-28T18:17:11.000Z</time>
      </trkpt>
      <trkpt lat="47.7695" lon="6.96102">
        <ele>732.09735433451</ele>
        <time>2025-05-28T18:17:22.000Z</time>
      </trkpt>
      <trkpt lat="47.76952" lon="6.96095">
        <ele>732.47824763073</ele>
        <time>2025-05-28T18:17:29.000Z</time>
      </trkpt>
      <trkpt lat="47.76955" lon="6.96087">
        <ele>732.52735670943</ele>
        <time>2025-05-28T18:17:34.000Z</time>
      </trkpt>
      <trkpt lat="47.76962" lon="6.9606">
        <ele>732.65959943999</ele>
        <time>2025-05-28T18:17:48.000Z</time>
      </trkpt>
      <trkpt lat="47.76967" lon="6.96036">
        <ele>732.76389755895</ele>
        <time>2025-05-28T18:18:03.000Z</time>
      </trkpt>
      <trkpt lat="47.76971" lon="6.96003">
        <ele>732.82743867943</ele>
        <time>2025-05-28T18:18:22.000Z</time>
      </trkpt>
      <trkpt lat="47.76974" lon="6.95952">
        <ele>732.69961454164</ele>
        <time>2025-05-28T18:18:49.000Z</time>
      </trkpt>
      <trkpt lat="47.76971" lon="6.95939">
        <ele>734.03777299408</ele>
        <time>2025-05-28T18:18:56.000Z</time>
      </trkpt>
      <trkpt lat="47.7696" lon="6.95926">
        <ele>738.817768785</ele>
        <time>2025-05-28T18:19:03.000Z</time>
      </trkpt>
      <trkpt lat="47.76958" lon="6.95907">
        <ele>740.19751827153</ele>
        <time>2025-05-28T18:19:17.000Z</time>
      </trkpt>
      <trkpt lat="47.7696" lon="6.95897">
        <ele>739.26289847809</ele>
        <time>2025-05-28T18:19:20.000Z</time>
      </trkpt>
      <trkpt lat="47.76963" lon="6.95889">
        <ele>738.00096367769</ele>
        <time>2025-05-28T18:19:24.000Z</time>
      </trkpt>
      <trkpt lat="47.76963" lon="6.95882">
        <ele>737.92343619362</ele>
        <time>2025-05-28T18:19:28.000Z</time>
      </trkpt>
      <trkpt lat="47.7696" lon="6.95867">
        <ele>739.10761093474</ele>
        <time>2025-05-28T18:19:37.000Z</time>
      </trkpt>
      <trkpt lat="47.76956" lon="6.95845">
        <ele>739.30455238623</ele>
        <time>2025-05-28T18:19:50.000Z</time>
      </trkpt>
      <trkpt lat="47.76955" lon="6.95836">
        <ele>739.07798866471</ele>
        <time>2025-05-28T18:19:55.000Z</time>
      </trkpt>
      <trkpt lat="47.76955" lon="6.9583">
        <ele>739.09928256311</ele>
        <time>2025-05-28T18:19:58.000Z</time>
      </trkpt>
      <trkpt lat="47.76953" lon="6.95824">
        <ele>740.10390034365</ele>
        <time>2025-05-28T18:20:02.000Z</time>
      </trkpt>
      <trkpt lat="47.76951" lon="6.95815">
        <ele>740.58993152161</ele>
        <time>2025-05-28T18:20:09.000Z</time>
      </trkpt>
      <trkpt lat="47.76951" lon="6.95803">
        <ele>740.27519169894</ele>
        <time>2025-05-28T18:20:14.000Z</time>
      </trkpt>
      <trkpt lat="47.76948" lon="6.95791">
        <ele>741.83985197004</ele>
        <time>2025-05-28T18:20:24.000Z</time>
      </trkpt>
      <trkpt lat="47.76951" lon="6.9578">
        <ele>740.41266068537</ele>
        <time>2025-05-28T18:20:28.000Z</time>
      </trkpt>
      <trkpt lat="47.76952" lon="6.95775">
        <ele>739.98202651719</ele>
        <time>2025-05-28T18:20:32.000Z</time>
      </trkpt>
      <trkpt lat="47.76951" lon="6.95766">
        <ele>740.49215494115</ele>
        <time>2025-05-28T18:20:36.000Z</time>
      </trkpt>
      <trkpt lat="47.7695" lon="6.9576">
        <ele>740.85900810932</ele>
        <time>2025-05-28T18:20:39.000Z</time>
      </trkpt>
      <trkpt lat="47.76949" lon="6.95751">
        <ele>740.85508691234</ele>
        <time>2025-05-28T18:20:44.000Z</time>
      </trkpt>
      <trkpt lat="47.76948" lon="6.9574">
        <ele>741.31481331335</ele>
        <time>2025-05-28T18:20:53.000Z</time>
      </trkpt>
      <trkpt lat="47.76947" lon="6.95734">
        <ele>741.33322341308</ele>
        <time>2025-05-28T18:20:58.000Z</time>
      </trkpt>
      <trkpt lat="47.76945" lon="6.95724">
        <ele>741.79821558828</ele>
        <time>2025-05-28T18:21:04.000Z</time>
      </trkpt>
      <trkpt lat="47.76944" lon="6.95709">
        <ele>741.95162639911</ele>
        <time>2025-05-28T18:21:12.000Z</time>
      </trkpt>
      <trkpt lat="47.76935" lon="6.95655">
        <ele>739.31625756108</ele>
        <time>2025-05-28T18:21:45.000Z</time>
      </trkpt>
      <trkpt lat="47.76934" lon="6.95648">
        <ele>738.53185907178</ele>
        <time>2025-05-28T18:21:49.000Z</time>
      </trkpt>
      <trkpt lat="47.76932" lon="6.95637">
        <ele>738.74884916815</ele>
        <time>2025-05-28T18:21:56.000Z</time>
      </trkpt>
      <trkpt lat="47.7693" lon="6.95629">
        <ele>738.92988562243</ele>
        <time>2025-05-28T18:22:00.000Z</time>
      </trkpt>
      <trkpt lat="47.76926" lon="6.95608">
        <ele>739.81342838095</ele>
        <time>2025-05-28T18:22:14.000Z</time>
      </trkpt>
      <trkpt lat="47.76921" lon="6.95598">
        <ele>742.61605718709</ele>
        <time>2025-05-28T18:22:22.000Z</time>
      </trkpt>
      <trkpt lat="47.76913" lon="6.95577">
        <ele>746.6130024412</ele>
        <time>2025-05-28T18:22:33.000Z</time>
      </trkpt>
      <trkpt lat="47.76908" lon="6.95564">
        <ele>748.40159876361</ele>
        <time>2025-05-28T18:22:38.000Z</time>
      </trkpt>
      <trkpt lat="47.76902" lon="6.95552">
        <ele>750.81246739309</ele>
        <time>2025-05-28T18:22:44.000Z</time>
      </trkpt>
      <trkpt lat="47.76901" lon="6.95539">
        <ele>750.31601495043</ele>
        <time>2025-05-28T18:22:56.000Z</time>
      </trkpt>
      <trkpt lat="47.76895" lon="6.95515">
        <ele>751.06127183924</ele>
        <time>2025-05-28T18:23:07.000Z</time>
      </trkpt>
      <trkpt lat="47.76894" lon="6.95489">
        <ele>749.24670970451</ele>
        <time>2025-05-28T18:23:21.000Z</time>
      </trkpt>
      <trkpt lat="47.76891" lon="6.9548">
        <ele>749.80795101724</ele>
        <time>2025-05-28T18:23:25.000Z</time>
      </trkpt>
      <trkpt lat="47.76895" lon="6.95463">
        <ele>746.49097371465</ele>
        <time>2025-05-28T18:23:34.000Z</time>
      </trkpt>
      <trkpt lat="47.76888" lon="6.95447">
        <ele>748.9637195413</ele>
        <time>2025-05-28T18:23:51.000Z</time>
      </trkpt>
      <trkpt lat="47.76888" lon="6.95428">
        <ele>746.72021899505</ele>
        <time>2025-05-28T18:24:02.000Z</time>
      </trkpt>
      <trkpt lat="47.76881" lon="6.95426">
        <ele>750.23657400915</ele>
        <time>2025-05-28T18:24:05.000Z</time>
      </trkpt>
      <trkpt lat="47.76867" lon="6.95406">
        <ele>753.8460164237</ele>
        <time>2025-05-28T18:24:15.000Z</time>
      </trkpt>
      <trkpt lat="47.76867" lon="6.95399">
        <ele>752.50253198181</ele>
        <time>2025-05-28T18:24:21.000Z</time>
      </trkpt>
      <trkpt lat="47.7686" lon="6.95386">
        <ele>753.80105673776</ele>
        <time>2025-05-28T18:24:28.000Z</time>
      </trkpt>
      <trkpt lat="47.76852" lon="6.95374">
        <ele>755.35167259259</ele>
        <time>2025-05-28T18:24:40.000Z</time>
      </trkpt>
      <trkpt lat="47.76848" lon="6.95368">
        <ele>756.06545163117</ele>
        <time>2025-05-28T18:24:46.000Z</time>
      </trkpt>
      <trkpt lat="47.76844" lon="6.95361">
        <ele>756.70109697759</ele>
        <time>2025-05-28T18:24:52.000Z</time>
      </trkpt>
      <trkpt lat="47.76837" lon="6.95354">
        <ele>758.72371166483</ele>
        <time>2025-05-28T18:24:59.000Z</time>
      </trkpt>
      <trkpt lat="47.76823" lon="6.95343">
        <ele>762.97750456305</ele>
        <time>2025-05-28T18:25:13.000Z</time>
      </trkpt>
      <trkpt lat="47.76817" lon="6.95326">
        <ele>763.08373909413</ele>
        <time>2025-05-28T18:25:22.000Z</time>
      </trkpt>
      <trkpt lat="47.76816" lon="6.95318">
        <ele>762.34147503991</ele>
        <time>2025-05-28T18:25:26.000Z</time>
      </trkpt>
      <trkpt lat="47.76813" lon="6.95304">
        <ele>762.10623916239</ele>
        <time>2025-05-28T18:25:37.000Z</time>
      </trkpt>
      <trkpt lat="47.76814" lon="6.95284">
        <ele>760.58202670235</ele>
        <time>2025-05-28T18:25:42.000Z</time>
      </trkpt>
      <trkpt lat="47.76811" lon="6.95274">
        <ele>761.62256057295</ele>
        <time>2025-05-28T18:25:49.000Z</time>
      </trkpt>
      <trkpt lat="47.7682" lon="6.95244">
        <ele>759.05897586566</ele>
        <time>2025-05-28T18:26:06.000Z</time>
      </trkpt>
      <trkpt lat="47.76833" lon="6.95224">
        <ele>759.66159781599</ele>
        <time>2025-05-28T18:26:32.000Z</time>
      </trkpt>
      <trkpt lat="47.76853" lon="6.95223">
        <ele>756.95117464978</ele>
        <time>2025-05-28T18:26:46.000Z</time>
      </trkpt>
      <trkpt lat="47.76869" lon="6.95224">
        <ele>755.20908799737</ele>
        <time>2025-05-28T18:26:52.000Z</time>
      </trkpt>
      <trkpt lat="47.76892" lon="6.95216">
        <ele>757.15079202065</ele>
        <time>2025-05-28T18:27:08.000Z</time>
      </trkpt>
      <trkpt lat="47.76904" lon="6.95222">
        <ele>754.32647740156</ele>
        <time>2025-05-28T18:27:12.000Z</time>
      </trkpt>
      <trkpt lat="47.76926" lon="6.95216">
        <ele>755.83800526462</ele>
        <time>2025-05-28T18:27:30.000Z</time>
      </trkpt>
      <trkpt lat="47.76956" lon="6.95214">
        <ele>756.61461511156</ele>
        <time>2025-05-28T18:28:00.000Z</time>
      </trkpt>
      <trkpt lat="47.76963" lon="6.95215">
        <ele>756.16673083929</ele>
        <time>2025-05-28T18:28:10.000Z</time>
      </trkpt>
      <trkpt lat="47.7698" lon="6.95219">
        <ele>754.3951678928</ele>
        <time>2025-05-28T18:28:33.000Z</time>
      </trkpt>
      <trkpt lat="47.76988" lon="6.95216">
        <ele>754.69697431175</ele>
        <time>2025-05-28T18:28:42.000Z</time>
      </trkpt>
      <trkpt lat="47.77007" lon="6.9522">
        <ele>750.83906327721</ele>
        <time>2025-05-28T18:28:50.000Z</time>
      </trkpt>
      <trkpt lat="47.77019" lon="6.95219">
        <ele>748.9302552311</ele>
        <time>2025-05-28T18:29:04.000Z</time>
      </trkpt>
      <trkpt lat="47.77028" lon="6.9522">
        <ele>747.33804714956</ele>
        <time>2025-05-28T18:29:16.000Z</time>
      </trkpt>
      <trkpt lat="47.77038" lon="6.95215">
        <ele>746.40995314375</ele>
        <time>2025-05-28T18:29:27.000Z</time>
      </trkpt>
      <trkpt lat="47.77041" lon="6.95209">
        <ele>746.62935721725</ele>
        <time>2025-05-28T18:29:31.000Z</time>
      </trkpt>
      <trkpt lat="47.77043" lon="6.95203">
        <ele>747.01564443633</ele>
        <time>2025-05-28T18:29:35.000Z</time>
      </trkpt>
      <trkpt lat="47.77042" lon="6.95196">
        <ele>747.58547851067</ele>
        <time>2025-05-28T18:30:01.000Z</time>
      </trkpt>
      <trkpt lat="47.7704" lon="6.95184">
        <ele>748.65202867875</ele>
        <time>2025-05-28T18:30:36.000Z</time>
      </trkpt>
      <trkpt lat="47.77039" lon="6.95146">
        <ele>749.84313935983</ele>
        <time>2025-05-28T18:31:13.000Z</time>
      </trkpt>
      <trkpt lat="47.77039" lon="6.95137">
        <ele>749.67606958998</ele>
        <time>2025-05-28T18:31:25.000Z</time>
      </trkpt>
      <trkpt lat="47.77037" lon="6.95114">
        <ele>750.3909994326</ele>
        <time>2025-05-28T18:31:38.000Z</time>
      </trkpt>
      <trkpt lat="47.77037" lon="6.95106">
        <ele>750.60435500723</ele>
        <time>2025-05-28T18:31:46.000Z</time>
      </trkpt>
      <trkpt lat="47.77035" lon="6.95097">
        <ele>751.2063052241</ele>
        <time>2025-05-28T18:31:50.000Z</time>
      </trkpt>
      <trkpt lat="47.77037" lon="6.95091">
        <ele>750.69178398299</ele>
        <time>2025-05-28T18:31:57.000Z</time>
      </trkpt>
      <trkpt lat="47.77031" lon="6.95063">
        <ele>754.64508932959</ele>
        <time>2025-05-28T18:32:26.000Z</time>
      </trkpt>
      <trkpt lat="47.7703" lon="6.95056">
        <ele>755.93048518633</ele>
        <time>2025-05-28T18:32:31.000Z</time>
      </trkpt>
      <trkpt lat="47.77029" lon="6.9505">
        <ele>757.25132854426</ele>
        <time>2025-05-28T18:32:35.000Z</time>
      </trkpt>
      <trkpt lat="47.77029" lon="6.95035">
        <ele>758.4871657955</ele>
        <time>2025-05-28T18:32:44.000Z</time>
      </trkpt>
      <trkpt lat="47.77027" lon="6.95001">
        <ele>761.23552449351</ele>
        <time>2025-05-28T18:33:07.000Z</time>
      </trkpt>
      <trkpt lat="47.77026" lon="6.94994">
        <ele>762.21209594554</ele>
        <time>2025-05-28T18:33:11.000Z</time>
      </trkpt>
      <trkpt lat="47.77023" lon="6.94989">
        <ele>763.58066805382</ele>
        <time>2025-05-28T18:33:15.000Z</time>
      </trkpt>
      <trkpt lat="47.77022" lon="6.9498">
        <ele>764.41852128624</ele>
        <time>2025-05-28T18:33:20.000Z</time>
      </trkpt>
      <trkpt lat="47.7702" lon="6.94967">
        <ele>766.59937047325</ele>
        <time>2025-05-28T18:33:27.000Z</time>
      </trkpt>
      <trkpt lat="47.77019" lon="6.9496">
        <ele>767.70948766888</ele>
        <time>2025-05-28T18:33:31.000Z</time>
      </trkpt>
      <trkpt lat="47.77022" lon="6.94946">
        <ele>768.91854810935</ele>
        <time>2025-05-28T18:33:38.000Z</time>
      </trkpt>
      <trkpt lat="47.77025" lon="6.9494">
        <ele>769.33221217798</ele>
        <time>2025-05-28T18:33:40.000Z</time>
      </trkpt>
      <trkpt lat="47.7703" lon="6.94935">
        <ele>769.139683142</ele>
        <time>2025-05-28T18:33:46.000Z</time>
      </trkpt>
      <trkpt lat="47.77029" lon="6.94925">
        <ele>771.10927482303</ele>
        <time>2025-05-28T18:35:07.000Z</time>
      </trkpt>
      <trkpt lat="47.77054" lon="6.94918">
        <ele>767.55487201377</ele>
        <time>2025-05-28T18:35:26.000Z</time>
      </trkpt>
      <trkpt lat="47.77059" lon="6.94922">
        <ele>766.16243159076</ele>
        <time>2025-05-28T18:35:31.000Z</time>
      </trkpt>
      <trkpt lat="47.77066" lon="6.94923">
        <ele>764.89607687271</ele>
        <time>2025-05-28T18:35:35.000Z</time>
      </trkpt>
      <trkpt lat="47.77087" lon="6.94926">
        <ele>762.66545336717</ele>
        <time>2025-05-28T18:35:55.000Z</time>
      </trkpt>
      <trkpt lat="47.77091" lon="6.94929">
        <ele>761.51183570614</ele>
        <time>2025-05-28T18:36:09.000Z</time>
      </trkpt>
      <trkpt lat="47.77096" lon="6.94931">
        <ele>760.95416390658</ele>
        <time>2025-05-28T18:36:12.000Z</time>
      </trkpt>
      <trkpt lat="47.7712" lon="6.94949">
        <ele>757.00284341427</ele>
        <time>2025-05-28T18:36:33.000Z</time>
      </trkpt>
      <trkpt lat="47.77131" lon="6.9495">
        <ele>757.45232993141</ele>
        <time>2025-05-28T18:36:49.000Z</time>
      </trkpt>
      <trkpt lat="47.77137" lon="6.94954">
        <ele>756.91063222264</ele>
        <time>2025-05-28T18:37:01.000Z</time>
      </trkpt>
      <trkpt lat="47.77143" lon="6.94954">
        <ele>757.54341815469</ele>
        <time>2025-05-28T18:37:06.000Z</time>
      </trkpt>
      <trkpt lat="47.77146" lon="6.94959">
        <ele>756.98560209193</ele>
        <time>2025-05-28T18:37:09.000Z</time>
      </trkpt>
      <trkpt lat="47.77151" lon="6.94959">
        <ele>757.52602634397</ele>
        <time>2025-05-28T18:37:13.000Z</time>
      </trkpt>
      <trkpt lat="47.77156" lon="6.94964">
        <ele>756.92826767361</ele>
        <time>2025-05-28T18:37:17.000Z</time>
      </trkpt>
      <trkpt lat="47.7716" lon="6.94969">
        <ele>756.06972342797</ele>
        <time>2025-05-28T18:37:22.000Z</time>
      </trkpt>
      <trkpt lat="47.7717" lon="6.94977">
        <ele>755.27412121</ele>
        <time>2025-05-28T18:37:30.000Z</time>
      </trkpt>
      <trkpt lat="47.77173" lon="6.94982">
        <ele>754.39783795608</ele>
        <time>2025-05-28T18:37:34.000Z</time>
      </trkpt>
      <trkpt lat="47.77176" lon="6.94984">
        <ele>754.22923565775</ele>
        <time>2025-05-28T18:38:35.000Z</time>
      </trkpt>
      <trkpt lat="47.77181" lon="6.94986">
        <ele>754.2136222781</ele>
        <time>2025-05-28T18:38:39.000Z</time>
      </trkpt>
      <trkpt lat="47.77185" lon="6.9499">
        <ele>753.68921376297</ele>
        <time>2025-05-28T18:38:44.000Z</time>
      </trkpt>
      <trkpt lat="47.77189" lon="6.94993">
        <ele>753.68757077111</ele>
        <time>2025-05-28T18:38:48.000Z</time>
      </trkpt>
      <trkpt lat="47.77194" lon="6.95">
        <ele>752.60071616202</ele>
        <time>2025-05-28T18:38:55.000Z</time>
      </trkpt>
      <trkpt lat="47.77205" lon="6.95003">
        <ele>752.89963697264</ele>
        <time>2025-05-28T18:39:07.000Z</time>
      </trkpt>
      <trkpt lat="47.77214" lon="6.95005">
        <ele>753.66650606753</ele>
        <time>2025-05-28T18:39:19.000Z</time>
      </trkpt>
      <trkpt lat="47.7721" lon="6.94999">
        <ele>754.9285975275</ele>
        <time>2025-05-28T18:39:24.000Z</time>
      </trkpt>
      <trkpt lat="47.77203" lon="6.94994">
        <ele>755.22539115017</ele>
        <time>2025-05-28T18:39:34.000Z</time>
      </trkpt>
      <trkpt lat="47.77203" lon="6.94987">
        <ele>757.31131341459</ele>
        <time>2025-05-28T18:39:40.000Z</time>
      </trkpt>
      <trkpt lat="47.77208" lon="6.94988">
        <ele>757.79332886175</ele>
        <time>2025-05-28T18:39:46.000Z</time>
      </trkpt>
      <trkpt lat="47.77212" lon="6.94986">
        <ele>759.20334045316</ele>
        <time>2025-05-28T18:39:51.000Z</time>
      </trkpt>
      <trkpt lat="47.77223" lon="6.94985">
        <ele>761.33883104627</ele>
        <time>2025-05-28T18:40:02.000Z</time>
      </trkpt>
      <trkpt lat="47.77227" lon="6.94984">
        <ele>762.11467228346</ele>
        <time>2025-05-28T18:40:07.000Z</time>
      </trkpt>
      <trkpt lat="47.77237" lon="6.94986">
        <ele>761.76106394632</ele>
        <time>2025-05-28T18:40:15.000Z</time>
      </trkpt>
      <trkpt lat="47.77242" lon="6.94985">
        <ele>762.31140445442</ele>
        <time>2025-05-28T18:40:20.000Z</time>
      </trkpt>
      <trkpt lat="47.77246" lon="6.94985">
        <ele>762.29816475162</ele>
        <time>2025-05-28T18:40:23.000Z</time>
      </trkpt>
      <trkpt lat="47.77249" lon="6.9498">
        <ele>763.75458998576</ele>
        <time>2025-05-28T18:40:31.000Z</time>
      </trkpt>
      <trkpt lat="47.77254" lon="6.94973">
        <ele>766.39486620863</ele>
        <time>2025-05-28T18:40:41.000Z</time>
      </trkpt>
      <trkpt lat="47.77258" lon="6.94961">
        <ele>771.1949415612</ele>
        <time>2025-05-28T18:40:56.000Z</time>
      </trkpt>
      <trkpt lat="47.77274" lon="6.94936">
        <ele>781.11805266505</ele>
        <time>2025-05-28T18:41:14.000Z</time>
      </trkpt>
      <trkpt lat="47.77293" lon="6.94925">
        <ele>783.06290819345</ele>
        <time>2025-05-28T18:41:23.000Z</time>
      </trkpt>
      <trkpt lat="47.77299" lon="6.94921">
        <ele>783.41223243154</ele>
        <time>2025-05-28T18:41:26.000Z</time>
      </trkpt>
      <trkpt lat="47.77305" lon="6.94918">
        <ele>783.2947917755</ele>
        <time>2025-05-28T18:41:30.000Z</time>
      </trkpt>
      <trkpt lat="47.77314" lon="6.94914">
        <ele>782.49700824834</ele>
        <time>2025-05-28T18:41:45.000Z</time>
      </trkpt>
      <trkpt lat="47.77339" lon="6.94904">
        <ele>778.6127765896</ele>
        <time>2025-05-28T18:42:04.000Z</time>
      </trkpt>
      <trkpt lat="47.77346" lon="6.94902">
        <ele>777.43174916012</ele>
        <time>2025-05-28T18:42:09.000Z</time>
      </trkpt>
      <trkpt lat="47.77352" lon="6.949">
        <ele>776.57830094857</ele>
        <time>2025-05-28T18:42:19.000Z</time>
      </trkpt>
      <trkpt lat="47.77367" lon="6.94896">
        <ele>775.39686807906</ele>
        <time>2025-05-28T18:42:31.000Z</time>
      </trkpt>
      <trkpt lat="47.77383" lon="6.94892">
        <ele>774.87148039541</ele>
        <time>2025-05-28T18:42:50.000Z</time>
      </trkpt>
      <trkpt lat="47.77389" lon="6.94891">
        <ele>774.61652531275</ele>
        <time>2025-05-28T18:42:59.000Z</time>
      </trkpt>
      <trkpt lat="47.77413" lon="6.94887">
        <ele>772.0085060408</ele>
        <time>2025-05-28T18:43:17.000Z</time>
      </trkpt>
      <trkpt lat="47.77418" lon="6.94886">
        <ele>771.36123455111</ele>
        <time>2025-05-28T18:43:21.000Z</time>
      </trkpt>
      <trkpt lat="47.77422" lon="6.94885">
        <ele>770.85118680705</ele>
        <time>2025-05-28T18:43:25.000Z</time>
      </trkpt>
      <trkpt lat="47.77443" lon="6.94877">
        <ele>769.64934477978</ele>
        <time>2025-05-28T18:43:46.000Z</time>
      </trkpt>
      <trkpt lat="47.77457" lon="6.9487">
        <ele>769.7656936235</ele>
        <time>2025-05-28T18:43:59.000Z</time>
      </trkpt>
      <trkpt lat="47.77462" lon="6.94866">
        <ele>770.40699548367</ele>
        <time>2025-05-28T18:44:08.000Z</time>
      </trkpt>
      <trkpt lat="47.77472" lon="6.94859">
        <ele>771.11539434586</ele>
        <time>2025-05-28T18:44:19.000Z</time>
      </trkpt>
      <trkpt lat="47.77482" lon="6.94852">
        <ele>770.86372979479</ele>
        <time>2025-05-28T18:44:26.000Z</time>
      </trkpt>
      <trkpt lat="47.77505" lon="6.94837">
        <ele>770.54549906128</ele>
        <time>2025-05-28T18:44:55.000Z</time>
      </trkpt>
      <trkpt lat="47.77511" lon="6.94834">
        <ele>770.13236573488</ele>
        <time>2025-05-28T18:44:59.000Z</time>
      </trkpt>
      <trkpt lat="47.77524" lon="6.94828">
        <ele>769.3415563126</ele>
        <time>2025-05-28T18:45:11.000Z</time>
      </trkpt>
      <trkpt lat="47.77539" lon="6.94821">
        <ele>767.92681715172</ele>
        <time>2025-05-28T18:45:24.000Z</time>
      </trkpt>
      <trkpt lat="47.77567" lon="6.94802">
        <ele>762.41962526799</ele>
        <time>2025-05-28T18:45:56.000Z</time>
      </trkpt>
      <trkpt lat="47.77575" lon="6.94784">
        <ele>763.28460103283</ele>
        <time>2025-05-28T18:46:11.000Z</time>
      </trkpt>
      <trkpt lat="47.77587" lon="6.94729">
        <ele>772.88663692707</ele>
        <time>2025-05-28T18:46:45.000Z</time>
      </trkpt>
      <trkpt lat="47.77589" lon="6.94716">
        <ele>774.51321687236</ele>
        <time>2025-05-28T18:46:52.000Z</time>
      </trkpt>
      <trkpt lat="47.7759" lon="6.94709">
        <ele>774.94517750684</ele>
        <time>2025-05-28T18:46:55.000Z</time>
      </trkpt>
      <trkpt lat="47.77592" lon="6.94693">
        <ele>776.9383219827</ele>
        <time>2025-05-28T18:47:06.000Z</time>
      </trkpt>
      <trkpt lat="47.77596" lon="6.94672">
        <ele>779.74301303583</ele>
        <time>2025-05-28T18:47:18.000Z</time>
      </trkpt>
      <trkpt lat="47.77599" lon="6.94657">
        <ele>781.11037179902</ele>
        <time>2025-05-28T18:47:33.000Z</time>
      </trkpt>
      <trkpt lat="47.77606" lon="6.94603">
        <ele>787.2270285881</ele>
        <time>2025-05-28T18:48:01.000Z</time>
      </trkpt>
      <trkpt lat="47.77611" lon="6.94578">
        <ele>790.136825332</ele>
        <time>2025-05-28T18:48:18.000Z</time>
      </trkpt>
      <trkpt lat="47.77615" lon="6.94558">
        <ele>791.35315046264</ele>
        <time>2025-05-28T18:48:26.000Z</time>
      </trkpt>
      <trkpt lat="47.77616" lon="6.94552">
        <ele>792.23646430625</ele>
        <time>2025-05-28T18:48:35.000Z</time>
      </trkpt>
      <trkpt lat="47.77624" lon="6.94516">
        <ele>793.88394188062</ele>
        <time>2025-05-28T18:49:02.000Z</time>
      </trkpt>
      <trkpt lat="47.77642" lon="6.94466">
        <ele>793.30498906832</ele>
        <time>2025-05-28T18:49:39.000Z</time>
      </trkpt>
      <trkpt lat="47.77646" lon="6.94447">
        <ele>794.20056494516</ele>
        <time>2025-05-28T18:49:53.000Z</time>
      </trkpt>
      <trkpt lat="47.77648" lon="6.94425">
        <ele>795.69705865943</ele>
        <time>2025-05-28T18:50:03.000Z</time>
      </trkpt>
      <trkpt lat="47.77651" lon="6.94407">
        <ele>795.91621152625</ele>
        <time>2025-05-28T18:50:15.000Z</time>
      </trkpt>
      <trkpt lat="47.77652" lon="6.94386">
        <ele>797.32316217516</ele>
        <time>2025-05-28T18:50:26.000Z</time>
      </trkpt>
      <trkpt lat="47.77654" lon="6.94378">
        <ele>797.4664165038</ele>
        <time>2025-05-28T18:50:30.000Z</time>
      </trkpt>
      <trkpt lat="47.77657" lon="6.94366">
        <ele>797.90175770911</ele>
        <time>2025-05-28T18:50:39.000Z</time>
      </trkpt>
      <trkpt lat="47.77663" lon="6.94359">
        <ele>795.92138047546</ele>
        <time>2025-05-28T18:50:48.000Z</time>
      </trkpt>
      <trkpt lat="47.77679" lon="6.9433">
        <ele>794.03423427735</ele>
        <time>2025-05-28T18:51:09.000Z</time>
      </trkpt>
      <trkpt lat="47.77684" lon="6.94316">
        <ele>793.61659849938</ele>
        <time>2025-05-28T18:51:17.000Z</time>
      </trkpt>
      <trkpt lat="47.7769" lon="6.94299">
        <ele>793.97959457012</ele>
        <time>2025-05-28T18:51:27.000Z</time>
      </trkpt>
      <trkpt lat="47.77701" lon="6.94254">
        <ele>797.06350866138</ele>
        <time>2025-05-28T18:51:56.000Z</time>
      </trkpt>
      <trkpt lat="47.77703" lon="6.94244">
        <ele>797.80108405952</ele>
        <time>2025-05-28T18:52:02.000Z</time>
      </trkpt>
      <trkpt lat="47.77705" lon="6.94233">
        <ele>798.84374984335</ele>
        <time>2025-05-28T18:52:04.000Z</time>
      </trkpt>
      <trkpt lat="47.77706" lon="6.94226">
        <ele>799.66412279112</ele>
        <time>2025-05-28T18:52:11.000Z</time>
      </trkpt>
      <trkpt lat="47.77706" lon="6.9422">
        <ele>800.58279513106</ele>
        <time>2025-05-28T18:52:18.000Z</time>
      </trkpt>
      <trkpt lat="47.77706" lon="6.94213">
        <ele>801.44873254236</ele>
        <time>2025-05-28T18:52:23.000Z</time>
      </trkpt>
      <trkpt lat="47.77701" lon="6.94196">
        <ele>806.19375200118</ele>
        <time>2025-05-28T18:52:32.000Z</time>
      </trkpt>
      <trkpt lat="47.77702" lon="6.9418">
        <ele>806.79810353271</ele>
        <time>2025-05-28T18:52:40.000Z</time>
      </trkpt>
      <trkpt lat="47.77697" lon="6.9417">
        <ele>808.89515308053</ele>
        <time>2025-05-28T18:52:49.000Z</time>
      </trkpt>
      <trkpt lat="47.777" lon="6.94155">
        <ele>807.39323532394</ele>
        <time>2025-05-28T18:53:03.000Z</time>
      </trkpt>
      <trkpt lat="47.77704" lon="6.94148">
        <ele>805.22351113362</ele>
        <time>2025-05-28T18:53:12.000Z</time>
      </trkpt>
      <trkpt lat="47.77705" lon="6.94141">
        <ele>804.54400289131</ele>
        <time>2025-05-28T18:53:16.000Z</time>
      </trkpt>
      <trkpt lat="47.77707" lon="6.94132">
        <ele>802.43801789761</ele>
        <time>2025-05-28T18:53:22.000Z</time>
      </trkpt>
      <trkpt lat="47.77708" lon="6.94126">
        <ele>801.28081903528</ele>
        <time>2025-05-28T18:53:26.000Z</time>
      </trkpt>
      <trkpt lat="47.77711" lon="6.94119">
        <ele>798.6545560565</ele>
        <time>2025-05-28T18:53:29.000Z</time>
      </trkpt>
      <trkpt lat="47.7771" lon="6.94111">
        <ele>797.8723618449</ele>
        <time>2025-05-28T18:53:35.000Z</time>
      </trkpt>
      <trkpt lat="47.77709" lon="6.94099">
        <ele>796.84721805287</ele>
        <time>2025-05-28T18:53:52.000Z</time>
      </trkpt>
      <trkpt lat="47.77708" lon="6.94077">
        <ele>794.20818428367</ele>
        <time>2025-05-28T18:54:05.000Z</time>
      </trkpt>
      <trkpt lat="47.77705" lon="6.94063">
        <ele>793.68574806923</ele>
        <time>2025-05-28T18:54:11.000Z</time>
      </trkpt>
      <trkpt lat="47.77706" lon="6.94035">
        <ele>790.92782324115</ele>
        <time>2025-05-28T18:54:26.000Z</time>
      </trkpt>
      <trkpt lat="47.77705" lon="6.94027">
        <ele>790.43420956642</ele>
        <time>2025-05-28T18:54:30.000Z</time>
      </trkpt>
      <trkpt lat="47.77703" lon="6.94016">
        <ele>789.83530954477</ele>
        <time>2025-05-28T18:54:37.000Z</time>
      </trkpt>
      <trkpt lat="47.77702" lon="6.94008">
        <ele>789.2769005673</ele>
        <time>2025-05-28T18:54:41.000Z</time>
      </trkpt>
      <trkpt lat="47.77701" lon="6.93994">
        <ele>787.43294146295</ele>
        <time>2025-05-28T18:54:49.000Z</time>
      </trkpt>
      <trkpt lat="47.77701" lon="6.93986">
        <ele>786.34559444664</ele>
        <time>2025-05-28T18:54:53.000Z</time>
      </trkpt>
      <trkpt lat="47.77699" lon="6.93966">
        <ele>784.09040676151</ele>
        <time>2025-05-28T18:55:04.000Z</time>
      </trkpt>
      <trkpt lat="47.77697" lon="6.9396">
        <ele>784.04420514461</ele>
        <time>2025-05-28T18:55:09.000Z</time>
      </trkpt>
      <trkpt lat="47.77695" lon="6.9395">
        <ele>783.75150304491</ele>
        <time>2025-05-28T18:55:14.000Z</time>
      </trkpt>
      <trkpt lat="47.77689" lon="6.9393">
        <ele>784.59211327536</ele>
        <time>2025-05-28T18:55:25.000Z</time>
      </trkpt>
      <trkpt lat="47.77688" lon="6.93924">
        <ele>784.52576310225</ele>
        <time>2025-05-28T18:55:39.000Z</time>
      </trkpt>
      <trkpt lat="47.7769" lon="6.93914">
        <ele>783.56009940928</ele>
        <time>2025-05-28T18:55:58.000Z</time>
      </trkpt>
      <trkpt lat="47.77692" lon="6.93907">
        <ele>783.22987310169</ele>
        <time>2025-05-28T18:56:03.000Z</time>
      </trkpt>
      <trkpt lat="47.77694" lon="6.93896">
        <ele>782.54955590006</ele>
        <time>2025-05-28T18:56:11.000Z</time>
      </trkpt>
      <trkpt lat="47.77695" lon="6.9389">
        <ele>782.52948275096</ele>
        <time>2025-05-28T18:56:15.000Z</time>
      </trkpt>
      <trkpt lat="47.77699" lon="6.9387">
        <ele>781.48569578252</ele>
        <time>2025-05-28T18:56:26.000Z</time>
      </trkpt>
      <trkpt lat="47.777" lon="6.93854">
        <ele>781.50696713226</ele>
        <time>2025-05-28T18:56:35.000Z</time>
      </trkpt>
      <trkpt lat="47.77702" lon="6.93847">
        <ele>780.81043482144</ele>
        <time>2025-05-28T18:56:39.000Z</time>
      </trkpt>
      <trkpt lat="47.77705" lon="6.93825">
        <ele>778.04339352323</ele>
        <time>2025-05-28T18:56:53.000Z</time>
      </trkpt>
      <trkpt lat="47.77706" lon="6.93818">
        <ele>777.15764537687</ele>
        <time>2025-05-28T18:56:57.000Z</time>
      </trkpt>
      <trkpt lat="47.77706" lon="6.93809">
        <ele>775.66459157947</ele>
        <time>2025-05-28T18:57:01.000Z</time>
      </trkpt>
      <trkpt lat="47.77706" lon="6.93802">
        <ele>774.37831790201</ele>
        <time>2025-05-28T18:57:05.000Z</time>
      </trkpt>
      <trkpt lat="47.77707" lon="6.93787">
        <ele>771.66716415937</ele>
        <time>2025-05-28T18:57:15.000Z</time>
      </trkpt>
      <trkpt lat="47.77708" lon="6.93751">
        <ele>765.90622468596</ele>
        <time>2025-05-28T18:57:39.000Z</time>
      </trkpt>
      <trkpt lat="47.77707" lon="6.93744">
        <ele>765.53905248447</ele>
        <time>2025-05-28T18:57:43.000Z</time>
      </trkpt>
      <trkpt lat="47.77706" lon="6.93724">
        <ele>764.53691846116</ele>
        <time>2025-05-28T18:57:56.000Z</time>
      </trkpt>
      <trkpt lat="47.77707" lon="6.93712">
        <ele>764.29173511224</ele>
        <time>2025-05-28T18:58:04.000Z</time>
      </trkpt>
      <trkpt lat="47.77708" lon="6.93696">
        <ele>763.77296631228</ele>
        <time>2025-05-28T18:58:14.000Z</time>
      </trkpt>
      <trkpt lat="47.77709" lon="6.93689">
        <ele>763.44851927532</ele>
        <time>2025-05-28T18:58:17.000Z</time>
      </trkpt>
      <trkpt lat="47.7771" lon="6.93664">
        <ele>761.26486232181</ele>
        <time>2025-05-28T18:58:33.000Z</time>
      </trkpt>
      <trkpt lat="47.77709" lon="6.9365">
        <ele>760.47001779055</ele>
        <time>2025-05-28T18:58:41.000Z</time>
      </trkpt>
      <trkpt lat="47.77709" lon="6.93643">
        <ele>759.97784247709</ele>
        <time>2025-05-28T18:58:44.000Z</time>
      </trkpt>
      <trkpt lat="47.77712" lon="6.9363">
        <ele>757.63010793976</ele>
        <time>2025-05-28T18:58:52.000Z</time>
      </trkpt>
      <trkpt lat="47.77712" lon="6.93601">
        <ele>752.59084392441</ele>
        <time>2025-05-28T18:59:08.000Z</time>
      </trkpt>
      <trkpt lat="47.7771" lon="6.93593">
        <ele>752.55291676496</ele>
        <time>2025-05-28T18:59:12.000Z</time>
      </trkpt>
      <trkpt lat="47.77709" lon="6.93575">
        <ele>751.43473093114</ele>
        <time>2025-05-28T18:59:27.000Z</time>
      </trkpt>
      <trkpt lat="47.77705" lon="6.93559">
        <ele>752.62760617021</ele>
        <time>2025-05-28T18:59:38.000Z</time>
      </trkpt>
      <trkpt lat="47.77701" lon="6.9355">
        <ele>754.33863185575</ele>
        <time>2025-05-28T18:59:45.000Z</time>
      </trkpt>
      <trkpt lat="47.77704" lon="6.93544">
        <ele>753.29535090832</ele>
        <time>2025-05-28T18:59:49.000Z</time>
      </trkpt>
      <trkpt lat="47.77705" lon="6.9353">
        <ele>753.16801072868</ele>
        <time>2025-05-28T18:59:55.000Z</time>
      </trkpt>
      <trkpt lat="47.77705" lon="6.93523">
        <ele>753.08641207231</ele>
        <time>2025-05-28T18:59:58.000Z</time>
      </trkpt>
      <trkpt lat="47.77705" lon="6.93515">
        <ele>753.21592639888</ele>
        <time>2025-05-28T19:00:02.000Z</time>
      </trkpt>
      <trkpt lat="47.77704" lon="6.93492">
        <ele>751.91563253773</ele>
        <time>2025-05-28T19:00:18.000Z</time>
      </trkpt>
      <trkpt lat="47.77705" lon="6.93486">
        <ele>750.76869224126</ele>
        <time>2025-05-28T19:00:22.000Z</time>
      </trkpt>
      <trkpt lat="47.77713" lon="6.93449">
        <ele>745.17056491869</ele>
        <time>2025-05-28T19:00:43.000Z</time>
      </trkpt>
      <trkpt lat="47.77716" lon="6.93394">
        <ele>741.1557918137</ele>
        <time>2025-05-28T19:01:17.000Z</time>
      </trkpt>
      <trkpt lat="47.77719" lon="6.93365">
        <ele>738.26405671431</ele>
        <time>2025-05-28T19:01:42.000Z</time>
      </trkpt>
      <trkpt lat="47.77722" lon="6.93359">
        <ele>737.16920526149</ele>
        <time>2025-05-28T19:01:47.000Z</time>
      </trkpt>
      <trkpt lat="47.77725" lon="6.93354">
        <ele>736.11758081875</ele>
        <time>2025-05-28T19:01:52.000Z</time>
      </trkpt>
      <trkpt lat="47.77725" lon="6.93346">
        <ele>735.8722896567</ele>
        <time>2025-05-28T19:01:56.000Z</time>
      </trkpt>
      <trkpt lat="47.7772" lon="6.93335">
        <ele>736.8391867297</ele>
        <time>2025-05-28T19:01:59.000Z</time>
      </trkpt>
      <trkpt lat="47.7772" lon="6.93328">
        <ele>736.93331368112</ele>
        <time>2025-05-28T19:02:02.000Z</time>
      </trkpt>
      <trkpt lat="47.7772" lon="6.93316">
        <ele>736.8232289184</ele>
        <time>2025-05-28T19:02:09.000Z</time>
      </trkpt>
      <trkpt lat="47.7772" lon="6.93308">
        <ele>737.23143631533</ele>
        <time>2025-05-28T19:02:13.000Z</time>
      </trkpt>
      <trkpt lat="47.77719" lon="6.93302">
        <ele>737.65888627719</ele>
        <time>2025-05-28T19:02:17.000Z</time>
      </trkpt>
      <trkpt lat="47.77715" lon="6.93287">
        <ele>738.82676952815</ele>
        <time>2025-05-28T19:02:24.000Z</time>
      </trkpt>
      <trkpt lat="47.77715" lon="6.93274">
        <ele>739.48602889553</ele>
        <time>2025-05-28T19:02:30.000Z</time>
      </trkpt>
      <trkpt lat="47.77716" lon="6.93266">
        <ele>739.82041075209</ele>
        <time>2025-05-28T19:02:33.000Z</time>
      </trkpt>
      <trkpt lat="47.77714" lon="6.93258">
        <ele>740.31035596035</ele>
        <time>2025-05-28T19:02:38.000Z</time>
      </trkpt>
      <trkpt lat="47.77721" lon="6.93239">
        <ele>740.6060801305</ele>
        <time>2025-05-28T19:02:51.000Z</time>
      </trkpt>
      <trkpt lat="47.77731" lon="6.93226">
        <ele>740.68362519566</ele>
        <time>2025-05-28T19:03:02.000Z</time>
      </trkpt>
      <trkpt lat="47.77739" lon="6.9322">
        <ele>740.79817136266</ele>
        <time>2025-05-28T19:03:08.000Z</time>
      </trkpt>
      <trkpt lat="47.77754" lon="6.93219">
        <ele>740.93640581956</ele>
        <time>2025-05-28T19:03:20.000Z</time>
      </trkpt>
      <trkpt lat="47.77758" lon="6.93216">
        <ele>741.00175154872</ele>
        <time>2025-05-28T19:03:24.000Z</time>
      </trkpt>
      <trkpt lat="47.77761" lon="6.93223">
        <ele>740.96433151998</ele>
        <time>2025-05-28T19:04:19.000Z</time>
      </trkpt>
      <trkpt lat="47.77766" lon="6.93227">
        <ele>740.95494800688</ele>
        <time>2025-05-28T19:04:26.000Z</time>
      </trkpt>
      <trkpt lat="47.778" lon="6.93227">
        <ele>741.00689723265</ele>
        <time>2025-05-28T19:04:51.000Z</time>
      </trkpt>
      <trkpt lat="47.77807" lon="6.9322">
        <ele>741.12043790221</ele>
        <time>2025-05-28T19:04:59.000Z</time>
      </trkpt>
      <trkpt lat="47.77806" lon="6.93209">
        <ele>741.61443370674</ele>
        <time>2025-05-28T19:05:04.000Z</time>
      </trkpt>
      <trkpt lat="47.77809" lon="6.93201">
        <ele>741.97794005331</ele>
        <time>2025-05-28T19:05:10.000Z</time>
      </trkpt>
      <trkpt lat="47.77812" lon="6.93188">
        <ele>742.64063476669</ele>
        <time>2025-05-28T19:05:17.000Z</time>
      </trkpt>
      <trkpt lat="47.7781" lon="6.93178">
        <ele>743.35224980788</ele>
        <time>2025-05-28T19:05:22.000Z</time>
      </trkpt>
      <trkpt lat="47.77812" lon="6.93171">
        <ele>743.85600512009</ele>
        <time>2025-05-28T19:05:25.000Z</time>
      </trkpt>
      <trkpt lat="47.77814" lon="6.93163">
        <ele>744.39106705209</ele>
        <time>2025-05-28T19:05:30.000Z</time>
      </trkpt>
      <trkpt lat="47.77825" lon="6.9311">
        <ele>746.91810623597</ele>
        <time>2025-05-28T19:06:02.000Z</time>
      </trkpt>
      <trkpt lat="47.77829" lon="6.9309">
        <ele>748.04942453741</ele>
        <time>2025-05-28T19:06:13.000Z</time>
      </trkpt>
      <trkpt lat="47.7783" lon="6.93081">
        <ele>748.16369762994</ele>
        <time>2025-05-28T19:06:19.000Z</time>
      </trkpt>
      <trkpt lat="47.77832" lon="6.93071">
        <ele>748.73337856776</ele>
        <time>2025-05-28T19:06:24.000Z</time>
      </trkpt>
      <trkpt lat="47.77832" lon="6.93058">
        <ele>749.24384825276</ele>
        <time>2025-05-28T19:06:30.000Z</time>
      </trkpt>
      <trkpt lat="47.77839" lon="6.93053">
        <ele>750.74512055568</ele>
        <time>2025-05-28T19:06:35.000Z</time>
      </trkpt>
      <trkpt lat="47.7784" lon="6.93042">
        <ele>751.22991670719</ele>
        <time>2025-05-28T19:06:44.000Z</time>
      </trkpt>
      <trkpt lat="47.77839" lon="6.93019">
        <ele>752.08197870741</ele>
        <time>2025-05-28T19:06:57.000Z</time>
      </trkpt>
      <trkpt lat="47.77834" lon="6.93004">
        <ele>751.80863740211</ele>
        <time>2025-05-28T19:07:05.000Z</time>
      </trkpt>
      <trkpt lat="47.77834" lon="6.92996">
        <ele>752.38092356089</ele>
        <time>2025-05-28T19:07:07.000Z</time>
      </trkpt>
      <trkpt lat="47.77832" lon="6.92984">
        <ele>752.71116588786</ele>
        <time>2025-05-28T19:07:16.000Z</time>
      </trkpt>
      <trkpt lat="47.77834" lon="6.92975">
        <ele>753.63588192674</ele>
        <time>2025-05-28T19:07:20.000Z</time>
      </trkpt>
      <trkpt lat="47.77829" lon="6.92963">
        <ele>753.67288565743</ele>
        <time>2025-05-28T19:07:28.000Z</time>
      </trkpt>
      <trkpt lat="47.77829" lon="6.92952">
        <ele>754.5134551226</ele>
        <time>2025-05-28T19:07:34.000Z</time>
      </trkpt>
      <trkpt lat="47.77823" lon="6.92947">
        <ele>754.05032658672</ele>
        <time>2025-05-28T19:07:39.000Z</time>
      </trkpt>
      <trkpt lat="47.77822" lon="6.92935">
        <ele>755.13158310964</ele>
        <time>2025-05-28T19:07:49.000Z</time>
      </trkpt>
      <trkpt lat="47.7782" lon="6.92921">
        <ele>756.99239215792</ele>
        <time>2025-05-28T19:07:55.000Z</time>
      </trkpt>
      <trkpt lat="47.77816" lon="6.92894">
        <ele>760.38632848817</ele>
        <time>2025-05-28T19:08:09.000Z</time>
      </trkpt>
      <trkpt lat="47.77811" lon="6.92888">
        <ele>761.05018487256</ele>
        <time>2025-05-28T19:08:15.000Z</time>
      </trkpt>
      <trkpt lat="47.77808" lon="6.92879">
        <ele>762.40636546957</ele>
        <time>2025-05-28T19:08:19.000Z</time>
      </trkpt>
      <trkpt lat="47.77801" lon="6.92855">
        <ele>766.25739817751</ele>
        <time>2025-05-28T19:08:32.000Z</time>
      </trkpt>
      <trkpt lat="47.77797" lon="6.92851">
        <ele>767.31799560691</ele>
        <time>2025-05-28T19:08:34.000Z</time>
      </trkpt>
      <trkpt lat="47.77793" lon="6.92846">
        <ele>768.78201757663</ele>
        <time>2025-05-28T19:08:37.000Z</time>
      </trkpt>
      <trkpt lat="47.77787" lon="6.92832">
        <ele>773.34410859805</ele>
        <time>2025-05-28T19:08:51.000Z</time>
      </trkpt>
      <trkpt lat="47.77784" lon="6.92828">
        <ele>775.15967623035</ele>
        <time>2025-05-28T19:08:54.000Z</time>
      </trkpt>
      <trkpt lat="47.77782" lon="6.9282">
        <ele>777.83179321896</ele>
        <time>2025-05-28T19:08:58.000Z</time>
      </trkpt>
      <trkpt lat="47.77781" lon="6.92811">
        <ele>780.3945712036</ele>
        <time>2025-05-28T19:09:03.000Z</time>
      </trkpt>
      <trkpt lat="47.77778" lon="6.92798">
        <ele>785.79448147188</ele>
        <time>2025-05-28T19:09:12.000Z</time>
      </trkpt>
      <trkpt lat="47.77778" lon="6.92791">
        <ele>788.45652001671</ele>
        <time>2025-05-28T19:09:17.000Z</time>
      </trkpt>
      <trkpt lat="47.77787" lon="6.92757">
        <ele>796.36768945722</ele>
        <time>2025-05-28T19:09:41.000Z</time>
      </trkpt>
      <trkpt lat="47.77785" lon="6.92742">
        <ele>802.46895989586</ele>
        <time>2025-05-28T19:09:56.000Z</time>
      </trkpt>
      <trkpt lat="47.77783" lon="6.92724">
        <ele>810.45094468176</ele>
        <time>2025-05-28T19:10:17.000Z</time>
      </trkpt>
      <trkpt lat="47.77784" lon="6.92699">
        <ele>816.38814965168</ele>
        <time>2025-05-28T19:10:37.000Z</time>
      </trkpt>
      <trkpt lat="47.77781" lon="6.92668">
        <ele>824.82396163913</ele>
        <time>2025-05-28T19:10:52.000Z</time>
      </trkpt>
      <trkpt lat="47.77782" lon="6.92662">
        <ele>825.13109673127</ele>
        <time>2025-05-28T19:11:03.000Z</time>
      </trkpt>
      <trkpt lat="47.77783" lon="6.92655">
        <ele>824.85032552183</ele>
        <time>2025-05-28T19:11:07.000Z</time>
      </trkpt>
      <trkpt lat="47.77786" lon="6.92649">
        <ele>823.47120180227</ele>
        <time>2025-05-28T19:11:11.000Z</time>
      </trkpt>
      <trkpt lat="47.77788" lon="6.92643">
        <ele>823.20785847628</ele>
        <time>2025-05-28T19:11:15.000Z</time>
      </trkpt>
      <trkpt lat="47.77788" lon="6.92636">
        <ele>824.38226359566</ele>
        <time>2025-05-28T19:11:19.000Z</time>
      </trkpt>
      <trkpt lat="47.77798" lon="6.92605">
        <ele>822.70261957236</ele>
        <time>2025-05-28T19:11:40.000Z</time>
      </trkpt>
      <trkpt lat="47.778" lon="6.92599">
        <ele>822.4232334327</ele>
        <time>2025-05-28T19:11:45.000Z</time>
      </trkpt>
      <trkpt lat="47.77801" lon="6.92592">
        <ele>822.67411914454</ele>
        <time>2025-05-28T19:11:49.000Z</time>
      </trkpt>
      <trkpt lat="47.77803" lon="6.92585">
        <ele>822.1842386649</ele>
        <time>2025-05-28T19:11:53.000Z</time>
      </trkpt>
      <trkpt lat="47.77804" lon="6.92578">
        <ele>821.58124790562</ele>
        <time>2025-05-28T19:11:59.000Z</time>
      </trkpt>
      <trkpt lat="47.77805" lon="6.92572">
        <ele>821.38373792088</ele>
        <time>2025-05-28T19:12:03.000Z</time>
      </trkpt>
      <trkpt lat="47.77806" lon="6.92565">
        <ele>821.31262696596</ele>
        <time>2025-05-28T19:12:07.000Z</time>
      </trkpt>
      <trkpt lat="47.77808" lon="6.92556">
        <ele>820.85258809184</ele>
        <time>2025-05-28T19:12:14.000Z</time>
      </trkpt>
      <trkpt lat="47.77808" lon="6.92549">
        <ele>821.12254733418</ele>
        <time>2025-05-28T19:12:18.000Z</time>
      </trkpt>
      <trkpt lat="47.77807" lon="6.92525">
        <ele>824.27664610302</ele>
        <time>2025-05-28T19:12:38.000Z</time>
      </trkpt>
      <trkpt lat="47.77807" lon="6.92518">
        <ele>825.19129494027</ele>
        <time>2025-05-28T19:12:43.000Z</time>
      </trkpt>
      <trkpt lat="47.77804" lon="6.92486">
        <ele>830.35816096599</ele>
        <time>2025-05-28T19:13:15.000Z</time>
      </trkpt>
      <trkpt lat="47.77801" lon="6.92472">
        <ele>833.13863615384</ele>
        <time>2025-05-28T19:13:25.000Z</time>
      </trkpt>
      <trkpt lat="47.77791" lon="6.92435">
        <ele>841.34742398952</ele>
        <time>2025-05-28T19:13:57.000Z</time>
      </trkpt>
      <trkpt lat="47.77789" lon="6.92425">
        <ele>842.45259207226</ele>
        <time>2025-05-28T19:14:09.000Z</time>
      </trkpt>
      <trkpt lat="47.77787" lon="6.92414">
        <ele>844.33069119193</ele>
        <time>2025-05-28T19:14:20.000Z</time>
      </trkpt>
      <trkpt lat="47.77777" lon="6.92377">
        <ele>856.24959300384</ele>
        <time>2025-05-28T19:14:50.000Z</time>
      </trkpt>
      <trkpt lat="47.77776" lon="6.92354">
        <ele>862.6999498149</ele>
        <time>2025-05-28T19:15:04.000Z</time>
      </trkpt>
      <trkpt lat="47.77779" lon="6.92332">
        <ele>866.6562465041</ele>
        <time>2025-05-28T19:15:16.000Z</time>
      </trkpt>
      <trkpt lat="47.77786" lon="6.92316">
        <ele>867.16913765246</ele>
        <time>2025-05-28T19:15:30.000Z</time>
      </trkpt>
      <trkpt lat="47.77795" lon="6.92292">
        <ele>866.52349957666</ele>
        <time>2025-05-28T19:15:50.000Z</time>
      </trkpt>
      <trkpt lat="47.77802" lon="6.9225">
        <ele>869.40220307184</ele>
        <time>2025-05-28T19:16:29.000Z</time>
      </trkpt>
      <trkpt lat="47.77807" lon="6.92204">
        <ele>875.26706425316</ele>
        <time>2025-05-28T19:17:03.000Z</time>
      </trkpt>
      <trkpt lat="47.77807" lon="6.92197">
        <ele>876.87994621129</ele>
        <time>2025-05-28T19:17:07.000Z</time>
      </trkpt>
      <trkpt lat="47.77814" lon="6.92146">
        <ele>887.39660901</ele>
        <time>2025-05-28T19:17:45.000Z</time>
      </trkpt>
      <trkpt lat="47.77818" lon="6.92124">
        <ele>890.19641864362</ele>
        <time>2025-05-28T19:17:57.000Z</time>
      </trkpt>
      <trkpt lat="47.77829" lon="6.92086">
        <ele>888.6169665557</ele>
        <time>2025-05-28T19:18:23.000Z</time>
      </trkpt>
      <trkpt lat="47.77843" lon="6.92041">
        <ele>885.16223403909</ele>
        <time>2025-05-28T19:18:55.000Z</time>
      </trkpt>
      <trkpt lat="47.77848" lon="6.92022">
        <ele>882.73075532215</ele>
        <time>2025-05-28T19:19:08.000Z</time>
      </trkpt>
      <trkpt lat="47.77856" lon="6.91985">
        <ele>880.27958021569</ele>
        <time>2025-05-28T19:19:40.000Z</time>
      </trkpt>
      <trkpt lat="47.77857" lon="6.91977">
        <ele>880.49043436225</ele>
        <time>2025-05-28T19:19:44.000Z</time>
      </trkpt>
      <trkpt lat="47.77867" lon="6.91942">
        <ele>881.68160557439</ele>
        <time>2025-05-28T19:20:04.000Z</time>
      </trkpt>
      <trkpt lat="47.77874" lon="6.91915">
        <ele>882.83252010311</ele>
        <time>2025-05-28T19:20:22.000Z</time>
      </trkpt>
      <trkpt lat="47.7788" lon="6.91887">
        <ele>883.63724781876</ele>
        <time>2025-05-28T19:20:44.000Z</time>
      </trkpt>
      <trkpt lat="47.77882" lon="6.91878">
        <ele>883.75181936213</ele>
        <time>2025-05-28T19:20:51.000Z</time>
      </trkpt>
      <trkpt lat="47.7789" lon="6.9183">
        <ele>885.57561641052</ele>
        <time>2025-05-28T19:21:23.000Z</time>
      </trkpt>
      <trkpt lat="47.77896" lon="6.91789">
        <ele>889.32131835613</ele>
        <time>2025-05-28T19:21:48.000Z</time>
      </trkpt>
      <trkpt lat="47.77895" lon="6.91775">
        <ele>891.47318910963</ele>
        <time>2025-05-28T19:21:57.000Z</time>
      </trkpt>
      <trkpt lat="47.77894" lon="6.91755">
        <ele>893.25657795517</ele>
        <time>2025-05-28T19:22:09.000Z</time>
      </trkpt>
      <trkpt lat="47.77895" lon="6.91748">
        <ele>893.2965930132</ele>
        <time>2025-05-28T19:22:15.000Z</time>
      </trkpt>
      <trkpt lat="47.77905" lon="6.9172">
        <ele>891.56484399717</ele>
        <time>2025-05-28T19:22:47.000Z</time>
      </trkpt>
      <trkpt lat="47.77908" lon="6.91712">
        <ele>891.13208556835</ele>
        <time>2025-05-28T19:22:51.000Z</time>
      </trkpt>
      <trkpt lat="47.77915" lon="6.91698">
        <ele>890.01086626602</ele>
        <time>2025-05-28T19:23:02.000Z</time>
      </trkpt>
      <trkpt lat="47.77918" lon="6.91691">
        <ele>889.66882357391</ele>
        <time>2025-05-28T19:23:07.000Z</time>
      </trkpt>
      <trkpt lat="47.7793" lon="6.91652">
        <ele>890.13153334865</ele>
        <time>2025-05-28T19:23:31.000Z</time>
      </trkpt>
      <trkpt lat="47.77932" lon="6.91645">
        <ele>890.63760412708</ele>
        <time>2025-05-28T19:23:35.000Z</time>
      </trkpt>
      <trkpt lat="47.77933" lon="6.91638">
        <ele>891.23649273199</ele>
        <time>2025-05-28T19:23:39.000Z</time>
      </trkpt>
      <trkpt lat="47.77934" lon="6.91631">
        <ele>892.00921037369</ele>
        <time>2025-05-28T19:23:43.000Z</time>
      </trkpt>
      <trkpt lat="47.77935" lon="6.91624">
        <ele>892.84526504129</ele>
        <time>2025-05-28T19:23:48.000Z</time>
      </trkpt>
      <trkpt lat="47.77936" lon="6.91615">
        <ele>893.75066556649</ele>
        <time>2025-05-28T19:23:55.000Z</time>
      </trkpt>
      <trkpt lat="47.77939" lon="6.91595">
        <ele>894.63926580559</ele>
        <time>2025-05-28T19:24:11.000Z</time>
      </trkpt>
      <trkpt lat="47.77942" lon="6.91566">
        <ele>895.37723322441</ele>
        <time>2025-05-28T19:24:29.000Z</time>
      </trkpt>
      <trkpt lat="47.77946" lon="6.91535">
        <ele>896.02349221484</ele>
        <time>2025-05-28T19:24:50.000Z</time>
      </trkpt>
      <trkpt lat="47.77953" lon="6.91495">
        <ele>897.81419076839</ele>
        <time>2025-05-28T19:25:16.000Z</time>
      </trkpt>
      <trkpt lat="47.77955" lon="6.91488">
        <ele>898.05999178317</ele>
        <time>2025-05-28T19:25:21.000Z</time>
      </trkpt>
      <trkpt lat="47.77974" lon="6.9145">
        <ele>898.54479616768</ele>
        <time>2025-05-28T19:25:55.000Z</time>
      </trkpt>
      <trkpt lat="47.77979" lon="6.9144">
        <ele>899.26276756125</ele>
        <time>2025-05-28T19:26:05.000Z</time>
      </trkpt>
      <trkpt lat="47.77981" lon="6.91433">
        <ele>899.93606439916</ele>
        <time>2025-05-28T19:26:10.000Z</time>
      </trkpt>
      <trkpt lat="47.77987" lon="6.91423">
        <ele>900.5645882573</ele>
        <time>2025-05-28T19:26:23.000Z</time>
      </trkpt>
      <trkpt lat="47.7799" lon="6.91418">
        <ele>900.76092276064</ele>
        <time>2025-05-28T19:26:27.000Z</time>
      </trkpt>
      <trkpt lat="47.77994" lon="6.91413">
        <ele>901.15990488869</ele>
        <time>2025-05-28T19:26:32.000Z</time>
      </trkpt>
      <trkpt lat="47.77991" lon="6.91406">
        <ele>902.70168658746</ele>
        <time>2025-05-28T19:26:44.000Z</time>
      </trkpt>
      <trkpt lat="47.77989" lon="6.91399">
        <ele>904.33381631676</ele>
        <time>2025-05-28T19:26:47.000Z</time>
      </trkpt>
      <trkpt lat="47.77985" lon="6.91392">
        <ele>906.54426803692</ele>
        <time>2025-05-28T19:26:50.000Z</time>
      </trkpt>
      <trkpt lat="47.77983" lon="6.91387">
        <ele>907.90623696533</ele>
        <time>2025-05-28T19:26:54.000Z</time>
      </trkpt>
      <trkpt lat="47.77984" lon="6.91374">
        <ele>910.09269435369</ele>
        <time>2025-05-28T19:27:02.000Z</time>
      </trkpt>
      <trkpt lat="47.77987" lon="6.91368">
        <ele>910.79341899192</ele>
        <time>2025-05-28T19:27:07.000Z</time>
      </trkpt>
      <trkpt lat="47.77994" lon="6.91334">
        <ele>915.24732244317</ele>
        <time>2025-05-28T19:27:33.000Z</time>
      </trkpt>
      <trkpt lat="47.77998" lon="6.91305">
        <ele>920.10674102561</ele>
        <time>2025-05-28T19:27:56.000Z</time>
      </trkpt>
      <trkpt lat="47.78" lon="6.91294">
        <ele>921.57593115966</ele>
        <time>2025-05-28T19:28:05.000Z</time>
      </trkpt>
      <trkpt lat="47.78009" lon="6.91274">
        <ele>923.18248027409</ele>
        <time>2025-05-28T19:28:26.000Z</time>
      </trkpt>
      <trkpt lat="47.78019" lon="6.91232">
        <ele>929.54776954613</ele>
        <time>2025-05-28T19:29:00.000Z</time>
      </trkpt>
      <trkpt lat="47.78023" lon="6.9121">
        <ele>931.85018332945</ele>
        <time>2025-05-28T19:29:16.000Z</time>
      </trkpt>
      <trkpt lat="47.78029" lon="6.91198">
        <ele>932.84009201986</ele>
        <time>2025-05-28T19:29:25.000Z</time>
      </trkpt>
      <trkpt lat="47.78033" lon="6.91193">
        <ele>933.16468970701</ele>
        <time>2025-05-28T19:29:30.000Z</time>
      </trkpt>
      <trkpt lat="47.78035" lon="6.91187">
        <ele>933.86024251425</ele>
        <time>2025-05-28T19:29:35.000Z</time>
      </trkpt>
      <trkpt lat="47.78038" lon="6.91182">
        <ele>934.25870344453</ele>
        <time>2025-05-28T19:29:39.000Z</time>
      </trkpt>
      <trkpt lat="47.78043" lon="6.91175">
        <ele>934.57211186527</ele>
        <time>2025-05-28T19:29:46.000Z</time>
      </trkpt>
      <trkpt lat="47.78045" lon="6.91169">
        <ele>934.79078542295</ele>
        <time>2025-05-28T19:29:51.000Z</time>
      </trkpt>
      <trkpt lat="47.7805" lon="6.91162">
        <ele>934.87844505482</ele>
        <time>2025-05-28T19:29:58.000Z</time>
      </trkpt>
      <trkpt lat="47.78056" lon="6.91144">
        <ele>935.7012204878</ele>
        <time>2025-05-28T19:30:13.000Z</time>
      </trkpt>
      <trkpt lat="47.78056" lon="6.91137">
        <ele>935.8992783132</ele>
        <time>2025-05-28T19:30:18.000Z</time>
      </trkpt>
      <trkpt lat="47.7806" lon="6.91114">
        <ele>936.50098604923</ele>
        <time>2025-05-28T19:30:34.000Z</time>
      </trkpt>
      <trkpt lat="47.7806" lon="6.91106">
        <ele>936.82377924323</ele>
        <time>2025-05-28T19:30:39.000Z</time>
      </trkpt>
      <trkpt lat="47.78061" lon="6.911">
        <ele>937.23614933323</ele>
        <time>2025-05-28T19:30:43.000Z</time>
      </trkpt>
      <trkpt lat="47.78063" lon="6.91093">
        <ele>937.643928889</ele>
        <time>2025-05-28T19:30:47.000Z</time>
      </trkpt>
      <trkpt lat="47.78066" lon="6.9108">
        <ele>938.60282025999</ele>
        <time>2025-05-28T19:30:56.000Z</time>
      </trkpt>
      <trkpt lat="47.78067" lon="6.91073">
        <ele>939.33888897335</ele>
        <time>2025-05-28T19:31:00.000Z</time>
      </trkpt>
      <trkpt lat="47.78068" lon="6.91067">
        <ele>940.19099651426</ele>
        <time>2025-05-28T19:31:04.000Z</time>
      </trkpt>
      <trkpt lat="47.78069" lon="6.9106">
        <ele>941.05387729036</ele>
        <time>2025-05-28T19:31:08.000Z</time>
      </trkpt>
      <trkpt lat="47.7807" lon="6.91053">
        <ele>941.9516319552</ele>
        <time>2025-05-28T19:31:12.000Z</time>
      </trkpt>
      <trkpt lat="47.78069" lon="6.91046">
        <ele>942.56710622874</ele>
        <time>2025-05-28T19:31:17.000Z</time>
      </trkpt>
      <trkpt lat="47.78071" lon="6.91036">
        <ele>943.19655170665</ele>
        <time>2025-05-28T19:31:26.000Z</time>
      </trkpt>
      <trkpt lat="47.7807" lon="6.91029">
        <ele>943.53033493711</ele>
        <time>2025-05-28T19:31:30.000Z</time>
      </trkpt>
      <trkpt lat="47.78068" lon="6.91016">
        <ele>943.92928916281</ele>
        <time>2025-05-28T19:31:38.000Z</time>
      </trkpt>
      <trkpt lat="47.78066" lon="6.91009">
        <ele>943.81030213297</ele>
        <time>2025-05-28T19:31:43.000Z</time>
      </trkpt>
      <trkpt lat="47.78063" lon="6.91002">
        <ele>943.59659243701</ele>
        <time>2025-05-28T19:31:48.000Z</time>
      </trkpt>
      <trkpt lat="47.78062" lon="6.90994">
        <ele>943.37669497579</ele>
        <time>2025-05-28T19:31:52.000Z</time>
      </trkpt>
      <trkpt lat="47.78064" lon="6.90988">
        <ele>943.28506604349</ele>
        <time>2025-05-28T19:31:55.000Z</time>
      </trkpt>
      <trkpt lat="47.78068" lon="6.9098">
        <ele>942.97979269647</ele>
        <time>2025-05-28T19:31:57.000Z</time>
      </trkpt>
      <trkpt lat="47.78069" lon="6.90975">
        <ele>942.63178873519</ele>
        <time>2025-05-28T19:32:00.000Z</time>
      </trkpt>
      <trkpt lat="47.78068" lon="6.90968">
        <ele>942.11102357526</ele>
        <time>2025-05-28T19:32:04.000Z</time>
      </trkpt>
      <trkpt lat="47.7807" lon="6.90961">
        <ele>941.6144695626</ele>
        <time>2025-05-28T19:32:08.000Z</time>
      </trkpt>
      <trkpt lat="47.7807" lon="6.90954">
        <ele>940.99217286734</ele>
        <time>2025-05-28T19:32:12.000Z</time>
      </trkpt>
      <trkpt lat="47.78072" lon="6.90946">
        <ele>939.97579894851</ele>
        <time>2025-05-28T19:32:16.000Z</time>
      </trkpt>
      <trkpt lat="47.78074" lon="6.9094">
        <ele>938.98178764456</ele>
        <time>2025-05-28T19:32:20.000Z</time>
      </trkpt>
      <trkpt lat="47.78089" lon="6.90905">
        <ele>934.22784287196</ele>
        <time>2025-05-28T19:32:44.000Z</time>
      </trkpt>
      <trkpt lat="47.78094" lon="6.90883">
        <ele>932.41256250502</ele>
        <time>2025-05-28T19:32:57.000Z</time>
      </trkpt>
      <trkpt lat="47.78096" lon="6.90878">
        <ele>931.9995089063</ele>
        <time>2025-05-28T19:33:01.000Z</time>
      </trkpt>
      <trkpt lat="47.78099" lon="6.90871">
        <ele>931.55857595503</ele>
        <time>2025-05-28T19:33:05.000Z</time>
      </trkpt>
      <trkpt lat="47.78097" lon="6.90863">
        <ele>931.14677736564</ele>
        <time>2025-05-28T19:33:11.000Z</time>
      </trkpt>
      <trkpt lat="47.78097" lon="6.90855">
        <ele>930.6816136695</ele>
        <time>2025-05-28T19:33:16.000Z</time>
      </trkpt>
      <trkpt lat="47.78099" lon="6.90849">
        <ele>930.21956483001</ele>
        <time>2025-05-28T19:33:21.000Z</time>
      </trkpt>
      <trkpt lat="47.78103" lon="6.90841">
        <ele>929.39931951044</ele>
        <time>2025-05-28T19:33:29.000Z</time>
      </trkpt>
      <trkpt lat="47.78097" lon="6.90844">
        <ele>930.0307476473</ele>
        <time>2025-05-28T19:33:37.000Z</time>
      </trkpt>
      <trkpt lat="47.78092" lon="6.90844">
        <ele>930.36832431552</ele>
        <time>2025-05-28T19:33:40.000Z</time>
      </trkpt>
      <trkpt lat="47.78088" lon="6.90843">
        <ele>930.99586758528</ele>
        <time>2025-05-28T19:33:42.000Z</time>
      </trkpt>
      <trkpt lat="47.78083" lon="6.90842">
        <ele>931.99003863204</ele>
        <time>2025-05-28T19:33:44.000Z</time>
      </trkpt>
      <trkpt lat="47.78074" lon="6.90842">
        <ele>933.97278361921</ele>
        <time>2025-05-28T19:33:51.000Z</time>
      </trkpt>
      <trkpt lat="47.7807" lon="6.90847">
        <ele>934.82475088799</ele>
        <time>2025-05-28T19:33:56.000Z</time>
      </trkpt>
      <trkpt lat="47.78102" lon="6.90834">
        <ele>928.96101738015</ele>
        <time>2025-05-28T19:40:11.000Z</time>
      </trkpt>
      <trkpt lat="47.78103" lon="6.90832">
        <ele>928.74413701292</ele>
        <time>2025-05-28T19:40:12.000Z</time>
      </trkpt>
      <trkpt lat="47.78113" lon="6.90828">
        <ele>927.73081680527</ele>
        <time>2025-05-28T19:40:20.000Z</time>
      </trkpt>
      <trkpt lat="47.78117" lon="6.90825">
        <ele>927.3442930033</ele>
        <time>2025-05-28T19:40:24.000Z</time>
      </trkpt>
      <trkpt lat="47.78121" lon="6.90817">
        <ele>926.46746239997</ele>
        <time>2025-05-28T19:40:30.000Z</time>
      </trkpt>
      <trkpt lat="47.78124" lon="6.90811">
        <ele>925.81501511112</ele>
        <time>2025-05-28T19:40:33.000Z</time>
      </trkpt>
      <trkpt lat="47.78126" lon="6.90806">
        <ele>925.19775112292</ele>
        <time>2025-05-28T19:40:38.000Z</time>
      </trkpt>
      <trkpt lat="47.78135" lon="6.90801">
        <ele>924.75484569664</ele>
        <time>2025-05-28T19:40:46.000Z</time>
      </trkpt>
      <trkpt lat="47.78143" lon="6.9079">
        <ele>924.67487267088</ele>
        <time>2025-05-28T19:40:56.000Z</time>
      </trkpt>
      <trkpt lat="47.78148" lon="6.90777">
        <ele>923.98930802183</ele>
        <time>2025-05-28T19:41:04.000Z</time>
      </trkpt>
      <trkpt lat="47.78153" lon="6.90773">
        <ele>924.13001565905</ele>
        <time>2025-05-28T19:41:08.000Z</time>
      </trkpt>
      <trkpt lat="47.78156" lon="6.90769">
        <ele>923.99338913232</ele>
        <time>2025-05-28T19:41:12.000Z</time>
      </trkpt>
      <trkpt lat="47.78161" lon="6.90761">
        <ele>923.95293739765</ele>
        <time>2025-05-28T19:41:18.000Z</time>
      </trkpt>
      <trkpt lat="47.78164" lon="6.90757">
        <ele>923.88779445236</ele>
        <time>2025-05-28T19:41:23.000Z</time>
      </trkpt>
      <trkpt lat="47.78177" lon="6.90747">
        <ele>924.21619347846</ele>
        <time>2025-05-28T19:41:35.000Z</time>
      </trkpt>
      <trkpt lat="47.78183" lon="6.9074">
        <ele>923.95622092454</ele>
        <time>2025-05-28T19:41:49.000Z</time>
      </trkpt>
      <trkpt lat="47.78186" lon="6.90735">
        <ele>923.48480648198</ele>
        <time>2025-05-28T19:41:53.000Z</time>
      </trkpt>
      <trkpt lat="47.78188" lon="6.90727">
        <ele>922.753845512</ele>
        <time>2025-05-28T19:41:57.000Z</time>
      </trkpt>
      <trkpt lat="47.78196" lon="6.90704">
        <ele>920.81545424489</ele>
        <time>2025-05-28T19:42:14.000Z</time>
      </trkpt>
      <trkpt lat="47.78198" lon="6.90697">
        <ele>920.21260563393</ele>
        <time>2025-05-28T19:42:18.000Z</time>
      </trkpt>
      <trkpt lat="47.78202" lon="6.90685">
        <ele>919.28867761532</ele>
        <time>2025-05-28T19:42:26.000Z</time>
      </trkpt>
      <trkpt lat="47.78203" lon="6.90677">
        <ele>918.51155022448</ele>
        <time>2025-05-28T19:42:30.000Z</time>
      </trkpt>
      <trkpt lat="47.78205" lon="6.90671">
        <ele>918.18147737748</ele>
        <time>2025-05-28T19:42:35.000Z</time>
      </trkpt>
      <trkpt lat="47.78208" lon="6.90664">
        <ele>917.80341189481</ele>
        <time>2025-05-28T19:42:39.000Z</time>
      </trkpt>
      <trkpt lat="47.78215" lon="6.90646">
        <ele>917.05151929529</ele>
        <time>2025-05-28T19:42:50.000Z</time>
      </trkpt>
      <trkpt lat="47.78224" lon="6.90628">
        <ele>917.11699487961</ele>
        <time>2025-05-28T19:43:02.000Z</time>
      </trkpt>
      <trkpt lat="47.78227" lon="6.90622">
        <ele>917.19592852443</ele>
        <time>2025-05-28T19:43:06.000Z</time>
      </trkpt>
      <trkpt lat="47.78229" lon="6.90617">
        <ele>917.37424582352</ele>
        <time>2025-05-28T19:43:10.000Z</time>
      </trkpt>
      <trkpt lat="47.78239" lon="6.90608">
        <ele>919.39180887324</ele>
        <time>2025-05-28T19:43:20.000Z</time>
      </trkpt>
      <trkpt lat="47.78242" lon="6.90602">
        <ele>918.89241713017</ele>
        <time>2025-05-28T19:43:23.000Z</time>
      </trkpt>
      <trkpt lat="47.78246" lon="6.90596">
        <ele>918.69959655637</ele>
        <time>2025-05-28T19:43:28.000Z</time>
      </trkpt>
      <trkpt lat="47.78249" lon="6.90591">
        <ele>918.53838883023</ele>
        <time>2025-05-28T19:43:32.000Z</time>
      </trkpt>
      <trkpt lat="47.78255" lon="6.90578">
        <ele>917.38480211654</ele>
        <time>2025-05-28T19:43:41.000Z</time>
      </trkpt>
      <trkpt lat="47.78258" lon="6.90571">
        <ele>916.44196043888</ele>
        <time>2025-05-28T19:43:45.000Z</time>
      </trkpt>
      <trkpt lat="47.7826" lon="6.90557">
        <ele>913.80484235222</ele>
        <time>2025-05-28T19:43:52.000Z</time>
      </trkpt>
      <trkpt lat="47.78263" lon="6.90543">
        <ele>911.30866462503</ele>
        <time>2025-05-28T19:44:00.000Z</time>
      </trkpt>
      <trkpt lat="47.78263" lon="6.90536">
        <ele>910.51344929771</ele>
        <time>2025-05-28T19:44:04.000Z</time>
      </trkpt>
      <trkpt lat="47.78266" lon="6.90516">
        <ele>908.63566314024</ele>
        <time>2025-05-28T19:44:16.000Z</time>
      </trkpt>
      <trkpt lat="47.78267" lon="6.90508">
        <ele>908.45419302615</ele>
        <time>2025-05-28T19:44:20.000Z</time>
      </trkpt>
      <trkpt lat="47.78268" lon="6.90501">
        <ele>908.37714399898</ele>
        <time>2025-05-28T19:44:24.000Z</time>
      </trkpt>
      <trkpt lat="47.78269" lon="6.90495">
        <ele>908.7492294712</ele>
        <time>2025-05-28T19:44:27.000Z</time>
      </trkpt>
      <trkpt lat="47.78269" lon="6.90444">
        <ele>907.88800369487</ele>
        <time>2025-05-28T19:44:55.000Z</time>
      </trkpt>
      <trkpt lat="47.78268" lon="6.90437">
        <ele>907.52908639996</ele>
        <time>2025-05-28T19:44:59.000Z</time>
      </trkpt>
      <trkpt lat="47.78266" lon="6.90416">
        <ele>906.55572778951</ele>
        <time>2025-05-28T19:45:11.000Z</time>
      </trkpt>
      <trkpt lat="47.78267" lon="6.90402">
        <ele>905.55107833743</ele>
        <time>2025-05-28T19:45:19.000Z</time>
      </trkpt>
      <trkpt lat="47.78266" lon="6.90386">
        <ele>903.96839884116</ele>
        <time>2025-05-28T19:45:27.000Z</time>
      </trkpt>
      <trkpt lat="47.78265" lon="6.90371">
        <ele>903.29776987985</ele>
        <time>2025-05-28T19:45:36.000Z</time>
      </trkpt>
      <trkpt lat="47.78265" lon="6.90336">
        <ele>904.4843259261</ele>
        <time>2025-05-28T19:45:56.000Z</time>
      </trkpt>
      <trkpt lat="47.78262" lon="6.90307">
        <ele>905.96396528911</ele>
        <time>2025-05-28T19:46:12.000Z</time>
      </trkpt>
      <trkpt lat="47.78267" lon="6.90306">
        <ele>908.14257454507</ele>
        <time>2025-05-28T19:46:23.000Z</time>
      </trkpt>
      <trkpt lat="47.78268" lon="6.90317">
        <ele>907.73243145587</ele>
        <time>2025-05-28T19:46:34.000Z</time>
      </trkpt>
      <trkpt lat="47.78273" lon="6.90315">
        <ele>910.13298775425</ele>
        <time>2025-05-28T19:46:45.000Z</time>
      </trkpt>
      <trkpt lat="47.78279" lon="6.90314">
        <ele>912.82427334907</ele>
        <time>2025-05-28T19:46:48.000Z</time>
      </trkpt>
      <trkpt lat="47.78282" lon="6.903">
        <ele>915.2726930535</ele>
        <time>2025-05-28T19:47:26.000Z</time>
      </trkpt>
      <trkpt lat="47.7828" lon="6.90294">
        <ele>915.1162852291</ele>
        <time>2025-05-28T19:47:31.000Z</time>
      </trkpt>
      <trkpt lat="47.78278" lon="6.90282">
        <ele>915.00709996335</ele>
        <time>2025-05-28T19:47:43.000Z</time>
      </trkpt>
      <trkpt lat="47.78277" lon="6.90266">
        <ele>915.54288512974</ele>
        <time>2025-05-28T19:47:55.000Z</time>
      </trkpt>
      <trkpt lat="47.78274" lon="6.90256">
        <ele>915.00355552489</ele>
        <time>2025-05-28T19:48:04.000Z</time>
      </trkpt>
      <trkpt lat="47.78272" lon="6.90248">
        <ele>914.83024170853</ele>
        <time>2025-05-28T19:48:12.000Z</time>
      </trkpt>
      <trkpt lat="47.78269" lon="6.90236">
        <ele>914.0654200953</ele>
        <time>2025-05-28T19:48:22.000Z</time>
      </trkpt>
      <trkpt lat="47.78268" lon="6.90229">
        <ele>914.03677254421</ele>
        <time>2025-05-28T19:48:29.000Z</time>
      </trkpt>
      <trkpt lat="47.78266" lon="6.90222">
        <ele>913.84460483981</ele>
        <time>2025-05-28T19:48:34.000Z</time>
      </trkpt>
      <trkpt lat="47.78262" lon="6.9021">
        <ele>912.80120342468</ele>
        <time>2025-05-28T19:48:45.000Z</time>
      </trkpt>
      <trkpt lat="47.7826" lon="6.90205">
        <ele>912.09110362931</ele>
        <time>2025-05-28T19:48:51.000Z</time>
      </trkpt>
      <trkpt lat="47.78258" lon="6.90199">
        <ele>911.41443240326</ele>
        <time>2025-05-28T19:48:55.000Z</time>
      </trkpt>
      <trkpt lat="47.78256" lon="6.90193">
        <ele>911.10667011529</ele>
        <time>2025-05-28T19:49:00.000Z</time>
      </trkpt>
      <trkpt lat="47.78254" lon="6.90186">
        <ele>910.72994996934</ele>
        <time>2025-05-28T19:49:05.000Z</time>
      </trkpt>
      <trkpt lat="47.78253" lon="6.90179">
        <ele>911.24250705082</ele>
        <time>2025-05-28T19:49:10.000Z</time>
      </trkpt>
      <trkpt lat="47.78255" lon="6.90162">
        <ele>912.93090776545</ele>
        <time>2025-05-28T19:49:21.000Z</time>
      </trkpt>
      <trkpt lat="47.78255" lon="6.90151">
        <ele>913.7155217604</ele>
        <time>2025-05-28T19:49:29.000Z</time>
      </trkpt>
      <trkpt lat="47.78257" lon="6.90141">
        <ele>914.89766955716</ele>
        <time>2025-05-28T19:49:36.000Z</time>
      </trkpt>
      <trkpt lat="47.78264" lon="6.90113">
        <ele>916.87552803014</ele>
        <time>2025-05-28T19:49:56.000Z</time>
      </trkpt>
      <trkpt lat="47.78266" lon="6.90106">
        <ele>917.25131770233</ele>
        <time>2025-05-28T19:50:00.000Z</time>
      </trkpt>
      <trkpt lat="47.78268" lon="6.90091">
        <ele>916.13050772775</ele>
        <time>2025-05-28T19:50:08.000Z</time>
      </trkpt>
      <trkpt lat="47.78268" lon="6.90078">
        <ele>914.51243524686</ele>
        <time>2025-05-28T19:50:16.000Z</time>
      </trkpt>
      <trkpt lat="47.78268" lon="6.90064">
        <ele>913.10292072592</ele>
        <time>2025-05-28T19:50:24.000Z</time>
      </trkpt>
      <trkpt lat="47.78269" lon="6.90058">
        <ele>913.01854919246</ele>
        <time>2025-05-28T19:50:29.000Z</time>
      </trkpt>
      <trkpt lat="47.78273" lon="6.90043">
        <ele>913.54700420522</ele>
        <time>2025-05-28T19:50:39.000Z</time>
      </trkpt>
      <trkpt lat="47.78275" lon="6.90038">
        <ele>913.97233321304</ele>
        <time>2025-05-28T19:50:43.000Z</time>
      </trkpt>
      <trkpt lat="47.78278" lon="6.90031">
        <ele>914.73217136222</ele>
        <time>2025-05-28T19:50:48.000Z</time>
      </trkpt>
      <trkpt lat="47.7828" lon="6.90024">
        <ele>915.19795148179</ele>
        <time>2025-05-28T19:50:53.000Z</time>
      </trkpt>
      <trkpt lat="47.78283" lon="6.90016">
        <ele>915.86244040439</ele>
        <time>2025-05-28T19:51:00.000Z</time>
      </trkpt>
      <trkpt lat="47.78289" lon="6.90002">
        <ele>916.51962980453</ele>
        <time>2025-05-28T19:51:12.000Z</time>
      </trkpt>
      <trkpt lat="47.783" lon="6.89983">
        <ele>916.89555934988</ele>
        <time>2025-05-28T19:51:29.000Z</time>
      </trkpt>
      <trkpt lat="47.78304" lon="6.89976">
        <ele>916.91785401205</ele>
        <time>2025-05-28T19:51:37.000Z</time>
      </trkpt>
      <trkpt lat="47.78314" lon="6.89968">
        <ele>917.39964201084</ele>
        <time>2025-05-28T19:51:51.000Z</time>
      </trkpt>
      <trkpt lat="47.7832" lon="6.89966">
        <ele>918.77204254931</ele>
        <time>2025-05-28T19:51:56.000Z</time>
      </trkpt>
      <trkpt lat="47.78325" lon="6.89965">
        <ele>920.14775048514</ele>
        <time>2025-05-28T19:52:01.000Z</time>
      </trkpt>
      <trkpt lat="47.78347" lon="6.89962">
        <ele>926.02368357706</ele>
        <time>2025-05-28T19:52:22.000Z</time>
      </trkpt>
      <trkpt lat="47.78354" lon="6.89957">
        <ele>927.21928395456</ele>
        <time>2025-05-28T19:52:32.000Z</time>
      </trkpt>
      <trkpt lat="47.78359" lon="6.89947">
        <ele>926.57480901735</ele>
        <time>2025-05-28T19:52:35.000Z</time>
      </trkpt>
      <trkpt lat="47.78358" lon="6.89941">
        <ele>923.48200431094</ele>
        <time>2025-05-28T19:52:38.000Z</time>
      </trkpt>
      <trkpt lat="47.78357" lon="6.89934">
        <ele>922.85085392115</ele>
        <time>2025-05-28T19:52:40.000Z</time>
      </trkpt>
      <trkpt lat="47.78352" lon="6.89927">
        <ele>919.49910621717</ele>
        <time>2025-05-28T19:52:53.000Z</time>
      </trkpt>
      <trkpt lat="47.7835" lon="6.89916">
        <ele>916.48897886862</ele>
        <time>2025-05-28T19:53:05.000Z</time>
      </trkpt>
      <trkpt lat="47.78351" lon="6.89899">
        <ele>914.62430174379</ele>
        <time>2025-05-28T19:53:18.000Z</time>
      </trkpt>
      <trkpt lat="47.78353" lon="6.89884">
        <ele>913.92115962587</ele>
        <time>2025-05-28T19:53:26.000Z</time>
      </trkpt>
      <trkpt lat="47.78355" lon="6.89869">
        <ele>913.93717189262</ele>
        <time>2025-05-28T19:53:38.000Z</time>
      </trkpt>
      <trkpt lat="47.78356" lon="6.89859">
        <ele>913.73167012362</ele>
        <time>2025-05-28T19:53:45.000Z</time>
      </trkpt>
      <trkpt lat="47.78357" lon="6.89852">
        <ele>914.10752523892</ele>
        <time>2025-05-28T19:53:50.000Z</time>
      </trkpt>
      <trkpt lat="47.78357" lon="6.89844">
        <ele>914.40170127554</ele>
        <time>2025-05-28T19:53:58.000Z</time>
      </trkpt>
      <trkpt lat="47.78357" lon="6.89803">
        <ele>917.31339935357</ele>
        <time>2025-05-28T19:54:31.000Z</time>
      </trkpt>
      <trkpt lat="47.78361" lon="6.89794">
        <ele>918.69846682271</ele>
        <time>2025-05-28T19:54:38.000Z</time>
      </trkpt>
      <trkpt lat="47.78364" lon="6.89789">
        <ele>919.69332536887</ele>
        <time>2025-05-28T19:54:42.000Z</time>
      </trkpt>
      <trkpt lat="47.78372" lon="6.89782">
        <ele>919.87334445458</ele>
        <time>2025-05-28T19:54:49.000Z</time>
      </trkpt>
      <trkpt lat="47.78376" lon="6.89779">
        <ele>919.91548120347</ele>
        <time>2025-05-28T19:54:54.000Z</time>
      </trkpt>
      <trkpt lat="47.7838" lon="6.89777">
        <ele>919.97634429179</ele>
        <time>2025-05-28T19:54:59.000Z</time>
      </trkpt>
      <trkpt lat="47.78386" lon="6.89776">
        <ele>919.93600336866</ele>
        <time>2025-05-28T19:55:05.000Z</time>
      </trkpt>
      <trkpt lat="47.7839" lon="6.89775">
        <ele>920.13964264846</ele>
        <time>2025-05-28T19:55:09.000Z</time>
      </trkpt>
      <trkpt lat="47.78395" lon="6.89775">
        <ele>920.41192185776</ele>
        <time>2025-05-28T19:55:13.000Z</time>
      </trkpt>
      <trkpt lat="47.78424" lon="6.8977">
        <ele>923.60857538232</ele>
        <time>2025-05-28T19:55:33.000Z</time>
      </trkpt>
      <trkpt lat="47.78431" lon="6.89763">
        <ele>924.6875567589</ele>
        <time>2025-05-28T19:55:46.000Z</time>
      </trkpt>
      <trkpt lat="47.78437" lon="6.89758">
        <ele>925.94781205679</ele>
        <time>2025-05-28T19:55:52.000Z</time>
      </trkpt>
      <trkpt lat="47.78442" lon="6.89751">
        <ele>926.68725978188</ele>
        <time>2025-05-28T19:56:02.000Z</time>
      </trkpt>
      <trkpt lat="47.78445" lon="6.89744">
        <ele>926.81468966098</ele>
        <time>2025-05-28T19:56:12.000Z</time>
      </trkpt>
      <trkpt lat="47.78448" lon="6.89738">
        <ele>926.6655422377</ele>
        <time>2025-05-28T19:56:18.000Z</time>
      </trkpt>
      <trkpt lat="47.78452" lon="6.89733">
        <ele>926.65180581322</ele>
        <time>2025-05-28T19:56:23.000Z</time>
      </trkpt>
      <trkpt lat="47.78453" lon="6.89725">
        <ele>925.49932942842</ele>
        <time>2025-05-28T19:56:28.000Z</time>
      </trkpt>
      <trkpt lat="47.78458" lon="6.89717">
        <ele>924.90911101942</ele>
        <time>2025-05-28T19:56:37.000Z</time>
      </trkpt>
      <trkpt lat="47.78458" lon="6.89709">
        <ele>923.56552936109</ele>
        <time>2025-05-28T19:56:41.000Z</time>
      </trkpt>
      <trkpt lat="47.78458" lon="6.89701">
        <ele>922.02853494352</ele>
        <time>2025-05-28T19:56:45.000Z</time>
      </trkpt>
      <trkpt lat="47.78463" lon="6.89693">
        <ele>921.29322744364</ele>
        <time>2025-05-28T19:56:53.000Z</time>
      </trkpt>
      <trkpt lat="47.78468" lon="6.89691">
        <ele>921.87757974367</ele>
        <time>2025-05-28T19:56:57.000Z</time>
      </trkpt>
      <trkpt lat="47.78473" lon="6.89688">
        <ele>922.00790833361</ele>
        <time>2025-05-28T19:57:00.000Z</time>
      </trkpt>
      <trkpt lat="47.78479" lon="6.89688">
        <ele>922.93032110053</ele>
        <time>2025-05-28T19:57:04.000Z</time>
      </trkpt>
      <trkpt lat="47.78486" lon="6.89684">
        <ele>922.92272271187</ele>
        <time>2025-05-28T19:57:10.000Z</time>
      </trkpt>
      <trkpt lat="47.78493" lon="6.89683">
        <ele>923.88034889316</ele>
        <time>2025-05-28T19:57:15.000Z</time>
      </trkpt>
      <trkpt lat="47.78501" lon="6.89682">
        <ele>924.57172935275</ele>
        <time>2025-05-28T19:57:21.000Z</time>
      </trkpt>
      <trkpt lat="47.78511" lon="6.89681">
        <ele>925.45899</ele>
        <time>2025-05-28T19:57:36.000Z</time>
      </trkpt>
      <trkpt lat="47.78516" lon="6.89682">
        <ele>926.16750034378</ele>
        <time>2025-05-28T19:57:40.000Z</time>
      </trkpt>
      <trkpt lat="47.78522" lon="6.89684">
        <ele>927.10688312828</ele>
        <time>2025-05-28T19:57:46.000Z</time>
      </trkpt>
      <trkpt lat="47.7855" lon="6.89692">
        <ele>929.75558239316</ele>
        <time>2025-05-28T19:58:12.000Z</time>
      </trkpt>
      <trkpt lat="47.78568" lon="6.89686">
        <ele>927.31413840689</ele>
        <time>2025-05-28T19:58:32.000Z</time>
      </trkpt>
      <trkpt lat="47.78575" lon="6.89691">
        <ele>928.14649318047</ele>
        <time>2025-05-28T19:58:38.000Z</time>
      </trkpt>
      <trkpt lat="47.78581" lon="6.89687">
        <ele>926.85679153595</ele>
        <time>2025-05-28T19:58:46.000Z</time>
      </trkpt>
      <trkpt lat="47.78589" lon="6.89683">
        <ele>925.22583234339</ele>
        <time>2025-05-28T19:58:56.000Z</time>
      </trkpt>
      <trkpt lat="47.78598" lon="6.89677">
        <ele>923.63390604742</ele>
        <time>2025-05-28T19:59:00.000Z</time>
      </trkpt>
      <trkpt lat="47.78601" lon="6.89665">
        <ele>921.15885003354</ele>
        <time>2025-05-28T19:59:06.000Z</time>
      </trkpt>
      <trkpt lat="47.78608" lon="6.89666">
        <ele>921.43823858351</ele>
        <time>2025-05-28T19:59:15.000Z</time>
      </trkpt>
      <trkpt lat="47.78613" lon="6.89664">
        <ele>921.02090679493</ele>
        <time>2025-05-28T19:59:18.000Z</time>
      </trkpt>
      <trkpt lat="47.78618" lon="6.89657">
        <ele>920.19335602323</ele>
        <time>2025-05-28T19:59:26.000Z</time>
      </trkpt>
      <trkpt lat="47.78628" lon="6.89654">
        <ele>920.7138416254</ele>
        <time>2025-05-28T19:59:33.000Z</time>
      </trkpt>
      <trkpt lat="47.78636" lon="6.89656">
        <ele>921.78033769943</ele>
        <time>2025-05-28T19:59:41.000Z</time>
      </trkpt>
      <trkpt lat="47.78647" lon="6.89667">
        <ele>923.49878758094</ele>
        <time>2025-05-28T20:00:02.000Z</time>
      </trkpt>
      <trkpt lat="47.78667" lon="6.89675">
        <ele>923.46621768689</ele>
        <time>2025-05-28T20:00:15.000Z</time>
      </trkpt>
      <trkpt lat="47.78674" lon="6.89677">
        <ele>922.84882937106</ele>
        <time>2025-05-28T20:00:27.000Z</time>
      </trkpt>
      <trkpt lat="47.78683" lon="6.89683">
        <ele>922.15344124278</ele>
        <time>2025-05-28T20:00:32.000Z</time>
      </trkpt>
      <trkpt lat="47.7869" lon="6.89681">
        <ele>921.35230725888</ele>
        <time>2025-05-28T20:00:37.000Z</time>
      </trkpt>
      <trkpt lat="47.78697" lon="6.89685">
        <ele>920.7916287235</ele>
        <time>2025-05-28T20:00:48.000Z</time>
      </trkpt>
      <trkpt lat="47.78709" lon="6.89686">
        <ele>920.60708638668</ele>
        <time>2025-05-28T20:00:54.000Z</time>
      </trkpt>
      <trkpt lat="47.78715" lon="6.89692">
        <ele>921.15682377466</ele>
        <time>2025-05-28T20:00:57.000Z</time>
      </trkpt>
      <trkpt lat="47.78717" lon="6.89698">
        <ele>921.69998518922</ele>
        <time>2025-05-28T20:01:01.000Z</time>
      </trkpt>
      <trkpt lat="47.78722" lon="6.89703">
        <ele>922.33536857936</ele>
        <time>2025-05-28T20:01:05.000Z</time>
      </trkpt>
      <trkpt lat="47.78727" lon="6.89703">
        <ele>922.4959239042</ele>
        <time>2025-05-28T20:01:09.000Z</time>
      </trkpt>
      <trkpt lat="47.78731" lon="6.89701">
        <ele>922.35078999817</ele>
        <time>2025-05-28T20:01:12.000Z</time>
      </trkpt>
      <trkpt lat="47.78732" lon="6.89694">
        <ele>921.87209691106</ele>
        <time>2025-05-28T20:01:17.000Z</time>
      </trkpt>
      <trkpt lat="47.78738" lon="6.89692">
        <ele>921.88741820919</ele>
        <time>2025-05-28T20:01:25.000Z</time>
      </trkpt>
      <trkpt lat="47.78744" lon="6.89695">
        <ele>922.19914319527</ele>
        <time>2025-05-28T20:01:35.000Z</time>
      </trkpt>
      <trkpt lat="47.78748" lon="6.89685">
        <ele>921.57253279141</ele>
        <time>2025-05-28T20:01:45.000Z</time>
      </trkpt>
      <trkpt lat="47.78749" lon="6.89679">
        <ele>921.15333568294</ele>
        <time>2025-05-28T20:01:50.000Z</time>
      </trkpt>
      <trkpt lat="47.78744" lon="6.89671">
        <ele>921.05855870108</ele>
        <time>2025-05-28T20:02:03.000Z</time>
      </trkpt>
      <trkpt lat="47.7874" lon="6.89669">
        <ele>920.89640734675</ele>
        <time>2025-05-28T20:02:09.000Z</time>
      </trkpt>
      <trkpt lat="47.78743" lon="6.89659">
        <ele>921.04095556373</ele>
        <time>2025-05-28T20:02:15.000Z</time>
      </trkpt>
      <trkpt lat="47.78745" lon="6.89651">
        <ele>921.48466649812</ele>
        <time>2025-05-28T20:02:23.000Z</time>
      </trkpt>
      <trkpt lat="47.78746" lon="6.89643">
        <ele>921.91584727434</ele>
        <time>2025-05-28T20:02:26.000Z</time>
      </trkpt>
      <trkpt lat="47.78746" lon="6.89637">
        <ele>922.28564248545</ele>
        <time>2025-05-28T20:02:29.000Z</time>
      </trkpt>
      <trkpt lat="47.78745" lon="6.8963">
        <ele>922.67037400045</ele>
        <time>2025-05-28T20:02:31.000Z</time>
      </trkpt>
      <trkpt lat="47.78745" lon="6.89623">
        <ele>922.90479204648</ele>
        <time>2025-05-28T20:02:35.000Z</time>
      </trkpt>
      <trkpt lat="47.78753" lon="6.89617">
        <ele>923.1279405385</ele>
        <time>2025-05-28T20:02:46.000Z</time>
      </trkpt>
      <trkpt lat="47.78757" lon="6.89615">
        <ele>923.18836605436</ele>
        <time>2025-05-28T20:02:50.000Z</time>
      </trkpt>
      <trkpt lat="47.78758" lon="6.89616">
        <ele>923.15283295526</ele>
        <time>2025-05-28T20:03:26.000Z</time>
      </trkpt>
      <trkpt lat="47.78762" lon="6.89603">
        <ele>923.73840571994</ele>
        <time>2025-05-28T20:03:49.000Z</time>
      </trkpt>
      <trkpt lat="47.78764" lon="6.8961">
        <ele>923.4170872972</ele>
        <time>2025-05-28T20:04:27.000Z</time>
      </trkpt>
      <trkpt lat="47.78761" lon="6.89618">
        <ele>922.94241381236</ele>
        <time>2025-05-28T20:04:32.000Z</time>
      </trkpt>
      <trkpt lat="47.78754" lon="6.89617">
        <ele>923.09677306963</ele>
        <time>2025-05-28T20:04:42.000Z</time>
      </trkpt>
      <trkpt lat="47.7875" lon="6.8962">
        <ele>922.95533724629</ele>
        <time>2025-05-28T20:04:48.000Z</time>
      </trkpt>
      <trkpt lat="47.78746" lon="6.89623">
        <ele>922.90628684024</ele>
        <time>2025-05-28T20:04:56.000Z</time>
      </trkpt>
      <trkpt lat="47.78745" lon="6.8963">
        <ele>922.68432787834</ele>
        <time>2025-05-28T20:05:08.000Z</time>
      </trkpt>
      <trkpt lat="47.78746" lon="6.89637">
        <ele>922.28739112621</ele>
        <time>2025-05-28T20:05:19.000Z</time>
      </trkpt>
      <trkpt lat="47.78745" lon="6.89644">
        <ele>921.85981468055</ele>
        <time>2025-05-28T20:05:23.000Z</time>
      </trkpt>
      <trkpt lat="47.78746" lon="6.89659">
        <ele>920.95750030633</ele>
        <time>2025-05-28T20:05:31.000Z</time>
      </trkpt>
      <trkpt lat="47.78747" lon="6.89669">
        <ele>920.76118038896</ele>
        <time>2025-05-28T20:05:37.000Z</time>
      </trkpt>
      <trkpt lat="47.78747" lon="6.89676">
        <ele>921.15408044737</ele>
        <time>2025-05-28T20:05:42.000Z</time>
      </trkpt>
      <trkpt lat="47.78746" lon="6.89684">
        <ele>921.62581400335</ele>
        <time>2025-05-28T20:05:47.000Z</time>
      </trkpt>
      <trkpt lat="47.78741" lon="6.89695">
        <ele>922.15729357504</ele>
        <time>2025-05-28T20:05:56.000Z</time>
      </trkpt>
      <trkpt lat="47.78739" lon="6.897">
        <ele>922.45954237026</ele>
        <time>2025-05-28T20:06:00.000Z</time>
      </trkpt>
      <trkpt lat="47.78732" lon="6.89712">
        <ele>923.51500958507</ele>
        <time>2025-05-28T20:06:09.000Z</time>
      </trkpt>
      <trkpt lat="47.7871" lon="6.89744">
        <ele>925.90030106343</ele>
        <time>2025-05-28T20:06:42.000Z</time>
      </trkpt>
      <trkpt lat="47.78705" lon="6.8975">
        <ele>926.3362324684</ele>
        <time>2025-05-28T20:06:49.000Z</time>
      </trkpt>
      <trkpt lat="47.78695" lon="6.8976">
        <ele>927.85314343468</ele>
        <time>2025-05-28T20:07:02.000Z</time>
      </trkpt>
      <trkpt lat="47.78693" lon="6.89767">
        <ele>928.32579330419</ele>
        <time>2025-05-28T20:07:06.000Z</time>
      </trkpt>
      <trkpt lat="47.78687" lon="6.89787">
        <ele>929.93524766273</ele>
        <time>2025-05-28T20:07:21.000Z</time>
      </trkpt>
      <trkpt lat="47.78683" lon="6.89791">
        <ele>930.67276610012</ele>
        <time>2025-05-28T20:07:25.000Z</time>
      </trkpt>
      <trkpt lat="47.78679" lon="6.89795">
        <ele>931.5182462845</ele>
        <time>2025-05-28T20:07:30.000Z</time>
      </trkpt>
      <trkpt lat="47.78663" lon="6.89802">
        <ele>935.27493463301</ele>
        <time>2025-05-28T20:07:47.000Z</time>
      </trkpt>
      <trkpt lat="47.78655" lon="6.89808">
        <ele>937.604543333</ele>
        <time>2025-05-28T20:07:55.000Z</time>
      </trkpt>
      <trkpt lat="47.78646" lon="6.8982">
        <ele>940.84901803727</ele>
        <time>2025-05-28T20:08:09.000Z</time>
      </trkpt>
      <trkpt lat="47.78628" lon="6.89853">
        <ele>948.09278834792</ele>
        <time>2025-05-28T20:08:41.000Z</time>
      </trkpt>
      <trkpt lat="47.78611" lon="6.89875">
        <ele>954.24233819381</ele>
        <time>2025-05-28T20:09:08.000Z</time>
      </trkpt>
      <trkpt lat="47.78593" lon="6.89918">
        <ele>960.1004461739</ele>
        <time>2025-05-28T20:09:46.000Z</time>
      </trkpt>
      <trkpt lat="47.78584" lon="6.89948">
        <ele>963.86390419044</ele>
        <time>2025-05-28T20:10:17.000Z</time>
      </trkpt>
      <trkpt lat="47.7858" lon="6.89964">
        <ele>966.25000843983</ele>
        <time>2025-05-28T20:10:29.000Z</time>
      </trkpt>
      <trkpt lat="47.78578" lon="6.8997">
        <ele>967.39528507904</ele>
        <time>2025-05-28T20:10:34.000Z</time>
      </trkpt>
      <trkpt lat="47.78574" lon="6.89984">
        <ele>970.12096153193</ele>
        <time>2025-05-28T20:10:45.000Z</time>
      </trkpt>
      <trkpt lat="47.78567" lon="6.90001">
        <ele>975.15491448548</ele>
        <time>2025-05-28T20:10:59.000Z</time>
      </trkpt>
      <trkpt lat="47.78566" lon="6.90008">
        <ele>976.62230753517</ele>
        <time>2025-05-28T20:11:04.000Z</time>
      </trkpt>
      <trkpt lat="47.78566" lon="6.90015">
        <ele>977.77910113453</ele>
        <time>2025-05-28T20:11:08.000Z</time>
      </trkpt>
      <trkpt lat="47.78563" lon="6.90034">
        <ele>982.29480067762</ele>
        <time>2025-05-28T20:11:23.000Z</time>
      </trkpt>
      <trkpt lat="47.78563" lon="6.90041">
        <ele>983.3203104835</ele>
        <time>2025-05-28T20:11:28.000Z</time>
      </trkpt>
      <trkpt lat="47.78559" lon="6.90057">
        <ele>986.93683791789</ele>
        <time>2025-05-28T20:11:41.000Z</time>
      </trkpt>
      <trkpt lat="47.78559" lon="6.90063">
        <ele>987.9997962521</ele>
        <time>2025-05-28T20:11:47.000Z</time>
      </trkpt>
      <trkpt lat="47.78559" lon="6.9007">
        <ele>988.87862733733</ele>
        <time>2025-05-28T20:11:52.000Z</time>
      </trkpt>
      <trkpt lat="47.78554" lon="6.90088">
        <ele>992.47784817006</ele>
        <time>2025-05-28T20:12:07.000Z</time>
      </trkpt>
      <trkpt lat="47.78553" lon="6.90096">
        <ele>993.54896194847</ele>
        <time>2025-05-28T20:12:13.000Z</time>
      </trkpt>
      <trkpt lat="47.78554" lon="6.90103">
        <ele>994.16983568089</ele>
        <time>2025-05-28T20:12:18.000Z</time>
      </trkpt>
      <trkpt lat="47.78554" lon="6.90114">
        <ele>995.42792294267</ele>
        <time>2025-05-28T20:12:26.000Z</time>
      </trkpt>
      <trkpt lat="47.78552" lon="6.90122">
        <ele>996.74020606635</ele>
        <time>2025-05-28T20:12:34.000Z</time>
      </trkpt>
      <trkpt lat="47.78551" lon="6.90136">
        <ele>998.45981202381</ele>
        <time>2025-05-28T20:12:44.000Z</time>
      </trkpt>
      <trkpt lat="47.78554" lon="6.90142">
        <ele>998.27921511159</ele>
        <time>2025-05-28T20:12:48.000Z</time>
      </trkpt>
      <trkpt lat="47.78554" lon="6.90149">
        <ele>998.72886109271</ele>
        <time>2025-05-28T20:12:54.000Z</time>
      </trkpt>
      <trkpt lat="47.78554" lon="6.90173">
        <ele>1001.4035272034</ele>
        <time>2025-05-28T20:13:14.000Z</time>
      </trkpt>
      <trkpt lat="47.78556" lon="6.90187">
        <ele>1001.8435597944</ele>
        <time>2025-05-28T20:13:23.000Z</time>
      </trkpt>
      <trkpt lat="47.78558" lon="6.90193">
        <ele>1002.0467764573</ele>
        <time>2025-05-28T20:13:27.000Z</time>
      </trkpt>
      <trkpt lat="47.78558" lon="6.90207">
        <ele>1003.8018030552</ele>
        <time>2025-05-28T20:13:37.000Z</time>
      </trkpt>
      <trkpt lat="47.78552" lon="6.90236">
        <ele>1009.7700169838</ele>
        <time>2025-05-28T20:13:57.000Z</time>
      </trkpt>
      <trkpt lat="47.78551" lon="6.90281">
        <ele>1015.2350848805</ele>
        <time>2025-05-28T20:14:28.000Z</time>
      </trkpt>
      <trkpt lat="47.78551" lon="6.90298">
        <ele>1016.2782445122</ele>
        <time>2025-05-28T20:14:39.000Z</time>
      </trkpt>
      <trkpt lat="47.78552" lon="6.90352">
        <ele>1016.7172402497</ele>
        <time>2025-05-28T20:15:13.000Z</time>
      </trkpt>
      <trkpt lat="47.78554" lon="6.90372">
        <ele>1016.9219121523</ele>
        <time>2025-05-28T20:15:26.000Z</time>
      </trkpt>
      <trkpt lat="47.78556" lon="6.90379">
        <ele>1016.3652696508</ele>
        <time>2025-05-28T20:15:30.000Z</time>
      </trkpt>
      <trkpt lat="47.78555" lon="6.90385">
        <ele>1016.9857831508</ele>
        <time>2025-05-28T20:15:34.000Z</time>
      </trkpt>
      <trkpt lat="47.78554" lon="6.90393">
        <ele>1017.6100821521</ele>
        <time>2025-05-28T20:15:39.000Z</time>
      </trkpt>
      <trkpt lat="47.78555" lon="6.90399">
        <ele>1017.3941732529</ele>
        <time>2025-05-28T20:15:43.000Z</time>
      </trkpt>
      <trkpt lat="47.78555" lon="6.90413">
        <ele>1017.7864649255</ele>
        <time>2025-05-28T20:15:52.000Z</time>
      </trkpt>
      <trkpt lat="47.78557" lon="6.90419">
        <ele>1017.3532438671</ele>
        <time>2025-05-28T20:15:55.000Z</time>
      </trkpt>
      <trkpt lat="47.78559" lon="6.90425">
        <ele>1016.6262828995</ele>
        <time>2025-05-28T20:15:59.000Z</time>
      </trkpt>
      <trkpt lat="47.7856" lon="6.90432">
        <ele>1016.7325314291</ele>
        <time>2025-05-28T20:16:04.000Z</time>
      </trkpt>
      <trkpt lat="47.78559" lon="6.90438">
        <ele>1017.664153206</ele>
        <time>2025-05-28T20:16:09.000Z</time>
      </trkpt>
      <trkpt lat="47.78558" lon="6.90445">
        <ele>1018.4409988003</ele>
        <time>2025-05-28T20:16:13.000Z</time>
      </trkpt>
      <trkpt lat="47.78557" lon="6.90452">
        <ele>1019.2066782344</ele>
        <time>2025-05-28T20:16:17.000Z</time>
      </trkpt>
      <trkpt lat="47.78556" lon="6.90459">
        <ele>1020.3117006906</ele>
        <time>2025-05-28T20:16:21.000Z</time>
      </trkpt>
      <trkpt lat="47.78558" lon="6.90469">
        <ele>1020.3885565244</ele>
        <time>2025-05-28T20:16:27.000Z</time>
      </trkpt>
      <trkpt lat="47.78556" lon="6.90475">
        <ele>1021.8026899015</ele>
        <time>2025-05-28T20:16:31.000Z</time>
      </trkpt>
      <trkpt lat="47.78555" lon="6.90484">
        <ele>1022.6149243007</ele>
        <time>2025-05-28T20:16:36.000Z</time>
      </trkpt>
      <trkpt lat="47.78556" lon="6.90491">
        <ele>1022.1830864752</ele>
        <time>2025-05-28T20:16:40.000Z</time>
      </trkpt>
      <trkpt lat="47.78555" lon="6.90498">
        <ele>1022.7393794695</ele>
        <time>2025-05-28T20:16:44.000Z</time>
      </trkpt>
      <trkpt lat="47.78549" lon="6.9051">
        <ele>1024.0892654261</ele>
        <time>2025-05-28T20:16:53.000Z</time>
      </trkpt>
      <trkpt lat="47.7854" lon="6.90562">
        <ele>1021.3384856536</ele>
        <time>2025-05-28T20:17:27.000Z</time>
      </trkpt>
      <trkpt lat="47.78539" lon="6.90569">
        <ele>1020.5771178862</ele>
        <time>2025-05-28T20:17:32.000Z</time>
      </trkpt>
      <trkpt lat="47.78542" lon="6.90578">
        <ele>1019.2303768667</ele>
        <time>2025-05-28T20:17:45.000Z</time>
      </trkpt>
      <trkpt lat="47.7854" lon="6.90584">
        <ele>1018.7956278156</ele>
        <time>2025-05-28T20:17:50.000Z</time>
      </trkpt>
      <trkpt lat="47.78539" lon="6.90591">
        <ele>1018.356317133</ele>
        <time>2025-05-28T20:17:54.000Z</time>
      </trkpt>
      <trkpt lat="47.78539" lon="6.90605">
        <ele>1017.4612572124</ele>
        <time>2025-05-28T20:18:02.000Z</time>
      </trkpt>
      <trkpt lat="47.78539" lon="6.90613">
        <ele>1017.3813446883</ele>
        <time>2025-05-28T20:18:07.000Z</time>
      </trkpt>
      <trkpt lat="47.78541" lon="6.9062">
        <ele>1017.7510827678</ele>
        <time>2025-05-28T20:18:11.000Z</time>
      </trkpt>
      <trkpt lat="47.7854" lon="6.90626">
        <ele>1018.0828082559</ele>
        <time>2025-05-28T20:18:15.000Z</time>
      </trkpt>
      <trkpt lat="47.78541" lon="6.90641">
        <ele>1018.8245206169</ele>
        <time>2025-05-28T20:18:24.000Z</time>
      </trkpt>
      <trkpt lat="47.78544" lon="6.90647">
        <ele>1019.2207021131</ele>
        <time>2025-05-28T20:18:28.000Z</time>
      </trkpt>
      <trkpt lat="47.78545" lon="6.90654">
        <ele>1019.5503341933</ele>
        <time>2025-05-28T20:18:32.000Z</time>
      </trkpt>
      <trkpt lat="47.78545" lon="6.9066">
        <ele>1019.930199457</ele>
        <time>2025-05-28T20:18:37.000Z</time>
      </trkpt>
      <trkpt lat="47.78548" lon="6.90666">
        <ele>1020.1448797901</ele>
        <time>2025-05-28T20:18:41.000Z</time>
      </trkpt>
      <trkpt lat="47.78552" lon="6.90673">
        <ele>1020.3077855594</ele>
        <time>2025-05-28T20:18:47.000Z</time>
      </trkpt>
      <trkpt lat="47.78555" lon="6.90677">
        <ele>1020.1813041292</ele>
        <time>2025-05-28T20:18:51.000Z</time>
      </trkpt>
      <trkpt lat="47.78558" lon="6.90683">
        <ele>1020.0145863929</ele>
        <time>2025-05-28T20:18:56.000Z</time>
      </trkpt>
      <trkpt lat="47.7856" lon="6.90688">
        <ele>1019.8632227796</ele>
        <time>2025-05-28T20:19:01.000Z</time>
      </trkpt>
      <trkpt lat="47.78563" lon="6.90695">
        <ele>1019.7101502305</ele>
        <time>2025-05-28T20:19:05.000Z</time>
      </trkpt>
      <trkpt lat="47.78565" lon="6.907">
        <ele>1019.6228016399</ele>
        <time>2025-05-28T20:19:10.000Z</time>
      </trkpt>
      <trkpt lat="47.78566" lon="6.90706">
        <ele>1019.5803553311</ele>
        <time>2025-05-28T20:19:15.000Z</time>
      </trkpt>
      <trkpt lat="47.78565" lon="6.90716">
        <ele>1019.6088955223</ele>
        <time>2025-05-28T20:19:21.000Z</time>
      </trkpt>
      <trkpt lat="47.78571" lon="6.90727">
        <ele>1019.5978433939</ele>
        <time>2025-05-28T20:19:28.000Z</time>
      </trkpt>
      <trkpt lat="47.78573" lon="6.90734">
        <ele>1019.6213839717</ele>
        <time>2025-05-28T20:19:32.000Z</time>
      </trkpt>
      <trkpt lat="47.78573" lon="6.90742">
        <ele>1019.6948696679</ele>
        <time>2025-05-28T20:19:36.000Z</time>
      </trkpt>
      <trkpt lat="47.78572" lon="6.90749">
        <ele>1019.7805795178</ele>
        <time>2025-05-28T20:19:41.000Z</time>
      </trkpt>
      <trkpt lat="47.78571" lon="6.90756">
        <ele>1019.8074528911</ele>
        <time>2025-05-28T20:19:45.000Z</time>
      </trkpt>
      <trkpt lat="47.78569" lon="6.90762">
        <ele>1019.9047787606</ele>
        <time>2025-05-28T20:19:48.000Z</time>
      </trkpt>
      <trkpt lat="47.78565" lon="6.90767">
        <ele>1019.9968940809</ele>
        <time>2025-05-28T20:19:53.000Z</time>
      </trkpt>
      <trkpt lat="47.7856" lon="6.90774">
        <ele>1020.0873851744</ele>
        <time>2025-05-28T20:19:59.000Z</time>
      </trkpt>
      <trkpt lat="47.78558" lon="6.90782">
        <ele>1020.1700181165</ele>
        <time>2025-05-28T20:20:03.000Z</time>
      </trkpt>
      <trkpt lat="47.78558" lon="6.90788">
        <ele>1020.1248416907</ele>
        <time>2025-05-28T20:20:06.000Z</time>
      </trkpt>
      <trkpt lat="47.78557" lon="6.90797">
        <ele>1020.1350069949</ele>
        <time>2025-05-28T20:20:10.000Z</time>
      </trkpt>
      <trkpt lat="47.78556" lon="6.9081">
        <ele>1019.667172728</ele>
        <time>2025-05-28T20:20:18.000Z</time>
      </trkpt>
      <trkpt lat="47.78555" lon="6.90831">
        <ele>1018.6581510767</ele>
        <time>2025-05-28T20:20:28.000Z</time>
      </trkpt>
      <trkpt lat="47.78553" lon="6.90845">
        <ele>1018.7970476324</ele>
        <time>2025-05-28T20:20:37.000Z</time>
      </trkpt>
      <trkpt lat="47.78553" lon="6.90859">
        <ele>1018.558070779</ele>
        <time>2025-05-28T20:20:44.000Z</time>
      </trkpt>
      <trkpt lat="47.78551" lon="6.90866">
        <ele>1019.0478076419</ele>
        <time>2025-05-28T20:20:47.000Z</time>
      </trkpt>
      <trkpt lat="47.78551" lon="6.90879">
        <ele>1019.6793143469</ele>
        <time>2025-05-28T20:20:55.000Z</time>
      </trkpt>
      <trkpt lat="47.78548" lon="6.909">
        <ele>1021.2773462103</ele>
        <time>2025-05-28T20:21:09.000Z</time>
      </trkpt>
      <trkpt lat="47.78549" lon="6.90916">
        <ele>1021.6902064128</ele>
        <time>2025-05-28T20:21:17.000Z</time>
      </trkpt>
      <trkpt lat="47.78549" lon="6.90925">
        <ele>1021.8950047495</ele>
        <time>2025-05-28T20:21:22.000Z</time>
      </trkpt>
      <trkpt lat="47.78549" lon="6.90938">
        <ele>1020.9768158923</ele>
        <time>2025-05-28T20:21:32.000Z</time>
      </trkpt>
      <trkpt lat="47.78551" lon="6.90955">
        <ele>1019.1298838008</ele>
        <time>2025-05-28T20:21:41.000Z</time>
      </trkpt>
      <trkpt lat="47.78555" lon="6.90972">
        <ele>1016.1902876737</ele>
        <time>2025-05-28T20:21:53.000Z</time>
      </trkpt>
      <trkpt lat="47.78556" lon="6.90979">
        <ele>1015.2672840547</ele>
        <time>2025-05-28T20:21:55.000Z</time>
      </trkpt>
      <trkpt lat="47.78557" lon="6.90986">
        <ele>1014.405681717</ele>
        <time>2025-05-28T20:22:00.000Z</time>
      </trkpt>
      <trkpt lat="47.7856" lon="6.90995">
        <ele>1012.3556809948</ele>
        <time>2025-05-28T20:22:06.000Z</time>
      </trkpt>
      <trkpt lat="47.78559" lon="6.91013">
        <ele>1012.1851090893</ele>
        <time>2025-05-28T20:22:17.000Z</time>
      </trkpt>
      <trkpt lat="47.7856" lon="6.91028">
        <ele>1011.5679438181</ele>
        <time>2025-05-28T20:22:37.000Z</time>
      </trkpt>
      <trkpt lat="47.78564" lon="6.91035">
        <ele>1009.8136610628</ele>
        <time>2025-05-28T20:22:43.000Z</time>
      </trkpt>
      <trkpt lat="47.78565" lon="6.91043">
        <ele>1009.2777036764</ele>
        <time>2025-05-28T20:22:48.000Z</time>
      </trkpt>
      <trkpt lat="47.78565" lon="6.91058">
        <ele>1009.4066632656</ele>
        <time>2025-05-28T20:22:58.000Z</time>
      </trkpt>
      <trkpt lat="47.7857" lon="6.91076">
        <ele>1007.4262327214</ele>
        <time>2025-05-28T20:23:10.000Z</time>
      </trkpt>
      <trkpt lat="47.78571" lon="6.91083">
        <ele>1007.3740263558</ele>
        <time>2025-05-28T20:23:14.000Z</time>
      </trkpt>
      <trkpt lat="47.7857" lon="6.9109">
        <ele>1008.5535748442</ele>
        <time>2025-05-28T20:23:18.000Z</time>
      </trkpt>
      <trkpt lat="47.78568" lon="6.91097">
        <ele>1010.4896388368</ele>
        <time>2025-05-28T20:23:23.000Z</time>
      </trkpt>
      <trkpt lat="47.78566" lon="6.91103">
        <ele>1012.2215467532</ele>
        <time>2025-05-28T20:23:29.000Z</time>
      </trkpt>
      <trkpt lat="47.78566" lon="6.91111">
        <ele>1012.7622722288</ele>
        <time>2025-05-28T20:23:33.000Z</time>
      </trkpt>
      <trkpt lat="47.78564" lon="6.9112">
        <ele>1014.2530120148</ele>
        <time>2025-05-28T20:23:40.000Z</time>
      </trkpt>
      <trkpt lat="47.78566" lon="6.91138">
        <ele>1013.730041053</ele>
        <time>2025-05-28T20:23:52.000Z</time>
      </trkpt>
      <trkpt lat="47.78565" lon="6.91146">
        <ele>1014.1605139962</ele>
        <time>2025-05-28T20:23:58.000Z</time>
      </trkpt>
      <trkpt lat="47.78562" lon="6.91154">
        <ele>1015.1996134658</ele>
        <time>2025-05-28T20:24:17.000Z</time>
      </trkpt>
      <trkpt lat="47.78562" lon="6.91164">
        <ele>1014.4184211943</ele>
        <time>2025-05-28T20:24:20.000Z</time>
      </trkpt>
      <trkpt lat="47.78561" lon="6.91178">
        <ele>1014.0509695926</ele>
        <time>2025-05-28T20:24:30.000Z</time>
      </trkpt>
      <trkpt lat="47.78553" lon="6.91193">
        <ele>1015.3747959392</ele>
        <time>2025-05-28T20:24:38.000Z</time>
      </trkpt>
      <trkpt lat="47.78557" lon="6.91199">
        <ele>1012.9680107822</ele>
        <time>2025-05-28T20:24:47.000Z</time>
      </trkpt>
      <trkpt lat="47.78555" lon="6.91223">
        <ele>1011.1822332112</ele>
        <time>2025-05-28T20:25:03.000Z</time>
      </trkpt>
      <trkpt lat="47.78558" lon="6.91234">
        <ele>1009.0682257632</ele>
        <time>2025-05-28T20:25:08.000Z</time>
      </trkpt>
      <trkpt lat="47.78557" lon="6.91246">
        <ele>1008.4470011052</ele>
        <time>2025-05-28T20:25:22.000Z</time>
      </trkpt>
      <trkpt lat="47.78557" lon="6.91256">
        <ele>1007.7608688761</ele>
        <time>2025-05-28T20:25:26.000Z</time>
      </trkpt>
      <trkpt lat="47.7856" lon="6.91262">
        <ele>1006.2247537502</ele>
        <time>2025-05-28T20:25:30.000Z</time>
      </trkpt>
      <trkpt lat="47.78561" lon="6.9127">
        <ele>1005.4253040487</ele>
        <time>2025-05-28T20:25:33.000Z</time>
      </trkpt>
      <trkpt lat="47.78557" lon="6.91276">
        <ele>1006.0599570791</ele>
        <time>2025-05-28T20:25:48.000Z</time>
      </trkpt>
      <trkpt lat="47.7856" lon="6.91289">
        <ele>1004.6137348753</ele>
        <time>2025-05-28T20:26:05.000Z</time>
      </trkpt>
      <trkpt lat="47.78561" lon="6.91312">
        <ele>1002.7571477173</ele>
        <time>2025-05-28T20:26:17.000Z</time>
      </trkpt>
      <trkpt lat="47.78559" lon="6.9132">
        <ele>1002.7206530818</ele>
        <time>2025-05-28T20:26:24.000Z</time>
      </trkpt>
      <trkpt lat="47.78554" lon="6.9133">
        <ele>1002.85458703</ele>
        <time>2025-05-28T20:26:36.000Z</time>
      </trkpt>
      <trkpt lat="47.78541" lon="6.91346">
        <ele>1003.014997469</ele>
        <time>2025-05-28T20:26:51.000Z</time>
      </trkpt>
      <trkpt lat="47.78537" lon="6.91349">
        <ele>1003.1485371713</ele>
        <time>2025-05-28T20:26:55.000Z</time>
      </trkpt>
      <trkpt lat="47.78533" lon="6.91355">
        <ele>1002.6910949483</ele>
        <time>2025-05-28T20:27:15.000Z</time>
      </trkpt>
      <trkpt lat="47.78528" lon="6.91359">
        <ele>1002.2717805359</ele>
        <time>2025-05-28T20:27:21.000Z</time>
      </trkpt>
      <trkpt lat="47.78524" lon="6.91361">
        <ele>1001.8173995003</ele>
        <time>2025-05-28T20:27:26.000Z</time>
      </trkpt>
      <trkpt lat="47.7852" lon="6.91367">
        <ele>1001.0989749455</ele>
        <time>2025-05-28T20:27:30.000Z</time>
      </trkpt>
      <trkpt lat="47.78514" lon="6.9137">
        <ele>1000.62098189</ele>
        <time>2025-05-28T20:27:38.000Z</time>
      </trkpt>
      <trkpt lat="47.78493" lon="6.91393">
        <ele>997.92715432417</ele>
        <time>2025-05-28T20:27:58.000Z</time>
      </trkpt>
      <trkpt lat="47.78481" lon="6.91405">
        <ele>997.37340379849</ele>
        <time>2025-05-28T20:28:12.000Z</time>
      </trkpt>
      <trkpt lat="47.78472" lon="6.91417">
        <ele>997.30480389642</ele>
        <time>2025-05-28T20:28:23.000Z</time>
      </trkpt>
      <trkpt lat="47.78472" lon="6.91424">
        <ele>997.55769605646</ele>
        <time>2025-05-28T20:28:28.000Z</time>
      </trkpt>
      <trkpt lat="47.78474" lon="6.91449">
        <ele>999.12944339511</ele>
        <time>2025-05-28T20:28:37.000Z</time>
      </trkpt>
      <trkpt lat="47.7847" lon="6.91457">
        <ele>999.69728629506</ele>
        <time>2025-05-28T20:28:41.000Z</time>
      </trkpt>
      <trkpt lat="47.78471" lon="6.91471">
        <ele>1000.5273637357</ele>
        <time>2025-05-28T20:28:50.000Z</time>
      </trkpt>
      <trkpt lat="47.78468" lon="6.91511">
        <ele>1003.0126175573</ele>
        <time>2025-05-28T20:29:15.000Z</time>
      </trkpt>
      <trkpt lat="47.78466" lon="6.91521">
        <ele>1003.6004232533</ele>
        <time>2025-05-28T20:29:27.000Z</time>
      </trkpt>
      <trkpt lat="47.78463" lon="6.91533">
        <ele>1004.1783051377</ele>
        <time>2025-05-28T20:29:42.000Z</time>
      </trkpt>
      <trkpt lat="47.78465" lon="6.91544">
        <ele>1004.7049233066</ele>
        <time>2025-05-28T20:29:45.000Z</time>
      </trkpt>
      <trkpt lat="47.78465" lon="6.91555">
        <ele>1005.0921988267</ele>
        <time>2025-05-28T20:29:47.000Z</time>
      </trkpt>
      <trkpt lat="47.78466" lon="6.91563">
        <ele>1005.0506983685</ele>
        <time>2025-05-28T20:29:49.000Z</time>
      </trkpt>
      <trkpt lat="47.7847" lon="6.91577">
        <ele>1004.5827789152</ele>
        <time>2025-05-28T20:29:57.000Z</time>
      </trkpt>
      <trkpt lat="47.78471" lon="6.91589">
        <ele>1004.2895703906</ele>
        <time>2025-05-28T20:30:04.000Z</time>
      </trkpt>
      <trkpt lat="47.78472" lon="6.91595">
        <ele>1004.0768837832</ele>
        <time>2025-05-28T20:30:07.000Z</time>
      </trkpt>
      <trkpt lat="47.78473" lon="6.91602">
        <ele>1003.7917954803</ele>
        <time>2025-05-28T20:30:11.000Z</time>
      </trkpt>
      <trkpt lat="47.78474" lon="6.91608">
        <ele>1003.494211697</ele>
        <time>2025-05-28T20:30:15.000Z</time>
      </trkpt>
      <trkpt lat="47.78475" lon="6.91616">
        <ele>1003.4187584522</ele>
        <time>2025-05-28T20:30:19.000Z</time>
      </trkpt>
      <trkpt lat="47.78475" lon="6.91623">
        <ele>1003.6800422931</ele>
        <time>2025-05-28T20:30:22.000Z</time>
      </trkpt>
      <trkpt lat="47.78471" lon="6.91631">
        <ele>1004.4702660217</ele>
        <time>2025-05-28T20:30:29.000Z</time>
      </trkpt>
      <trkpt lat="47.78462" lon="6.91643">
        <ele>1005.7164241941</ele>
        <time>2025-05-28T20:30:39.000Z</time>
      </trkpt>
    </trkseg>
  </trk>
</gpx>